Wetterdaten: Freitag, 03.06.2016
Datum Zeit Temp. A. Feuchte A. Luftdruck Regen Wind Richtung Richtung Sonnenschein ET UV Solar Taupunkt Windchill Windben Empfang
03.06.2016 00:00 12,9 C 95 % 1009,6 hPa 0,0 l/m 5,6 km/h (1 Bft) S-SW 202 0 min 0,000 mm 0,0 UV-I 0 W/m 12,1 C 12,9 C 8,0 km/h (2 Bft) 95,65 %
03.06.2016 00:02 12,9 C 95 % 1009,6 hPa 0,0 l/m 5,1 km/h (1 Bft) S-SW 200 0 min 0,000 mm 0,0 UV-I 0 W/m 12,1 C 12,9 C 6,4 km/h (2 Bft) 97,37 %
03.06.2016 00:03 12,9 C 95 % 1009,6 hPa 0,0 l/m 5,6 km/h (1 Bft) S 190 0 min 0,000 mm 0,0 UV-I 0 W/m 12,1 C 12,9 C 8,0 km/h (2 Bft) 91,67 %
03.06.2016 00:04 12,8 C 95 % 1009,5 hPa 0,0 l/m 5,1 km/h (1 Bft) S-SW 196 0 min 0,000 mm 0,0 UV-I 0 W/m 12,0 C 12,8 C 6,4 km/h (2 Bft) 91,30 %
03.06.2016 00:05 12,8 C 95 % 1009,6 hPa 0,0 l/m 6,2 km/h (2 Bft) S-SW 196 0 min 0,000 mm 0,0 UV-I 0 W/m 12,0 C 12,8 C 8,0 km/h (2 Bft) 100,00 %
03.06.2016 00:06 12,8 C 95 % 1009,5 hPa 0,0 l/m 4,4 km/h (1 Bft) S-SW 196 0 min 0,000 mm 0,0 UV-I 0 W/m 12,0 C 12,8 C 6,4 km/h (2 Bft) 95,65 %
03.06.2016 00:07 12,8 C 95 % 1009,5 hPa 0,0 l/m 5,3 km/h (1 Bft) S-SW 202 0 min 0,000 mm 0,0 UV-I 0 W/m 12,0 C 12,8 C 8,0 km/h (2 Bft) 95,83 %
03.06.2016 00:08 12,8 C 95 % 1009,5 hPa 0,0 l/m 6,4 km/h (2 Bft) S-SW 207 0 min 0,000 mm 0,0 UV-I 0 W/m 12,0 C 12,8 C 8,0 km/h (2 Bft) 100,00 %
03.06.2016 00:09 12,8 C 95 % 1009,5 hPa 0,0 l/m 5,6 km/h (1 Bft) SW 217 0 min 0,000 mm 0,0 UV-I 0 W/m 12,0 C 12,8 C 8,0 km/h (2 Bft) 96,15 %
03.06.2016 00:10 12,9 C 95 % 1009,5 hPa 0,0 l/m 6,4 km/h (2 Bft) S-SW 206 0 min 0,000 mm 0,0 UV-I 0 W/m 12,1 C 12,9 C 8,0 km/h (2 Bft) 100,00 %
03.06.2016 00:11 12,8 C 95 % 1009,5 hPa 0,0 l/m 7,0 km/h (2 Bft) S 190 0 min 0,000 mm 0,0 UV-I 0 W/m 12,0 C 12,4 C 11,3 km/h (2 Bft) 95,65 %
03.06.2016 00:12 12,9 C 95 % 1009,5 hPa 0,0 l/m 6,6 km/h (2 Bft) S-SW 192 0 min 0,000 mm 0,0 UV-I 0 W/m 12,1 C 12,8 C 9,7 km/h (2 Bft) 95,65 %
03.06.2016 00:13 12,9 C 95 % 1009,5 hPa 0,0 l/m 6,2 km/h (2 Bft) S-SW 196 0 min 0,000 mm 0,0 UV-I 0 W/m 12,1 C 12,9 C 8,0 km/h (2 Bft) 95,83 %
03.06.2016 00:14 12,9 C 95 % 1009,5 hPa 0,0 l/m 5,7 km/h (1 Bft) S-SW 205 0 min 0,000 mm 0,0 UV-I 0 W/m 12,1 C 12,9 C 9,7 km/h (2 Bft) 95,83 %
03.06.2016 00:15 12,9 C 95 % 1009,5 hPa 0,0 l/m 5,4 km/h (1 Bft) S 180 0 min 0,000 mm 0,0 UV-I 0 W/m 12,1 C 12,9 C 6,4 km/h (2 Bft) 95,65 %
03.06.2016 00:16 12,9 C 95 % 1009,5 hPa 0,0 l/m 6,4 km/h (2 Bft) S-SW 207 0 min 0,000 mm 0,0 UV-I 0 W/m 12,1 C 12,9 C 8,0 km/h (2 Bft) 91,67 %
03.06.2016 00:17 12,9 C 95 % 1009,5 hPa 0,0 l/m 4,2 km/h (1 Bft) SW 225 0 min 0,000 mm 0,0 UV-I 0 W/m 12,1 C 12,9 C 8,0 km/h (2 Bft) 91,30 %
03.06.2016 00:18 12,9 C 95 % 1009,4 hPa 0,0 l/m 4,9 km/h (1 Bft) S-SW 194 0 min 0,000 mm 0,0 UV-I 0 W/m 12,1 C 12,9 C 6,4 km/h (2 Bft) 95,83 %
03.06.2016 00:19 12,9 C 95 % 1009,5 hPa 0,0 l/m 4,0 km/h (1 Bft) S-SW 202 0 min 0,000 mm 0,0 UV-I 0 W/m 12,1 C 12,9 C 6,4 km/h (2 Bft) 100,00 %
03.06.2016 00:20 12,9 C 95 % 1009,5 hPa 0,0 l/m 2,8 km/h (1 Bft) S-SW 205 0 min 0,000 mm 0,0 UV-I 0 W/m 12,1 C 12,9 C 3,2 km/h (1 Bft) 95,83 %
03.06.2016 00:21 12,9 C 95 % 1009,5 hPa 0,0 l/m 1,9 km/h (1 Bft) S-SW 205 0 min 0,000 mm 0,0 UV-I 0 W/m 12,1 C 12,9 C 3,2 km/h (1 Bft) 95,65 %
03.06.2016 00:22 12,9 C 95 % 1009,5 hPa 0,0 l/m 2,0 km/h (1 Bft) S-SW 205 0 min 0,000 mm 0,0 UV-I 0 W/m 12,1 C 12,9 C 3,2 km/h (1 Bft) 100,00 %
03.06.2016 00:23 12,9 C 95 % 1009,5 hPa 0,0 l/m 2,7 km/h (1 Bft) SW 217 0 min 0,000 mm 0,0 UV-I 0 W/m 12,1 C 12,9 C 4,8 km/h (1 Bft) 100,00 %
03.06.2016 00:24 12,9 C 95 % 1009,5 hPa 0,0 l/m 4,2 km/h (1 Bft) SW 217 0 min 0,000 mm 0,0 UV-I 0 W/m 12,1 C 12,9 C 4,8 km/h (1 Bft) 95,83 %
03.06.2016 00:25 12,8 C 95 % 1009,5 hPa 0,0 l/m 3,0 km/h (1 Bft) SW 217 0 min 0,000 mm 0,0 UV-I 0 W/m 12,0 C 12,8 C 4,8 km/h (1 Bft) 95,65 %
03.06.2016 00:26 12,8 C 95 % 1009,5 hPa 0,0 l/m 5,5 km/h (1 Bft) S 190 0 min 0,000 mm 0,0 UV-I 0 W/m 12,0 C 12,8 C 8,0 km/h (2 Bft) 100,00 %
03.06.2016 00:27 12,9 C 95 % 1009,5 hPa 0,0 l/m 4,4 km/h (1 Bft) S-SW 202 0 min 0,000 mm 0,0 UV-I 0 W/m 12,1 C 12,9 C 6,4 km/h (2 Bft) 100,00 %
03.06.2016 00:28 12,9 C 95 % 1009,5 hPa 0,0 l/m 4,5 km/h (1 Bft) S-SW 205 0 min 0,000 mm 0,0 UV-I 0 W/m 12,1 C 12,9 C 6,4 km/h (2 Bft) 100,00 %
03.06.2016 00:29 12,9 C 95 % 1009,5 hPa 0,0 l/m 5,0 km/h (1 Bft) S 177 0 min 0,000 mm 0,0 UV-I 0 W/m 12,1 C 12,9 C 8,0 km/h (2 Bft) 100,00 %
03.06.2016 00:30 12,9 C 95 % 1009,5 hPa 0,0 l/m 4,1 km/h (1 Bft) S-SW 202 0 min 0,000 mm 0,0 UV-I 0 W/m 12,1 C 12,9 C 8,0 km/h (2 Bft) 95,65 %
03.06.2016 00:31 12,9 C 95 % 1009,5 hPa 0,0 l/m 4,2 km/h (1 Bft) S-SW 200 0 min 0,000 mm 0,0 UV-I 0 W/m 12,1 C 12,9 C 8,0 km/h (2 Bft) 100,00 %
03.06.2016 00:32 12,9 C 95 % 1009,5 hPa 0,0 l/m 5,4 km/h (1 Bft) SW 226 0 min 0,000 mm 0,0 UV-I 0 W/m 12,1 C 12,9 C 8,0 km/h (2 Bft) 95,65 %
03.06.2016 00:33 12,9 C 95 % 1009,4 hPa 0,0 l/m 6,0 km/h (2 Bft) S-SW 197 0 min 0,000 mm 0,0 UV-I 0 W/m 12,1 C 12,9 C 9,7 km/h (2 Bft) 100,00 %
03.06.2016 00:34 12,9 C 95 % 1009,5 hPa 0,0 l/m 4,6 km/h (1 Bft) S-SW 206 0 min 0,000 mm 0,0 UV-I 0 W/m 12,1 C 12,9 C 4,8 km/h (1 Bft) 100,00 %
03.06.2016 00:35 12,9 C 95 % 1009,4 hPa 0,0 l/m 5,8 km/h (2 Bft) S-SW 200 0 min 0,000 mm 0,0 UV-I 0 W/m 12,1 C 12,9 C 8,0 km/h (2 Bft) 100,00 %
03.06.2016 00:36 12,9 C 95 % 1009,4 hPa 0,0 l/m 4,2 km/h (1 Bft) S-SW 200 0 min 0,000 mm 0,0 UV-I 0 W/m 12,1 C 12,9 C 6,4 km/h (2 Bft) 95,65 %
03.06.2016 00:37 12,8 C 95 % 1009,5 hPa 0,0 l/m 4,5 km/h (1 Bft) S 191 0 min 0,000 mm 0,0 UV-I 0 W/m 12,0 C 12,8 C 8,0 km/h (2 Bft) 100,00 %
03.06.2016 00:38 12,8 C 95 % 1009,5 hPa 0,0 l/m 4,0 km/h (1 Bft) S 188 0 min 0,000 mm 0,0 UV-I 0 W/m 12,0 C 12,8 C 6,4 km/h (2 Bft) 96,55 %
03.06.2016 00:39 12,8 C 95 % 1009,4 hPa 0,0 l/m 4,6 km/h (1 Bft) S-SW 208 0 min 0,000 mm 0,0 UV-I 0 W/m 12,0 C 12,8 C 6,4 km/h (2 Bft) 100,00 %
03.06.2016 00:40 12,8 C 95 % 1009,5 hPa 0,0 l/m 4,4 km/h (1 Bft) S-SW 201 0 min 0,000 mm 0,0 UV-I 0 W/m 12,0 C 12,8 C 6,4 km/h (2 Bft) 95,65 %
03.06.2016 00:41 12,8 C 95 % 1009,4 hPa 0,0 l/m 3,9 km/h (1 Bft) S-SW 196 0 min 0,000 mm 0,0 UV-I 0 W/m 12,0 C 12,8 C 4,8 km/h (1 Bft) 93,33 %
03.06.2016 00:42 12,8 C 95 % 1009,5 hPa 0,0 l/m 4,0 km/h (1 Bft) S-SW 195 0 min 0,000 mm 0,0 UV-I 0 W/m 12,0 C 12,8 C 6,4 km/h (2 Bft) 95,65 %
03.06.2016 00:43 12,8 C 95 % 1009,4 hPa 0,0 l/m 4,4 km/h (1 Bft) S-SW 192 0 min 0,000 mm 0,0 UV-I 0 W/m 12,0 C 12,8 C 4,8 km/h (1 Bft) 100,00 %
03.06.2016 00:44 12,8 C 95 % 1009,5 hPa 0,0 l/m 4,1 km/h (1 Bft) S-SW 192 0 min 0,000 mm 0,0 UV-I 0 W/m 12,0 C 12,8 C 6,4 km/h (2 Bft) 100,00 %
03.06.2016 00:45 12,8 C 95 % 1009,5 hPa 0,0 l/m 3,4 km/h (1 Bft) S 191 0 min 0,000 mm 0,0 UV-I 0 W/m 12,0 C 12,8 C 4,8 km/h (1 Bft) 100,00 %
03.06.2016 00:46 12,8 C 95 % 1009,4 hPa 0,0 l/m 3,8 km/h (1 Bft) S-SW 200 0 min 0,000 mm 0,0 UV-I 0 W/m 12,0 C 12,8 C 6,4 km/h (2 Bft) 100,00 %
03.06.2016 00:47 12,8 C 95 % 1009,4 hPa 0,0 l/m 3,2 km/h (1 Bft) S-SW 205 0 min 0,000 mm 0,0 UV-I 0 W/m 12,0 C 12,8 C 4,8 km/h (1 Bft) 100,00 %
03.06.2016 00:48 12,8 C 95 % 1009,4 hPa 0,0 l/m 4,1 km/h (1 Bft) S-SW 200 0 min 0,000 mm 0,0 UV-I 0 W/m 12,0 C 12,8 C 4,8 km/h (1 Bft) 100,00 %
03.06.2016 00:49 12,8 C 95 % 1009,4 hPa 0,0 l/m 4,1 km/h (1 Bft) S-SW 200 0 min 0,000 mm 0,0 UV-I 0 W/m 12,0 C 12,8 C 6,4 km/h (2 Bft) 95,65 %
03.06.2016 00:50 12,8 C 95 % 1009,4 hPa 0,0 l/m 4,0 km/h (1 Bft) S-SW 204 0 min 0,000 mm 0,0 UV-I 0 W/m 12,0 C 12,8 C 4,8 km/h (1 Bft) 100,00 %
03.06.2016 00:51 12,8 C 95 % 1009,3 hPa 0,0 l/m 4,9 km/h (1 Bft) S-SW 196 0 min 0,000 mm 0,0 UV-I 0 W/m 12,0 C 12,8 C 6,4 km/h (2 Bft) 95,65 %
03.06.2016 00:52 12,8 C 95 % 1009,4 hPa 0,0 l/m 3,4 km/h (1 Bft) S-SW 196 0 min 0,000 mm 0,0 UV-I 0 W/m 12,0 C 12,8 C 4,8 km/h (1 Bft) 100,00 %
03.06.2016 00:53 12,8 C 95 % 1009,4 hPa 0,0 l/m 3,9 km/h (1 Bft) S-SW 196 0 min 0,000 mm 0,0 UV-I 0 W/m 12,0 C 12,8 C 4,8 km/h (1 Bft) 95,65 %
03.06.2016 00:54 12,8 C 95 % 1009,4 hPa 0,0 l/m 3,7 km/h (1 Bft) S-SW 196 0 min 0,000 mm 0,0 UV-I 0 W/m 12,0 C 12,8 C 4,8 km/h (1 Bft) 100,00 %
03.06.2016 00:55 12,8 C 95 % 1009,4 hPa 0,0 l/m 3,7 km/h (1 Bft) S-SW 197 0 min 0,000 mm 0,0 UV-I 0 W/m 12,0 C 12,8 C 4,8 km/h (1 Bft) 95,65 %
03.06.2016 00:56 12,8 C 95 % 1009,4 hPa 0,0 l/m 4,4 km/h (1 Bft) S 171 0 min 0,000 mm 0,0 UV-I 0 W/m 12,0 C 12,8 C 6,4 km/h (2 Bft) 100,00 %
03.06.2016 00:57 12,8 C 95 % 1009,4 hPa 0,0 l/m 3,2 km/h (1 Bft) S 176 0 min 0,000 mm 0,0 UV-I 0 W/m 12,0 C 12,8 C 4,8 km/h (1 Bft) 100,00 %
03.06.2016 00:58 12,7 C 95 % 1009,3 hPa 0,0 l/m 4,4 km/h (1 Bft) S 176 0 min 0,000 mm 0,0 UV-I 0 W/m 11,9 C 12,7 C 6,4 km/h (2 Bft) 100,00 %
03.06.2016 00:59 12,7 C 95 % 1009,3 hPa 0,0 l/m 4,8 km/h (1 Bft) S 182 0 min 0,000 mm 0,0 UV-I 0 W/m 11,9 C 12,7 C 6,4 km/h (2 Bft) 100,00 %
03.06.2016 01:00 12,7 C 95 % 1009,3 hPa 0,0 l/m 4,6 km/h (1 Bft) S 190 0 min 0,000 mm 0,0 UV-I 0 W/m 11,9 C 12,7 C 6,4 km/h (2 Bft) 100,00 %
03.06.2016 01:01 12,7 C 95 % 1009,3 hPa 0,0 l/m 3,5 km/h (1 Bft) S 188 0 min 0,000 mm 0,0 UV-I 0 W/m 11,9 C 12,7 C 4,8 km/h (1 Bft) 100,00 %
03.06.2016 01:02 12,7 C 95 % 1009,3 hPa 0,0 l/m 5,2 km/h (1 Bft) S-SW 202 0 min 0,000 mm 0,0 UV-I 0 W/m 11,9 C 12,7 C 8,0 km/h (2 Bft) 100,00 %
03.06.2016 01:03 12,7 C 95 % 1009,3 hPa 0,0 l/m 4,0 km/h (1 Bft) S 190 0 min 0,000 mm 0,0 UV-I 0 W/m 11,9 C 12,7 C 6,4 km/h (2 Bft) 95,65 %
03.06.2016 01:04 12,7 C 95 % 1009,3 hPa 0,0 l/m 4,9 km/h (1 Bft) S 183 0 min 0,000 mm 0,0 UV-I 0 W/m 11,9 C 12,7 C 6,4 km/h (2 Bft) 100,00 %
03.06.2016 01:05 12,7 C 95 % 1009,3 hPa 0,0 l/m 4,2 km/h (1 Bft) S 180 0 min 0,000 mm 0,0 UV-I 0 W/m 11,9 C 12,7 C 4,8 km/h (1 Bft) 95,65 %
03.06.2016 01:06 12,7 C 95 % 1009,3 hPa 0,0 l/m 6,2 km/h (2 Bft) S-SW 192 0 min 0,000 mm 0,0 UV-I 0 W/m 11,9 C 12,7 C 6,4 km/h (2 Bft) 100,00 %
03.06.2016 01:07 12,7 C 95 % 1009,3 hPa 0,0 l/m 5,1 km/h (1 Bft) S 184 0 min 0,000 mm 0,0 UV-I 0 W/m 11,9 C 12,7 C 6,4 km/h (2 Bft) 95,65 %
03.06.2016 01:08 12,7 C 95 % 1009,3 hPa 0,0 l/m 3,7 km/h (1 Bft) S 188 0 min 0,000 mm 0,0 UV-I 0 W/m 11,9 C 12,7 C 6,4 km/h (2 Bft) 100,00 %
03.06.2016 01:09 12,7 C 95 % 1009,2 hPa 0,0 l/m 4,8 km/h (1 Bft) S 191 0 min 0,000 mm 0,0 UV-I 0 W/m 11,9 C 12,7 C 8,0 km/h (2 Bft) 100,00 %
03.06.2016 01:10 12,7 C 95 % 1009,2 hPa 0,0 l/m 2,9 km/h (1 Bft) S 171 0 min 0,000 mm 0,0 UV-I 0 W/m 11,9 C 12,7 C 4,8 km/h (1 Bft) 95,83 %
03.06.2016 01:11 12,7 C 95 % 1009,2 hPa 0,0 l/m 4,3 km/h (1 Bft) S 171 0 min 0,000 mm 0,0 UV-I 0 W/m 11,9 C 12,7 C 6,4 km/h (2 Bft) 100,00 %
03.06.2016 01:12 12,7 C 95 % 1009,2 hPa 0,0 l/m 4,0 km/h (1 Bft) S 171 0 min 0,000 mm 0,0 UV-I 0 W/m 11,9 C 12,7 C 6,4 km/h (2 Bft) 100,00 %
03.06.2016 01:13 12,6 C 95 % 1009,2 hPa 0,0 l/m 3,2 km/h (1 Bft) S 171 0 min 0,000 mm 0,0 UV-I 0 W/m 11,8 C 12,6 C 6,4 km/h (2 Bft) 100,00 %
03.06.2016 01:14 12,7 C 95 % 1009,2 hPa 0,0 l/m 3,8 km/h (1 Bft) S 171 0 min 0,000 mm 0,0 UV-I 0 W/m 11,9 C 12,7 C 6,4 km/h (2 Bft) 95,65 %
03.06.2016 01:15 12,6 C 95 % 1009,2 hPa 0,0 l/m 3,6 km/h (1 Bft) S 187 0 min 0,000 mm 0,0 UV-I 0 W/m 11,8 C 12,6 C 6,4 km/h (2 Bft) 100,00 %
03.06.2016 01:16 12,6 C 95 % 1009,2 hPa 0,0 l/m 3,8 km/h (1 Bft) S 182 0 min 0,000 mm 0,0 UV-I 0 W/m 11,8 C 12,6 C 6,4 km/h (2 Bft) 100,00 %
03.06.2016 01:17 12,6 C 95 % 1009,2 hPa 0,0 l/m 3,7 km/h (1 Bft) S 182 0 min 0,000 mm 0,0 UV-I 0 W/m 11,8 C 12,6 C 4,8 km/h (1 Bft) 100,00 %
03.06.2016 01:18 12,6 C 95 % 1009,2 hPa 0,0 l/m 4,0 km/h (1 Bft) S 181 0 min 0,000 mm 0,0 UV-I 0 W/m 11,8 C 12,6 C 4,8 km/h (1 Bft) 91,30 %
03.06.2016 01:19 12,6 C 95 % 1009,2 hPa 0,0 l/m 2,6 km/h (1 Bft) S 181 0 min 0,000 mm 0,0 UV-I 0 W/m 11,8 C 12,6 C 4,8 km/h (1 Bft) 95,83 %
03.06.2016 01:20 12,6 C 95 % 1009,2 hPa 0,0 l/m 3,8 km/h (1 Bft) S 181 0 min 0,000 mm 0,0 UV-I 0 W/m 11,8 C 12,6 C 4,8 km/h (1 Bft) 95,65 %
03.06.2016 01:21 12,6 C 95 % 1009,2 hPa 0,0 l/m 4,2 km/h (1 Bft) S 174 0 min 0,000 mm 0,0 UV-I 0 W/m 11,8 C 12,6 C 6,4 km/h (2 Bft) 100,00 %
03.06.2016 01:22 12,6 C 95 % 1009,2 hPa 0,0 l/m 2,9 km/h (1 Bft) S 174 0 min 0,000 mm 0,0 UV-I 0 W/m 11,8 C 12,6 C 4,8 km/h (1 Bft) 100,00 %
03.06.2016 01:23 12,6 C 95 % 1009,2 hPa 0,0 l/m 4,4 km/h (1 Bft) S 191 0 min 0,000 mm 0,0 UV-I 0 W/m 11,8 C 12,6 C 6,4 km/h (2 Bft) 100,00 %
03.06.2016 01:24 12,5 C 95 % 1009,2 hPa 0,0 l/m 3,5 km/h (1 Bft) S 186 0 min 0,000 mm 0,0 UV-I 0 W/m 11,7 C 12,5 C 4,8 km/h (1 Bft) 100,00 %
03.06.2016 01:25 12,5 C 95 % 1009,2 hPa 0,0 l/m 3,6 km/h (1 Bft) S 186 0 min 0,000 mm 0,0 UV-I 0 W/m 11,7 C 12,5 C 4,8 km/h (1 Bft) 91,30 %
03.06.2016 01:26 12,5 C 95 % 1009,2 hPa 0,0 l/m 3,7 km/h (1 Bft) S 186 0 min 0,000 mm 0,0 UV-I 0 W/m 11,7 C 12,5 C 4,8 km/h (1 Bft) 100,00 %
03.06.2016 01:27 12,5 C 95 % 1009,1 hPa 0,0 l/m 4,2 km/h (1 Bft) S 182 0 min 0,000 mm 0,0 UV-I 0 W/m 11,7 C 12,5 C 4,8 km/h (1 Bft) 100,00 %
03.06.2016 01:28 12,5 C 95 % 1009,1 hPa 0,0 l/m 3,8 km/h (1 Bft) S 182 0 min 0,000 mm 0,0 UV-I 0 W/m 11,7 C 12,5 C 4,8 km/h (1 Bft) 100,00 %
03.06.2016 01:29 12,5 C 95 % 1009,2 hPa 0,0 l/m 3,6 km/h (1 Bft) S 183 0 min 0,000 mm 0,0 UV-I 0 W/m 11,7 C 12,5 C 4,8 km/h (1 Bft) 100,00 %
03.06.2016 01:30 12,4 C 95 % 1009,2 hPa 0,0 l/m 3,0 km/h (1 Bft) S 183 0 min 0,000 mm 0,0 UV-I 0 W/m 11,6 C 12,4 C 4,8 km/h (1 Bft) 100,00 %
03.06.2016 01:31 12,4 C 95 % 1009,2 hPa 0,0 l/m 3,9 km/h (1 Bft) S 186 0 min 0,000 mm 0,0 UV-I 0 W/m 11,6 C 12,4 C 4,8 km/h (1 Bft) 100,00 %
03.06.2016 01:32 12,4 C 96 % 1009,1 hPa 0,0 l/m 5,0 km/h (1 Bft) S 191 0 min 0,000 mm 0,0 UV-I 0 W/m 11,8 C 12,4 C 6,4 km/h (2 Bft) 100,00 %
03.06.2016 01:33 12,4 C 96 % 1009,1 hPa 0,0 l/m 4,0 km/h (1 Bft) S 191 0 min 0,000 mm 0,0 UV-I 0 W/m 11,8 C 12,4 C 4,8 km/h (1 Bft) 100,00 %
03.06.2016 01:34 12,4 C 95 % 1009,1 hPa 0,0 l/m 4,1 km/h (1 Bft) S 191 0 min 0,000 mm 0,0 UV-I 0 W/m 11,6 C 12,4 C 4,8 km/h (1 Bft) 100,00 %
03.06.2016 01:35 12,4 C 95 % 1009,1 hPa 0,0 l/m 3,6 km/h (1 Bft) S 178 0 min 0,000 mm 0,0 UV-I 0 W/m 11,6 C 12,4 C 4,8 km/h (1 Bft) 95,65 %
03.06.2016 01:36 12,4 C 95 % 1009,1 hPa 0,0 l/m 4,0 km/h (1 Bft) S 178 0 min 0,000 mm 0,0 UV-I 0 W/m 11,6 C 12,4 C 6,4 km/h (2 Bft) 100,00 %
03.06.2016 01:37 12,4 C 95 % 1009,1 hPa 0,0 l/m 4,0 km/h (1 Bft) S-SW 194 0 min 0,000 mm 0,0 UV-I 0 W/m 11,6 C 12,4 C 4,8 km/h (1 Bft) 95,65 %
03.06.2016 01:38 12,4 C 95 % 1009,1 hPa 0,0 l/m 3,7 km/h (1 Bft) S-SW 192 0 min 0,000 mm 0,0 UV-I 0 W/m 11,6 C 12,4 C 4,8 km/h (1 Bft) 100,00 %
03.06.2016 01:39 12,4 C 95 % 1009,1 hPa 0,0 l/m 4,2 km/h (1 Bft) S 182 0 min 0,000 mm 0,0 UV-I 0 W/m 11,6 C 12,4 C 4,8 km/h (1 Bft) 95,65 %
03.06.2016 01:40 12,4 C 95 % 1009,1 hPa 0,0 l/m 4,2 km/h (1 Bft) S-SW 196 0 min 0,000 mm 0,0 UV-I 0 W/m 11,6 C 12,4 C 4,8 km/h (1 Bft) 100,00 %
03.06.2016 01:41 12,4 C 95 % 1009,1 hPa 0,0 l/m 3,3 km/h (1 Bft) S-SW 196 0 min 0,000 mm 0,0 UV-I 0 W/m 11,6 C 12,4 C 4,8 km/h (1 Bft) 100,00 %
03.06.2016 01:42 12,4 C 96 % 1009,1 hPa 0,0 l/m 3,3 km/h (1 Bft) S-SW 196 0 min 0,000 mm 0,0 UV-I 0 W/m 11,8 C 12,4 C 4,8 km/h (1 Bft) 100,00 %
03.06.2016 01:43 12,4 C 96 % 1009,1 hPa 0,0 l/m 2,8 km/h (1 Bft) S 186 0 min 0,000 mm 0,0 UV-I 0 W/m 11,8 C 12,4 C 4,8 km/h (1 Bft) 95,65 %
03.06.2016 01:44 12,4 C 96 % 1009,1 hPa 0,0 l/m 4,6 km/h (1 Bft) S 185 0 min 0,000 mm 0,0 UV-I 0 W/m 11,8 C 12,4 C 4,8 km/h (1 Bft) 100,00 %
03.06.2016 01:45 12,4 C 96 % 1009,1 hPa 0,0 l/m 3,9 km/h (1 Bft) S 184 0 min 0,000 mm 0,0 UV-I 0 W/m 11,8 C 12,4 C 4,8 km/h (1 Bft) 100,00 %
03.06.2016 01:46 12,3 C 95 % 1009,1 hPa 0,0 l/m 3,8 km/h (1 Bft) S 184 0 min 0,000 mm 0,0 UV-I 0 W/m 11,5 C 12,3 C 4,8 km/h (1 Bft) 100,00 %
03.06.2016 01:47 12,3 C 95 % 1009,1 hPa 0,0 l/m 3,6 km/h (1 Bft) S 184 0 min 0,000 mm 0,0 UV-I 0 W/m 11,5 C 12,3 C 4,8 km/h (1 Bft) 100,00 %
03.06.2016 01:48 12,3 C 95 % 1009,1 hPa 0,0 l/m 3,1 km/h (1 Bft) S 184 0 min 0,000 mm 0,0 UV-I 0 W/m 11,5 C 12,3 C 4,8 km/h (1 Bft) 91,67 %
03.06.2016 01:49 12,3 C 96 % 1009,1 hPa 0,0 l/m 3,8 km/h (1 Bft) S 184 0 min 0,000 mm 0,0 UV-I 0 W/m 11,7 C 12,3 C 4,8 km/h (1 Bft) 95,65 %
03.06.2016 01:50 12,3 C 96 % 1009,1 hPa 0,0 l/m 3,8 km/h (1 Bft) S 186 0 min 0,000 mm 0,0 UV-I 0 W/m 11,7 C 12,3 C 4,8 km/h (1 Bft) 100,00 %
03.06.2016 01:51 12,3 C 96 % 1009,1 hPa 0,0 l/m 5,3 km/h (1 Bft) S 180 0 min 0,000 mm 0,0 UV-I 0 W/m 11,7 C 12,3 C 6,4 km/h (2 Bft) 100,00 %
03.06.2016 01:52 12,3 C 96 % 1009,1 hPa 0,0 l/m 4,5 km/h (1 Bft) S-SW 194 0 min 0,000 mm 0,0 UV-I 0 W/m 11,7 C 12,3 C 6,4 km/h (2 Bft) 100,00 %
03.06.2016 01:53 12,3 C 96 % 1009,1 hPa 0,0 l/m 5,0 km/h (1 Bft) S 178 0 min 0,000 mm 0,0 UV-I 0 W/m 11,7 C 12,3 C 6,4 km/h (2 Bft) 95,83 %
03.06.2016 01:54 12,3 C 96 % 1009,1 hPa 0,0 l/m 4,4 km/h (1 Bft) S 178 0 min 0,000 mm 0,0 UV-I 0 W/m 11,7 C 12,3 C 6,4 km/h (2 Bft) 91,30 %
03.06.2016 01:55 12,3 C 96 % 1009,1 hPa 0,0 l/m 5,4 km/h (1 Bft) S 184 0 min 0,000 mm 0,0 UV-I 0 W/m 11,7 C 12,3 C 9,7 km/h (2 Bft) 95,83 %
03.06.2016 01:56 12,3 C 96 % 1009,1 hPa 0,0 l/m 3,4 km/h (1 Bft) S 178 0 min 0,000 mm 0,0 UV-I 0 W/m 11,7 C 12,3 C 4,8 km/h (1 Bft) 100,00 %
03.06.2016 01:57 12,3 C 96 % 1009,1 hPa 0,0 l/m 3,8 km/h (1 Bft) S 187 0 min 0,000 mm 0,0 UV-I 0 W/m 11,7 C 12,3 C 4,8 km/h (1 Bft) 95,83 %
03.06.2016 01:58 12,3 C 96 % 1009,1 hPa 0,0 l/m 4,5 km/h (1 Bft) S 182 0 min 0,000 mm 0,0 UV-I 0 W/m 11,7 C 12,3 C 6,4 km/h (2 Bft) 96,15 %
03.06.2016 01:59 12,2 C 95 % 1009,1 hPa 0,0 l/m 4,8 km/h (1 Bft) S 180 0 min 0,000 mm 0,0 UV-I 0 W/m 11,4 C 12,2 C 4,8 km/h (1 Bft) 100,00 %
03.06.2016 02:00 12,2 C 95 % 1009,1 hPa 0,0 l/m 4,9 km/h (1 Bft) S 180 0 min 0,000 mm 0,0 UV-I 0 W/m 11,4 C 12,2 C 6,4 km/h (2 Bft) 91,30 %
03.06.2016 02:01 12,2 C 95 % 1009,1 hPa 0,0 l/m 5,0 km/h (1 Bft) S-SW 192 0 min 0,000 mm 0,0 UV-I 0 W/m 11,4 C 12,2 C 6,4 km/h (2 Bft) 100,00 %
03.06.2016 02:02 12,2 C 95 % 1009,1 hPa 0,0 l/m 5,2 km/h (1 Bft) S-SW 192 0 min 0,000 mm 0,0 UV-I 0 W/m 11,4 C 12,2 C 8,0 km/h (2 Bft) 91,30 %
03.06.2016 02:03 12,2 C 95 % 1009,1 hPa 0,0 l/m 4,4 km/h (1 Bft) S-SW 192 0 min 0,000 mm 0,0 UV-I 0 W/m 11,4 C 12,2 C 4,8 km/h (1 Bft) 100,00 %
03.06.2016 02:04 12,2 C 96 % 1009,1 hPa 0,0 l/m 4,2 km/h (1 Bft) S-SW 192 0 min 0,000 mm 0,0 UV-I 0 W/m 11,6 C 12,2 C 4,8 km/h (1 Bft) 95,65 %
03.06.2016 02:05 12,2 C 96 % 1009,1 hPa 0,0 l/m 3,6 km/h (1 Bft) S-SW 193 0 min 0,000 mm 0,0 UV-I 0 W/m 11,6 C 12,2 C 4,8 km/h (1 Bft) 95,83 %
03.06.2016 02:06 12,2 C 96 % 1009,1 hPa 0,0 l/m 3,4 km/h (1 Bft) S-SW 193 0 min 0,000 mm 0,0 UV-I 0 W/m 11,6 C 12,2 C 4,8 km/h (1 Bft) 100,00 %
03.06.2016 02:07 12,2 C 96 % 1009,1 hPa 0,0 l/m 4,2 km/h (1 Bft) S-SW 193 0 min 0,000 mm 0,0 UV-I 0 W/m 11,6 C 12,2 C 4,8 km/h (1 Bft) 95,83 %
03.06.2016 02:08 12,2 C 96 % 1009,1 hPa 0,0 l/m 3,5 km/h (1 Bft) S-SW 193 0 min 0,000 mm 0,0 UV-I 0 W/m 11,6 C 12,2 C 4,8 km/h (1 Bft) 100,00 %
03.06.2016 02:09 12,2 C 96 % 1009,1 hPa 0,0 l/m 3,5 km/h (1 Bft) S 188 0 min 0,000 mm 0,0 UV-I 0 W/m 11,6 C 12,2 C 4,8 km/h (1 Bft) 95,83 %
03.06.2016 02:10 12,2 C 96 % 1009,1 hPa 0,0 l/m 3,1 km/h (1 Bft) S 188 0 min 0,000 mm 0,0 UV-I 0 W/m 11,6 C 12,2 C 4,8 km/h (1 Bft) 100,00 %
03.06.2016 02:11 12,2 C 96 % 1009,2 hPa 0,0 l/m 2,7 km/h (1 Bft) S 188 0 min 0,000 mm 0,0 UV-I 0 W/m 11,6 C 12,2 C 4,8 km/h (1 Bft) 91,30 %
03.06.2016 02:12 12,2 C 96 % 1009,2 hPa 0,0 l/m 3,5 km/h (1 Bft) S-SW 202 0 min 0,000 mm 0,0 UV-I 0 W/m 11,6 C 12,2 C 4,8 km/h (1 Bft) 100,00 %
03.06.2016 02:13 12,2 C 96 % 1009,2 hPa 0,0 l/m 3,6 km/h (1 Bft) S-SW 202 0 min 0,000 mm 0,0 UV-I 0 W/m 11,6 C 12,2 C 4,8 km/h (1 Bft) 95,65 %
03.06.2016 02:14 12,2 C 96 % 1009,2 hPa 0,0 l/m 4,2 km/h (1 Bft) S 187 0 min 0,000 mm 0,0 UV-I 0 W/m 11,6 C 12,2 C 4,8 km/h (1 Bft) 95,83 %
03.06.2016 02:15 12,2 C 96 % 1009,2 hPa 0,0 l/m 3,7 km/h (1 Bft) S-SW 198 0 min 0,000 mm 0,0 UV-I 0 W/m 11,6 C 12,2 C 6,4 km/h (2 Bft) 100,00 %
03.06.2016 02:16 12,3 C 96 % 1009,2 hPa 0,0 l/m 3,1 km/h (1 Bft) S-SW 198 0 min 0,000 mm 0,0 UV-I 0 W/m 11,7 C 12,3 C 6,4 km/h (2 Bft) 96,30 %
03.06.2016 02:17 12,3 C 96 % 1009,2 hPa 0,0 l/m 5,4 km/h (1 Bft) S-SW 204 0 min 0,000 mm 0,0 UV-I 0 W/m 11,7 C 12,3 C 6,4 km/h (2 Bft) 100,00 %
03.06.2016 02:18 12,3 C 96 % 1009,2 hPa 0,0 l/m 5,8 km/h (2 Bft) S-SW 203 0 min 0,000 mm 0,0 UV-I 0 W/m 11,7 C 12,3 C 8,0 km/h (2 Bft) 93,33 %
03.06.2016 02:19 12,3 C 96 % 1009,2 hPa 0,0 l/m 3,6 km/h (1 Bft) S-SW 203 0 min 0,000 mm 0,0 UV-I 0 W/m 11,7 C 12,3 C 4,8 km/h (1 Bft) 95,65 %
03.06.2016 02:20 12,3 C 96 % 1009,2 hPa 0,0 l/m 3,2 km/h (1 Bft) S-SW 201 0 min 0,000 mm 0,0 UV-I 0 W/m 11,7 C 12,3 C 4,8 km/h (1 Bft) 95,83 %
03.06.2016 02:21 12,3 C 95 % 1009,2 hPa 0,0 l/m 3,4 km/h (1 Bft) S-SW 201 0 min 0,000 mm 0,0 UV-I 0 W/m 11,5 C 12,3 C 4,8 km/h (1 Bft) 100,00 %
03.06.2016 02:22 12,3 C 95 % 1009,2 hPa 0,0 l/m 3,8 km/h (1 Bft) S-SW 201 0 min 0,000 mm 0,0 UV-I 0 W/m 11,5 C 12,3 C 4,8 km/h (1 Bft) 95,83 %
03.06.2016 02:23 12,2 C 95 % 1009,1 hPa 0,0 l/m 5,2 km/h (1 Bft) S-SW 200 0 min 0,000 mm 0,0 UV-I 0 W/m 11,4 C 12,2 C 6,4 km/h (2 Bft) 100,00 %
03.06.2016 02:24 12,2 C 95 % 1009,1 hPa 0,0 l/m 4,1 km/h (1 Bft) S-SW 200 0 min 0,000 mm 0,0 UV-I 0 W/m 11,4 C 12,2 C 4,8 km/h (1 Bft) 95,83 %
03.06.2016 02:25 12,2 C 95 % 1009,1 hPa 0,0 l/m 2,8 km/h (1 Bft) S-SW 200 0 min 0,000 mm 0,0 UV-I 0 W/m 11,4 C 12,2 C 3,2 km/h (1 Bft) 95,83 %
03.06.2016 02:26 12,2 C 95 % 1009,1 hPa 0,0 l/m 3,4 km/h (1 Bft) S-SW 200 0 min 0,000 mm 0,0 UV-I 0 W/m 11,4 C 12,2 C 4,8 km/h (1 Bft) 100,00 %
03.06.2016 02:27 12,2 C 95 % 1009,1 hPa 0,0 l/m 4,7 km/h (1 Bft) S-SW 200 0 min 0,000 mm 0,0 UV-I 0 W/m 11,4 C 12,2 C 6,4 km/h (2 Bft) 100,00 %
03.06.2016 02:28 12,2 C 95 % 1009,1 hPa 0,0 l/m 4,5 km/h (1 Bft) S-SW 200 0 min 0,000 mm 0,0 UV-I 0 W/m 11,4 C 12,2 C 4,8 km/h (1 Bft) 100,00 %
03.06.2016 02:29 12,2 C 96 % 1009,1 hPa 0,0 l/m 5,3 km/h (1 Bft) S-SW 198 0 min 0,000 mm 0,0 UV-I 0 W/m 11,6 C 12,2 C 6,4 km/h (2 Bft) 95,83 %
03.06.2016 02:30 12,2 C 96 % 1009,1 hPa 0,0 l/m 4,4 km/h (1 Bft) S-SW 198 0 min 0,000 mm 0,0 UV-I 0 W/m 11,6 C 12,2 C 6,4 km/h (2 Bft) 95,65 %
03.06.2016 02:31 12,2 C 96 % 1009,1 hPa 0,0 l/m 4,1 km/h (1 Bft) S-SW 195 0 min 0,000 mm 0,0 UV-I 0 W/m 11,6 C 12,2 C 6,4 km/h (2 Bft) 100,00 %
03.06.2016 02:32 12,2 C 95 % 1009,1 hPa 0,0 l/m 3,2 km/h (1 Bft) S-SW 195 0 min 0,000 mm 0,0 UV-I 0 W/m 11,4 C 12,2 C 4,8 km/h (1 Bft) 100,00 %
03.06.2016 02:33 12,2 C 95 % 1009,0 hPa 0,0 l/m 4,6 km/h (1 Bft) S-SW 195 0 min 0,000 mm 0,0 UV-I 0 W/m 11,4 C 12,2 C 6,4 km/h (2 Bft) 100,00 %
03.06.2016 02:34 12,2 C 95 % 1009,0 hPa 0,0 l/m 4,8 km/h (1 Bft) S-SW 192 0 min 0,000 mm 0,0 UV-I 0 W/m 11,4 C 12,2 C 6,4 km/h (2 Bft) 100,00 %
03.06.2016 02:35 12,2 C 95 % 1009,0 hPa 0,0 l/m 4,3 km/h (1 Bft) S-SW 192 0 min 0,000 mm 0,0 UV-I 0 W/m 11,4 C 12,2 C 4,8 km/h (1 Bft) 100,00 %
03.06.2016 02:36 12,2 C 95 % 1009,1 hPa 0,0 l/m 5,4 km/h (1 Bft) S 188 0 min 0,000 mm 0,0 UV-I 0 W/m 11,4 C 12,2 C 6,4 km/h (2 Bft) 100,00 %
03.06.2016 02:37 12,1 C 95 % 1009,0 hPa 0,0 l/m 4,8 km/h (1 Bft) S 184 0 min 0,000 mm 0,0 UV-I 0 W/m 11,3 C 12,1 C 6,4 km/h (2 Bft) 100,00 %
03.06.2016 02:38 12,1 C 96 % 1009,0 hPa 0,0 l/m 5,5 km/h (1 Bft) S-SW 192 0 min 0,000 mm 0,0 UV-I 0 W/m 11,5 C 12,1 C 8,0 km/h (2 Bft) 95,65 %
03.06.2016 02:39 12,1 C 96 % 1009,0 hPa 0,0 l/m 6,6 km/h (2 Bft) S 190 0 min 0,000 mm 0,0 UV-I 0 W/m 11,5 C 12,0 C 9,7 km/h (2 Bft) 100,00 %
03.06.2016 02:40 12,1 C 96 % 1009,0 hPa 0,0 l/m 6,2 km/h (2 Bft) S-SW 197 0 min 0,000 mm 0,0 UV-I 0 W/m 11,5 C 12,1 C 8,0 km/h (2 Bft) 100,00 %
03.06.2016 02:41 12,2 C 96 % 1009,0 hPa 0,0 l/m 5,6 km/h (1 Bft) S-SW 205 0 min 0,000 mm 0,0 UV-I 0 W/m 11,6 C 12,2 C 8,0 km/h (2 Bft) 100,00 %
03.06.2016 02:42 12,2 C 96 % 1009,1 hPa 0,0 l/m 5,4 km/h (1 Bft) S 189 0 min 0,000 mm 0,0 UV-I 0 W/m 11,6 C 12,2 C 6,4 km/h (2 Bft) 95,65 %
03.06.2016 02:43 12,2 C 96 % 1009,1 hPa 0,0 l/m 5,2 km/h (1 Bft) S 190 0 min 0,000 mm 0,0 UV-I 0 W/m 11,6 C 12,2 C 6,4 km/h (2 Bft) 100,00 %
03.06.2016 02:44 12,2 C 96 % 1009,1 hPa 0,0 l/m 4,8 km/h (1 Bft) S-SW 202 0 min 0,000 mm 0,0 UV-I 0 W/m 11,6 C 12,2 C 6,4 km/h (2 Bft) 95,65 %
03.06.2016 02:45 12,2 C 96 % 1009,1 hPa 0,0 l/m 5,0 km/h (1 Bft) S-SW 197 0 min 0,000 mm 0,0 UV-I 0 W/m 11,6 C 12,2 C 6,4 km/h (2 Bft) 100,00 %
03.06.2016 02:46 12,2 C 96 % 1009,0 hPa 0,0 l/m 5,4 km/h (1 Bft) S-SW 205 0 min 0,000 mm 0,0 UV-I 0 W/m 11,6 C 12,2 C 6,4 km/h (2 Bft) 100,00 %
03.06.2016 02:47 12,2 C 96 % 1009,1 hPa 0,0 l/m 4,5 km/h (1 Bft) S-SW 205 0 min 0,000 mm 0,0 UV-I 0 W/m 11,6 C 12,2 C 6,4 km/h (2 Bft) 100,00 %
03.06.2016 02:48 12,2 C 96 % 1009,0 hPa 0,0 l/m 4,4 km/h (1 Bft) S-SW 197 0 min 0,000 mm 0,0 UV-I 0 W/m 11,6 C 12,2 C 4,8 km/h (1 Bft) 100,00 %
03.06.2016 02:49 12,2 C 96 % 1009,1 hPa 0,0 l/m 5,1 km/h (1 Bft) S-SW 198 0 min 0,000 mm 0,0 UV-I 0 W/m 11,6 C 12,2 C 6,4 km/h (2 Bft) 100,00 %
03.06.2016 02:50 12,2 C 96 % 1009,1 hPa 0,0 l/m 4,6 km/h (1 Bft) S-SW 201 0 min 0,000 mm 0,0 UV-I 0 W/m 11,6 C 12,2 C 6,4 km/h (2 Bft) 100,00 %
03.06.2016 02:51 12,2 C 96 % 1009,1 hPa 0,0 l/m 4,4 km/h (1 Bft) S-SW 201 0 min 0,000 mm 0,0 UV-I 0 W/m 11,6 C 12,2 C 6,4 km/h (2 Bft) 95,65 %
03.06.2016 02:52 12,2 C 96 % 1009,1 hPa 0,0 l/m 4,0 km/h (1 Bft) S-SW 201 0 min 0,000 mm 0,0 UV-I 0 W/m 11,6 C 12,2 C 4,8 km/h (1 Bft) 100,00 %
03.06.2016 02:53 12,2 C 96 % 1009,1 hPa 0,0 l/m 3,8 km/h (1 Bft) S-SW 200 0 min 0,000 mm 0,0 UV-I 0 W/m 11,6 C 12,2 C 4,8 km/h (1 Bft) 100,00 %
03.06.2016 02:54 12,2 C 96 % 1009,1 hPa 0,0 l/m 4,1 km/h (1 Bft) S-SW 195 0 min 0,000 mm 0,0 UV-I 0 W/m 11,6 C 12,2 C 4,8 km/h (1 Bft) 100,00 %
03.06.2016 02:55 12,2 C 96 % 1009,0 hPa 0,0 l/m 4,8 km/h (1 Bft) S-SW 196 0 min 0,000 mm 0,0 UV-I 0 W/m 11,6 C 12,2 C 6,4 km/h (2 Bft) 100,00 %
03.06.2016 02:56 12,2 C 96 % 1009,1 hPa 0,0 l/m 4,8 km/h (1 Bft) S-SW 194 0 min 0,000 mm 0,0 UV-I 0 W/m 11,6 C 12,2 C 6,4 km/h (2 Bft) 100,00 %
03.06.2016 02:57 12,2 C 96 % 1009,1 hPa 0,0 l/m 4,4 km/h (1 Bft) S-SW 207 0 min 0,000 mm 0,0 UV-I 0 W/m 11,6 C 12,2 C 4,8 km/h (1 Bft) 100,00 %
03.06.2016 02:58 12,2 C 96 % 1009,1 hPa 0,0 l/m 4,7 km/h (1 Bft) S-SW 196 0 min 0,000 mm 0,0 UV-I 0 W/m 11,6 C 12,2 C 6,4 km/h (2 Bft) 100,00 %
03.06.2016 02:59 12,2 C 96 % 1009,1 hPa 0,0 l/m 4,6 km/h (1 Bft) S-SW 196 0 min 0,000 mm 0,0 UV-I 0 W/m 11,6 C 12,2 C 4,8 km/h (1 Bft) 100,00 %
03.06.2016 03:00 12,2 C 96 % 1009,1 hPa 0,0 l/m 4,0 km/h (1 Bft) S-SW 196 0 min 0,000 mm 0,0 UV-I 0 W/m 11,6 C 12,2 C 4,8 km/h (1 Bft) 100,00 %
03.06.2016 03:01 12,2 C 96 % 1009,1 hPa 0,0 l/m 5,3 km/h (1 Bft) S-SW 202 0 min 0,000 mm 0,0 UV-I 0 W/m 11,6 C 12,2 C 8,0 km/h (2 Bft) 100,00 %
03.06.2016 03:02 12,2 C 96 % 1009,1 hPa 0,0 l/m 5,3 km/h (1 Bft) S-SW 203 0 min 0,000 mm 0,0 UV-I 0 W/m 11,6 C 12,2 C 6,4 km/h (2 Bft) 100,00 %
03.06.2016 03:03 12,2 C 96 % 1009,1 hPa 0,0 l/m 6,3 km/h (2 Bft) S-SW 194 0 min 0,000 mm 0,0 UV-I 0 W/m 11,6 C 12,2 C 8,0 km/h (2 Bft) 100,00 %
03.06.2016 03:04 12,2 C 96 % 1009,1 hPa 0,0 l/m 5,1 km/h (1 Bft) S-SW 209 0 min 0,000 mm 0,0 UV-I 0 W/m 11,6 C 12,2 C 6,4 km/h (2 Bft) 100,00 %
03.06.2016 03:05 12,2 C 96 % 1009,1 hPa 0,0 l/m 6,6 km/h (2 Bft) S-SW 209 0 min 0,000 mm 0,0 UV-I 0 W/m 11,6 C 12,1 C 9,7 km/h (2 Bft) 100,00 %
03.06.2016 03:06 12,2 C 96 % 1009,1 hPa 0,0 l/m 6,6 km/h (2 Bft) S-SW 194 0 min 0,000 mm 0,0 UV-I 0 W/m 11,6 C 12,1 C 9,7 km/h (2 Bft) 100,00 %
03.06.2016 03:07 12,2 C 96 % 1009,1 hPa 0,0 l/m 5,4 km/h (1 Bft) S-SW 194 0 min 0,000 mm 0,0 UV-I 0 W/m 11,6 C 12,2 C 6,4 km/h (2 Bft) 100,00 %
03.06.2016 03:08 12,3 C 96 % 1009,1 hPa 0,0 l/m 4,5 km/h (1 Bft) S 176 0 min 0,000 mm 0,0 UV-I 0 W/m 11,7 C 12,3 C 6,4 km/h (2 Bft) 100,00 %
03.06.2016 03:09 12,3 C 96 % 1009,1 hPa 0,0 l/m 5,4 km/h (1 Bft) S-SW 205 0 min 0,000 mm 0,0 UV-I 0 W/m 11,7 C 12,3 C 6,4 km/h (2 Bft) 100,00 %
03.06.2016 03:10 12,3 C 96 % 1009,1 hPa 0,0 l/m 7,0 km/h (2 Bft) S 183 0 min 0,000 mm 0,0 UV-I 0 W/m 11,7 C 11,9 C 8,0 km/h (2 Bft) 100,00 %
03.06.2016 03:11 12,3 C 96 % 1009,1 hPa 0,0 l/m 6,4 km/h (2 Bft) S-SW 202 0 min 0,000 mm 0,0 UV-I 0 W/m 11,7 C 12,3 C 8,0 km/h (2 Bft) 100,00 %
03.06.2016 03:12 12,3 C 96 % 1009,1 hPa 0,0 l/m 6,3 km/h (2 Bft) S 191 0 min 0,000 mm 0,0 UV-I 0 W/m 11,7 C 12,3 C 9,7 km/h (2 Bft) 100,00 %
03.06.2016 03:13 12,3 C 96 % 1009,1 hPa 0,0 l/m 6,6 km/h (2 Bft) S-SW 212 0 min 0,000 mm 0,0 UV-I 0 W/m 11,7 C 12,2 C 8,0 km/h (2 Bft) 100,00 %
03.06.2016 03:14 12,3 C 96 % 1009,1 hPa 0,0 l/m 6,1 km/h (2 Bft) S-SW 200 0 min 0,000 mm 0,0 UV-I 0 W/m 11,7 C 12,3 C 8,0 km/h (2 Bft) 100,00 %
03.06.2016 03:15 12,3 C 96 % 1009,1 hPa 0,0 l/m 7,5 km/h (2 Bft) S-SW 193 0 min 0,000 mm 0,0 UV-I 0 W/m 11,7 C 11,6 C 8,0 km/h (2 Bft) 100,00 %
03.06.2016 03:16 12,4 C 96 % 1009,1 hPa 0,0 l/m 7,6 km/h (2 Bft) S 189 0 min 0,000 mm 0,0 UV-I 0 W/m 11,8 C 11,6 C 9,7 km/h (2 Bft) 100,00 %
03.06.2016 03:17 12,4 C 96 % 1009,1 hPa 0,0 l/m 6,5 km/h (2 Bft) S-SW 195 0 min 0,000 mm 0,0 UV-I 0 W/m 11,8 C 12,4 C 8,0 km/h (2 Bft) 100,00 %
03.06.2016 03:18 12,4 C 95 % 1009,1 hPa 0,0 l/m 5,7 km/h (1 Bft) SW 215 0 min 0,000 mm 0,0 UV-I 0 W/m 11,6 C 12,4 C 8,0 km/h (2 Bft) 100,00 %
03.06.2016 03:19 12,4 C 95 % 1009,0 hPa 0,0 l/m 6,0 km/h (2 Bft) S-SW 197 0 min 0,000 mm 0,0 UV-I 0 W/m 11,6 C 12,4 C 6,4 km/h (2 Bft) 100,00 %
03.06.2016 03:20 12,3 C 95 % 1009,0 hPa 0,0 l/m 6,3 km/h (2 Bft) S 182 0 min 0,000 mm 0,0 UV-I 0 W/m 11,5 C 12,3 C 8,0 km/h (2 Bft) 100,00 %
03.06.2016 03:21 12,3 C 95 % 1009,0 hPa 0,0 l/m 6,3 km/h (2 Bft) S-SW 205 0 min 0,000 mm 0,0 UV-I 0 W/m 11,5 C 12,3 C 8,0 km/h (2 Bft) 100,00 %
03.06.2016 03:22 12,3 C 95 % 1009,1 hPa 0,0 l/m 5,4 km/h (1 Bft) S-SW 192 0 min 0,000 mm 0,0 UV-I 0 W/m 11,5 C 12,3 C 6,4 km/h (2 Bft) 100,00 %
03.06.2016 03:23 12,3 C 95 % 1009,1 hPa 0,0 l/m 5,0 km/h (1 Bft) SW 215 0 min 0,000 mm 0,0 UV-I 0 W/m 11,5 C 12,3 C 8,0 km/h (2 Bft) 100,00 %
03.06.2016 03:24 12,4 C 96 % 1009,0 hPa 0,0 l/m 6,2 km/h (2 Bft) S-SW 207 0 min 0,000 mm 0,0 UV-I 0 W/m 11,8 C 12,4 C 8,0 km/h (2 Bft) 100,00 %
03.06.2016 03:25 12,4 C 95 % 1009,1 hPa 0,0 l/m 5,6 km/h (1 Bft) S-SW 200 0 min 0,000 mm 0,0 UV-I 0 W/m 11,6 C 12,4 C 8,0 km/h (2 Bft) 95,83 %
03.06.2016 03:26 12,4 C 96 % 1009,0 hPa 0,0 l/m 6,1 km/h (2 Bft) SW 219 0 min 0,000 mm 0,0 UV-I 0 W/m 11,8 C 12,4 C 8,0 km/h (2 Bft) 100,00 %
03.06.2016 03:27 12,4 C 96 % 1009,0 hPa 0,0 l/m 6,6 km/h (2 Bft) S-SW 212 0 min 0,000 mm 0,0 UV-I 0 W/m 11,8 C 12,3 C 8,0 km/h (2 Bft) 100,00 %
03.06.2016 03:28 12,4 C 96 % 1009,0 hPa 0,0 l/m 6,4 km/h (2 Bft) S 191 0 min 0,000 mm 0,0 UV-I 0 W/m 11,8 C 12,4 C 9,7 km/h (2 Bft) 100,00 %
03.06.2016 03:29 12,4 C 96 % 1009,0 hPa 0,0 l/m 6,7 km/h (2 Bft) S-SW 200 0 min 0,000 mm 0,0 UV-I 0 W/m 11,8 C 12,2 C 9,7 km/h (2 Bft) 100,00 %
03.06.2016 03:30 12,4 C 96 % 1009,0 hPa 0,0 l/m 5,4 km/h (1 Bft) S-SW 193 0 min 0,000 mm 0,0 UV-I 0 W/m 11,8 C 12,4 C 6,4 km/h (2 Bft) 100,00 %
03.06.2016 03:31 12,4 C 96 % 1009,0 hPa 0,0 l/m 7,0 km/h (2 Bft) S 184 0 min 0,000 mm 0,0 UV-I 0 W/m 11,8 C 12,0 C 9,7 km/h (2 Bft) 100,00 %
03.06.2016 03:32 12,4 C 96 % 1009,0 hPa 0,0 l/m 4,5 km/h (1 Bft) S-SW 211 0 min 0,000 mm 0,0 UV-I 0 W/m 11,8 C 12,4 C 6,4 km/h (2 Bft) 100,00 %
03.06.2016 03:33 12,4 C 96 % 1009,0 hPa 0,0 l/m 5,4 km/h (1 Bft) S-SW 193 0 min 0,000 mm 0,0 UV-I 0 W/m 11,8 C 12,4 C 8,0 km/h (2 Bft) 100,00 %
03.06.2016 03:34 12,4 C 96 % 1009,0 hPa 0,0 l/m 4,6 km/h (1 Bft) S-SW 210 0 min 0,000 mm 0,0 UV-I 0 W/m 11,8 C 12,4 C 8,0 km/h (2 Bft) 100,00 %
03.06.2016 03:35 12,4 C 95 % 1009,0 hPa 0,0 l/m 4,5 km/h (1 Bft) S-SW 208 0 min 0,000 mm 0,0 UV-I 0 W/m 11,6 C 12,4 C 8,0 km/h (2 Bft) 100,00 %
03.06.2016 03:36 12,4 C 95 % 1009,0 hPa 0,0 l/m 4,4 km/h (1 Bft) S-SW 199 0 min 0,000 mm 0,0 UV-I 0 W/m 11,6 C 12,4 C 8,0 km/h (2 Bft) 100,00 %
03.06.2016 03:37 12,4 C 95 % 1009,0 hPa 0,0 l/m 4,5 km/h (1 Bft) S-SW 204 0 min 0,000 mm 0,0 UV-I 0 W/m 11,6 C 12,4 C 6,4 km/h (2 Bft) 100,00 %
03.06.2016 03:38 12,4 C 95 % 1009,0 hPa 0,0 l/m 5,0 km/h (1 Bft) S-SW 207 0 min 0,000 mm 0,0 UV-I 0 W/m 11,6 C 12,4 C 6,4 km/h (2 Bft) 100,00 %
03.06.2016 03:39 12,4 C 95 % 1009,0 hPa 0,0 l/m 4,7 km/h (1 Bft) S-SW 198 0 min 0,000 mm 0,0 UV-I 0 W/m 11,6 C 12,4 C 6,4 km/h (2 Bft) 100,00 %
03.06.2016 03:40 12,4 C 95 % 1009,0 hPa 0,0 l/m 4,6 km/h (1 Bft) SW 227 0 min 0,000 mm 0,0 UV-I 0 W/m 11,6 C 12,4 C 6,4 km/h (2 Bft) 100,00 %
03.06.2016 03:41 12,4 C 95 % 1009,0 hPa 0,0 l/m 4,6 km/h (1 Bft) S-SW 200 0 min 0,000 mm 0,0 UV-I 0 W/m 11,6 C 12,4 C 6,4 km/h (2 Bft) 100,00 %
03.06.2016 03:42 12,4 C 95 % 1009,0 hPa 0,0 l/m 5,1 km/h (1 Bft) S-SW 203 0 min 0,000 mm 0,0 UV-I 0 W/m 11,6 C 12,4 C 6,4 km/h (2 Bft) 100,00 %
03.06.2016 03:43 12,4 C 95 % 1009,0 hPa 0,0 l/m 4,1 km/h (1 Bft) S-SW 207 0 min 0,000 mm 0,0 UV-I 0 W/m 11,6 C 12,4 C 6,4 km/h (2 Bft) 100,00 %
03.06.2016 03:44 12,4 C 95 % 1008,9 hPa 0,0 l/m 3,8 km/h (1 Bft) S-SW 207 0 min 0,000 mm 0,0 UV-I 0 W/m 11,6 C 12,4 C 4,8 km/h (1 Bft) 95,65 %
03.06.2016 03:45 12,4 C 95 % 1009,0 hPa 0,0 l/m 4,4 km/h (1 Bft) SW 216 0 min 0,000 mm 0,0 UV-I 0 W/m 11,6 C 12,4 C 6,4 km/h (2 Bft) 100,00 %
03.06.2016 03:46 12,4 C 95 % 1008,9 hPa 0,0 l/m 4,8 km/h (1 Bft) SW 228 0 min 0,000 mm 0,0 UV-I 0 W/m 11,6 C 12,4 C 6,4 km/h (2 Bft) 100,00 %
03.06.2016 03:47 12,4 C 95 % 1008,9 hPa 0,0 l/m 4,0 km/h (1 Bft) S-SW 209 0 min 0,000 mm 0,0 UV-I 0 W/m 11,6 C 12,4 C 6,4 km/h (2 Bft) 100,00 %
03.06.2016 03:48 12,4 C 95 % 1008,9 hPa 0,0 l/m 4,0 km/h (1 Bft) S-SW 206 0 min 0,000 mm 0,0 UV-I 0 W/m 11,6 C 12,4 C 4,8 km/h (1 Bft) 100,00 %
03.06.2016 03:49 12,4 C 95 % 1008,9 hPa 0,0 l/m 5,7 km/h (1 Bft) S 189 0 min 0,000 mm 0,0 UV-I 0 W/m 11,6 C 12,4 C 9,7 km/h (2 Bft) 100,00 %
03.06.2016 03:50 12,4 C 95 % 1008,9 hPa 0,0 l/m 6,2 km/h (2 Bft) S-SW 203 0 min 0,000 mm 0,0 UV-I 0 W/m 11,6 C 12,4 C 8,0 km/h (2 Bft) 100,00 %
03.06.2016 03:51 12,4 C 95 % 1008,9 hPa 0,0 l/m 7,5 km/h (2 Bft) SW 227 0 min 0,000 mm 0,0 UV-I 0 W/m 11,6 C 11,7 C 9,7 km/h (2 Bft) 95,83 %
03.06.2016 03:52 12,4 C 95 % 1008,9 hPa 0,0 l/m 6,2 km/h (2 Bft) S 188 0 min 0,000 mm 0,0 UV-I 0 W/m 11,6 C 12,4 C 8,0 km/h (2 Bft) 95,65 %
03.06.2016 03:53 12,4 C 95 % 1008,9 hPa 0,0 l/m 3,8 km/h (1 Bft) S-SW 198 0 min 0,000 mm 0,0 UV-I 0 W/m 11,6 C 12,4 C 6,4 km/h (2 Bft) 95,83 %
03.06.2016 03:54 12,3 C 95 % 1008,9 hPa 0,0 l/m 4,0 km/h (1 Bft) S-SW 200 0 min 0,000 mm 0,0 UV-I 0 W/m 11,5 C 12,3 C 6,4 km/h (2 Bft) 100,00 %
03.06.2016 03:55 12,3 C 95 % 1008,9 hPa 0,0 l/m 4,3 km/h (1 Bft) S 183 0 min 0,000 mm 0,0 UV-I 0 W/m 11,5 C 12,3 C 6,4 km/h (2 Bft) 95,83 %
03.06.2016 03:56 12,3 C 95 % 1008,9 hPa 0,0 l/m 6,2 km/h (2 Bft) S 191 0 min 0,000 mm 0,0 UV-I 0 W/m 11,5 C 12,3 C 8,0 km/h (2 Bft) 100,00 %
03.06.2016 03:57 12,3 C 95 % 1008,9 hPa 0,0 l/m 5,1 km/h (1 Bft) SW 229 0 min 0,000 mm 0,0 UV-I 0 W/m 11,5 C 12,3 C 6,4 km/h (2 Bft) 95,83 %
03.06.2016 03:58 12,3 C 95 % 1008,9 hPa 0,0 l/m 5,0 km/h (1 Bft) SW 227 0 min 0,000 mm 0,0 UV-I 0 W/m 11,5 C 12,3 C 8,0 km/h (2 Bft) 100,00 %
03.06.2016 03:59 12,3 C 95 % 1008,9 hPa 0,0 l/m 5,2 km/h (1 Bft) S-SW 199 0 min 0,000 mm 0,0 UV-I 0 W/m 11,5 C 12,3 C 8,0 km/h (2 Bft) 95,83 %
03.06.2016 04:00 12,4 C 95 % 1008,9 hPa 0,0 l/m 4,7 km/h (1 Bft) W-SW 238 0 min 0,000 mm 0,0 UV-I 0 W/m 11,6 C 12,4 C 8,0 km/h (2 Bft) 95,65 %
03.06.2016 04:03 12,3 C 95 % 1008,9 hPa 0,0 l/m 4,3 km/h (1 Bft) W-SW 244 0 min 0,000 mm 0,0 UV-I 0 W/m 11,5 C 12,3 C 6,4 km/h (2 Bft) 95,65 %
03.06.2016 04:04 12,3 C 95 % 1008,9 hPa 0,0 l/m 3,9 km/h (1 Bft) W-SW 244 0 min 0,000 mm 0,0 UV-I 0 W/m 11,5 C 12,3 C 4,8 km/h (1 Bft) 95,65 %
03.06.2016 04:05 12,3 C 95 % 1008,9 hPa 0,0 l/m 3,1 km/h (1 Bft) W-SW 243 0 min 0,000 mm 0,0 UV-I 0 W/m 11,5 C 12,3 C 4,8 km/h (1 Bft) 100,00 %
03.06.2016 04:06 12,3 C 95 % 1008,9 hPa 0,0 l/m 3,4 km/h (1 Bft) SW 234 0 min 0,000 mm 0,0 UV-I 0 W/m 11,5 C 12,3 C 6,4 km/h (2 Bft) 95,83 %
03.06.2016 04:07 12,3 C 95 % 1008,9 hPa 0,0 l/m 3,4 km/h (1 Bft) SW 231 0 min 0,000 mm 0,0 UV-I 0 W/m 11,5 C 12,3 C 4,8 km/h (1 Bft) 95,65 %
03.06.2016 04:08 12,3 C 95 % 1008,8 hPa 0,0 l/m 3,3 km/h (1 Bft) SW 231 0 min 0,000 mm 0,0 UV-I 0 W/m 11,5 C 12,3 C 4,8 km/h (1 Bft) 100,00 %
03.06.2016 04:09 12,3 C 95 % 1008,9 hPa 0,0 l/m 3,4 km/h (1 Bft) S-SW 210 0 min 0,000 mm 0,0 UV-I 0 W/m 11,5 C 12,3 C 6,4 km/h (2 Bft) 95,65 %
03.06.2016 04:10 12,3 C 95 % 1008,9 hPa 0,0 l/m 3,8 km/h (1 Bft) S-SW 208 0 min 0,000 mm 0,0 UV-I 0 W/m 11,5 C 12,3 C 4,8 km/h (1 Bft) 100,00 %
03.06.2016 04:11 12,3 C 95 % 1008,8 hPa 0,0 l/m 4,3 km/h (1 Bft) SW 217 0 min 0,000 mm 0,0 UV-I 0 W/m 11,5 C 12,3 C 4,8 km/h (1 Bft) 95,65 %
03.06.2016 04:12 12,3 C 96 % 1008,9 hPa 0,0 l/m 3,4 km/h (1 Bft) S-SW 207 0 min 0,000 mm 0,0 UV-I 0 W/m 11,7 C 12,3 C 4,8 km/h (1 Bft) 100,00 %
03.06.2016 04:13 12,3 C 96 % 1008,9 hPa 0,0 l/m 4,8 km/h (1 Bft) S-SW 202 0 min 0,000 mm 0,0 UV-I 0 W/m 11,7 C 12,3 C 6,4 km/h (2 Bft) 95,65 %
03.06.2016 04:14 12,4 C 96 % 1008,8 hPa 0,0 l/m 4,9 km/h (1 Bft) SW 218 0 min 0,000 mm 0,0 UV-I 0 W/m 11,8 C 12,4 C 6,4 km/h (2 Bft) 100,00 %
03.06.2016 04:15 12,4 C 96 % 1008,8 hPa 0,0 l/m 4,4 km/h (1 Bft) SW 231 0 min 0,000 mm 0,0 UV-I 0 W/m 11,8 C 12,4 C 4,8 km/h (1 Bft) 95,65 %
03.06.2016 04:16 12,4 C 96 % 1008,8 hPa 0,0 l/m 4,6 km/h (1 Bft) SW 236 0 min 0,000 mm 0,0 UV-I 0 W/m 11,8 C 12,4 C 4,8 km/h (1 Bft) 96,30 %
03.06.2016 04:17 12,4 C 96 % 1008,9 hPa 0,0 l/m 4,8 km/h (1 Bft) W-SW 241 0 min 0,000 mm 0,0 UV-I 0 W/m 11,8 C 12,4 C 6,4 km/h (2 Bft) 100,00 %
03.06.2016 04:18 12,4 C 95 % 1008,9 hPa 0,0 l/m 3,4 km/h (1 Bft) SW 224 0 min 0,000 mm 0,0 UV-I 0 W/m 11,6 C 12,4 C 4,8 km/h (1 Bft) 95,83 %
03.06.2016 04:19 12,4 C 95 % 1008,9 hPa 0,0 l/m 5,5 km/h (1 Bft) SW 235 0 min 0,000 mm 0,0 UV-I 0 W/m 11,6 C 12,4 C 8,0 km/h (2 Bft) 100,00 %
03.06.2016 04:20 12,4 C 95 % 1008,9 hPa 0,0 l/m 4,8 km/h (1 Bft) SW 230 0 min 0,000 mm 0,0 UV-I 0 W/m 11,6 C 12,4 C 6,4 km/h (2 Bft) 96,15 %
03.06.2016 04:21 12,4 C 95 % 1008,8 hPa 0,0 l/m 4,9 km/h (1 Bft) SW 229 0 min 0,000 mm 0,0 UV-I 0 W/m 11,6 C 12,4 C 6,4 km/h (2 Bft) 100,00 %
03.06.2016 04:22 12,4 C 95 % 1008,9 hPa 0,0 l/m 4,9 km/h (1 Bft) SW 226 0 min 0,000 mm 0,0 UV-I 0 W/m 11,6 C 12,4 C 6,4 km/h (2 Bft) 95,65 %
03.06.2016 04:23 12,4 C 95 % 1008,9 hPa 0,0 l/m 3,7 km/h (1 Bft) SW 227 0 min 0,000 mm 0,0 UV-I 0 W/m 11,6 C 12,4 C 4,8 km/h (1 Bft) 100,00 %
03.06.2016 04:24 12,4 C 95 % 1008,9 hPa 0,0 l/m 4,1 km/h (1 Bft) SW 227 0 min 0,000 mm 0,0 UV-I 0 W/m 11,6 C 12,4 C 4,8 km/h (1 Bft) 95,65 %
03.06.2016 04:25 12,3 C 95 % 1008,9 hPa 0,0 l/m 4,2 km/h (1 Bft) S-SW 211 0 min 0,000 mm 0,0 UV-I 0 W/m 11,5 C 12,3 C 4,8 km/h (1 Bft) 100,00 %
03.06.2016 04:26 12,3 C 95 % 1008,9 hPa 0,0 l/m 4,7 km/h (1 Bft) SW 220 0 min 0,000 mm 0,0 UV-I 0 W/m 11,5 C 12,3 C 6,4 km/h (2 Bft) 96,15 %
03.06.2016 04:27 12,3 C 95 % 1008,8 hPa 0,0 l/m 4,4 km/h (1 Bft) SW 225 0 min 0,000 mm 0,0 UV-I 0 W/m 11,5 C 12,3 C 6,4 km/h (2 Bft) 100,00 %
03.06.2016 04:28 12,3 C 96 % 1008,9 hPa 0,0 l/m 4,6 km/h (1 Bft) SW 225 0 min 0,000 mm 0,0 UV-I 0 W/m 11,7 C 12,3 C 6,4 km/h (2 Bft) 100,00 %
03.06.2016 04:29 12,3 C 96 % 1008,9 hPa 0,0 l/m 3,5 km/h (1 Bft) SW 225 0 min 0,000 mm 0,0 UV-I 0 W/m 11,7 C 12,3 C 4,8 km/h (1 Bft) 100,00 %
03.06.2016 04:30 12,3 C 96 % 1008,9 hPa 0,0 l/m 1,8 km/h (1 Bft) SW 225 0 min 0,000 mm 0,0 UV-I 0 W/m 11,7 C 12,3 C 3,2 km/h (1 Bft) 100,00 %
03.06.2016 04:31 12,3 C 96 % 1008,9 hPa 0,0 l/m 1,6 km/h (1 Bft) SW 225 0 min 0,000 mm 0,0 UV-I 0 W/m 11,7 C 12,3 C 3,2 km/h (1 Bft) 100,00 %
03.06.2016 04:32 12,3 C 96 % 1008,9 hPa 0,0 l/m 1,4 km/h (1 Bft) SW 225 0 min 0,000 mm 0,0 UV-I 0 W/m 11,7 C 12,3 C 3,2 km/h (1 Bft) 100,00 %
03.06.2016 04:33 12,3 C 96 % 1008,9 hPa 0,0 l/m 1,4 km/h (1 Bft) SW 225 0 min 0,000 mm 0,0 UV-I 0 W/m 11,7 C 12,3 C 3,2 km/h (1 Bft) 100,00 %
03.06.2016 04:34 12,3 C 96 % 1008,9 hPa 0,0 l/m 3,0 km/h (1 Bft) S-SW 211 0 min 0,000 mm 0,0 UV-I 0 W/m 11,7 C 12,3 C 4,8 km/h (1 Bft) 95,65 %
03.06.2016 04:35 12,3 C 96 % 1008,9 hPa 0,0 l/m 4,1 km/h (1 Bft) S-SW 211 0 min 0,000 mm 0,0 UV-I 0 W/m 11,7 C 12,3 C 4,8 km/h (1 Bft) 95,83 %
03.06.2016 04:36 12,3 C 96 % 1008,9 hPa 0,0 l/m 2,7 km/h (1 Bft) S-SW 211 0 min 0,000 mm 0,0 UV-I 0 W/m 11,7 C 12,3 C 3,2 km/h (1 Bft) 100,00 %
03.06.2016 04:37 12,3 C 96 % 1008,9 hPa 0,0 l/m 5,6 km/h (1 Bft) S 190 0 min 0,000 mm 0,0 UV-I 0 W/m 11,7 C 12,3 C 8,0 km/h (2 Bft) 100,00 %
03.06.2016 04:38 12,3 C 96 % 1008,9 hPa 0,0 l/m 5,0 km/h (1 Bft) SW 231 0 min 0,000 mm 0,0 UV-I 0 W/m 11,7 C 12,3 C 6,4 km/h (2 Bft) 100,00 %
03.06.2016 04:39 12,3 C 96 % 1008,9 hPa 0,0 l/m 4,4 km/h (1 Bft) S-SW 212 0 min 0,000 mm 0,0 UV-I 0 W/m 11,7 C 12,3 C 8,0 km/h (2 Bft) 100,00 %
03.06.2016 04:40 12,3 C 96 % 1008,9 hPa 0,0 l/m 5,0 km/h (1 Bft) S-SW 196 0 min 0,000 mm 0,0 UV-I 0 W/m 11,7 C 12,3 C 8,0 km/h (2 Bft) 100,00 %
03.06.2016 04:41 12,3 C 96 % 1008,9 hPa 0,0 l/m 5,8 km/h (2 Bft) S-SW 200 0 min 0,000 mm 0,0 UV-I 0 W/m 11,7 C 12,3 C 8,0 km/h (2 Bft) 100,00 %
03.06.2016 04:42 12,3 C 96 % 1008,9 hPa 0,0 l/m 4,0 km/h (1 Bft) S-SW 192 0 min 0,000 mm 0,0 UV-I 0 W/m 11,7 C 12,3 C 4,8 km/h (1 Bft) 100,00 %
03.06.2016 04:43 12,3 C 96 % 1008,9 hPa 0,0 l/m 4,9 km/h (1 Bft) SW 232 0 min 0,000 mm 0,0 UV-I 0 W/m 11,7 C 12,3 C 6,4 km/h (2 Bft) 100,00 %
03.06.2016 04:44 12,3 C 96 % 1008,8 hPa 0,0 l/m 6,3 km/h (2 Bft) SW 234 0 min 0,000 mm 0,0 UV-I 0 W/m 11,7 C 12,3 C 8,0 km/h (2 Bft) 100,00 %
03.06.2016 04:45 12,3 C 96 % 1008,9 hPa 0,0 l/m 4,8 km/h (1 Bft) SW 225 0 min 0,000 mm 0,0 UV-I 0 W/m 11,7 C 12,3 C 6,4 km/h (2 Bft) 100,00 %
03.06.2016 04:46 12,3 C 96 % 1008,9 hPa 0,0 l/m 3,4 km/h (1 Bft) SW 225 0 min 0,000 mm 0,0 UV-I 0 W/m 11,7 C 12,3 C 4,8 km/h (1 Bft) 100,00 %
03.06.2016 04:47 12,3 C 96 % 1008,8 hPa 0,0 l/m 3,8 km/h (1 Bft) SW 216 0 min 0,000 mm 0,0 UV-I 0 W/m 11,7 C 12,3 C 4,8 km/h (1 Bft) 100,00 %
03.06.2016 04:48 12,3 C 96 % 1008,8 hPa 0,0 l/m 4,2 km/h (1 Bft) S-SW 204 0 min 0,000 mm 0,0 UV-I 0 W/m 11,7 C 12,3 C 6,4 km/h (2 Bft) 100,00 %
03.06.2016 04:49 12,3 C 96 % 1008,9 hPa 0,0 l/m 3,1 km/h (1 Bft) SW 219 0 min 0,000 mm 0,0 UV-I 0 W/m 11,7 C 12,3 C 4,8 km/h (1 Bft) 100,00 %
03.06.2016 04:50 12,3 C 96 % 1008,9 hPa 0,0 l/m 5,1 km/h (1 Bft) SW 232 0 min 0,000 mm 0,0 UV-I 0 W/m 11,7 C 12,3 C 8,0 km/h (2 Bft) 100,00 %
03.06.2016 04:51 12,3 C 96 % 1008,9 hPa 0,0 l/m 3,8 km/h (1 Bft) SW 232 0 min 0,000 mm 0,0 UV-I 0 W/m 11,7 C 12,3 C 4,8 km/h (1 Bft) 100,00 %
03.06.2016 04:52 12,3 C 96 % 1008,9 hPa 0,0 l/m 4,5 km/h (1 Bft) S-SW 213 0 min 0,000 mm 0,0 UV-I 0 W/m 11,7 C 12,3 C 6,4 km/h (2 Bft) 100,00 %
03.06.2016 04:53 12,3 C 96 % 1008,9 hPa 0,0 l/m 3,5 km/h (1 Bft) S-SW 203 0 min 0,000 mm 0,0 UV-I 0 W/m 11,7 C 12,3 C 4,8 km/h (1 Bft) 100,00 %
03.06.2016 04:54 12,3 C 96 % 1008,9 hPa 0,0 l/m 3,2 km/h (1 Bft) SW 223 0 min 0,000 mm 0,0 UV-I 0 W/m 11,7 C 12,3 C 4,8 km/h (1 Bft) 100,00 %
03.06.2016 04:55 12,3 C 96 % 1008,9 hPa 0,0 l/m 3,2 km/h (1 Bft) SW 228 0 min 0,000 mm 0,0 UV-I 0 W/m 11,7 C 12,3 C 4,8 km/h (1 Bft) 100,00 %
03.06.2016 04:56 12,2 C 96 % 1009,0 hPa 0,0 l/m 4,1 km/h (1 Bft) SW 227 0 min 0,000 mm 0,0 UV-I 0 W/m 11,6 C 12,2 C 4,8 km/h (1 Bft) 100,00 %
03.06.2016 04:57 12,2 C 96 % 1009,0 hPa 0,0 l/m 1,8 km/h (1 Bft) SW 227 0 min 0,000 mm 0,0 UV-I 0 W/m 11,6 C 12,2 C 3,2 km/h (1 Bft) 100,00 %
03.06.2016 04:58 12,2 C 96 % 1009,0 hPa 0,0 l/m 1,8 km/h (1 Bft) SW 227 0 min 0,000 mm 0,0 UV-I 0 W/m 11,6 C 12,2 C 3,2 km/h (1 Bft) 100,00 %
03.06.2016 04:59 12,2 C 96 % 1009,1 hPa 0,0 l/m 0,3 km/h (0 Bft) SW 227 0 min 0,000 mm 0,0 UV-I 0 W/m 11,6 C 12,2 C 1,6 km/h (1 Bft) 95,65 %
03.06.2016 05:00 12,2 C 96 % 1009,0 hPa 0,0 l/m 0,6 km/h (0 Bft) SW 227 0 min 0,000 mm 0,0 UV-I 0 W/m 11,6 C 12,2 C 1,6 km/h (1 Bft) 100,00 %
03.06.2016 05:01 12,2 C 96 % 1009,0 hPa 0,0 l/m 0,9 km/h (0 Bft) SW 227 0 min 0,000 mm 0,0 UV-I 0 W/m 11,6 C 12,2 C 1,6 km/h (1 Bft) 91,67 %
03.06.2016 05:02 12,2 C 96 % 1009,1 hPa 0,0 l/m 0,5 km/h (0 Bft) SW 227 0 min 0,000 mm 0,0 UV-I 0 W/m 11,6 C 12,2 C 1,6 km/h (1 Bft) 100,00 %
03.06.2016 05:03 12,2 C 96 % 1009,1 hPa 0,0 l/m 0,2 km/h (0 Bft) SW 227 0 min 0,000 mm 0,0 UV-I 0 W/m 11,6 C 12,2 C 1,6 km/h (1 Bft) 100,00 %
03.06.2016 05:04 12,2 C 96 % 1009,1 hPa 0,0 l/m 0,0 km/h (0 Bft) SW 227 0 min 0,000 mm 0,0 UV-I 0 W/m 11,6 C 12,2 C 0,0 km/h (0 Bft) 100,00 %
03.06.2016 05:05 12,2 C 96 % 1009,0 hPa 0,0 l/m 0,0 km/h (0 Bft) SW 227 0 min 0,000 mm 0,0 UV-I 0 W/m 11,6 C 12,2 C 0,0 km/h (0 Bft) 100,00 %
03.06.2016 05:06 12,2 C 96 % 1009,0 hPa 0,0 l/m 0,0 km/h (0 Bft) SW 227 0 min 0,000 mm 0,0 UV-I 0 W/m 11,6 C 12,2 C 0,0 km/h (0 Bft) 100,00 %
03.06.2016 05:07 12,2 C 96 % 1009,0 hPa 0,0 l/m 0,0 km/h (0 Bft) SW 227 0 min 0,000 mm 0,0 UV-I 0 W/m 11,6 C 12,2 C 0,0 km/h (0 Bft) 100,00 %
03.06.2016 05:08 12,2 C 96 % 1009,0 hPa 0,0 l/m 1,0 km/h (0 Bft) SW 227 0 min 0,000 mm 0,0 UV-I 0 W/m 11,6 C 12,2 C 3,2 km/h (1 Bft) 100,00 %
03.06.2016 05:09 12,2 C 96 % 1009,0 hPa 0,0 l/m 1,5 km/h (1 Bft) SW 227 0 min 0,000 mm 0,0 UV-I 0 W/m 11,6 C 12,2 C 3,2 km/h (1 Bft) 95,83 %
03.06.2016 05:10 12,2 C 96 % 1009,0 hPa 0,0 l/m 2,1 km/h (1 Bft) SW 225 0 min 0,000 mm 0,0 UV-I 0 W/m 11,6 C 12,2 C 3,2 km/h (1 Bft) 95,65 %
03.06.2016 05:11 12,3 C 96 % 1009,0 hPa 0,0 l/m 1,9 km/h (1 Bft) SW 225 0 min 0,000 mm 0,0 UV-I 0 W/m 11,7 C 12,3 C 3,2 km/h (1 Bft) 100,00 %
03.06.2016 05:12 12,3 C 96 % 1009,1 hPa 0,0 l/m 1,5 km/h (1 Bft) SW 225 0 min 0,000 mm 0,0 UV-I 0 W/m 11,7 C 12,3 C 3,2 km/h (1 Bft) 100,00 %
03.06.2016 05:13 12,3 C 96 % 1009,0 hPa 0,0 l/m 2,5 km/h (1 Bft) SW 225 0 min 0,000 mm 0,0 UV-I 0 W/m 11,7 C 12,3 C 3,2 km/h (1 Bft) 100,00 %
03.06.2016 05:14 12,3 C 96 % 1009,0 hPa 0,0 l/m 3,2 km/h (1 Bft) SW 225 0 min 0,000 mm 0,0 UV-I 0 W/m 11,7 C 12,3 C 3,2 km/h (1 Bft) 100,00 %
03.06.2016 05:15 12,3 C 96 % 1009,0 hPa 0,0 l/m 3,0 km/h (1 Bft) SW 225 0 min 0,000 mm 0,0 UV-I 0 W/m 11,7 C 12,3 C 3,2 km/h (1 Bft) 100,00 %
03.06.2016 05:16 12,3 C 96 % 1009,0 hPa 0,0 l/m 3,4 km/h (1 Bft) SW 225 0 min 0,000 mm 0,0 UV-I 0 W/m 11,7 C 12,3 C 4,8 km/h (1 Bft) 100,00 %
03.06.2016 05:17 12,3 C 96 % 1009,0 hPa 0,0 l/m 4,5 km/h (1 Bft) S-SW 213 0 min 0,000 mm 0,0 UV-I 0 W/m 11,7 C 12,3 C 4,8 km/h (1 Bft) 100,00 %
03.06.2016 05:18 12,3 C 96 % 1009,0 hPa 0,0 l/m 4,8 km/h (1 Bft) S-SW 202 0 min 0,000 mm 0,0 UV-I 5 W/m 11,7 C 12,3 C 4,8 km/h (1 Bft) 100,00 %
03.06.2016 05:19 12,3 C 96 % 1009,0 hPa 0,0 l/m 4,5 km/h (1 Bft) S-SW 197 0 min 0,000 mm 0,0 UV-I 5 W/m 11,7 C 12,3 C 6,4 km/h (2 Bft) 100,00 %
03.06.2016 05:20 12,3 C 96 % 1009,0 hPa 0,0 l/m 4,4 km/h (1 Bft) S 191 0 min 0,000 mm 0,0 UV-I 5 W/m 11,7 C 12,3 C 6,4 km/h (2 Bft) 95,65 %
03.06.2016 05:21 12,3 C 96 % 1009,0 hPa 0,0 l/m 3,4 km/h (1 Bft) S 191 0 min 0,000 mm 0,0 UV-I 5 W/m 11,7 C 12,3 C 4,8 km/h (1 Bft) 100,00 %
03.06.2016 05:22 12,3 C 96 % 1009,0 hPa 0,0 l/m 5,6 km/h (1 Bft) S 180 0 min 0,000 mm 0,0 UV-I 5 W/m 11,7 C 12,3 C 8,0 km/h (2 Bft) 100,00 %
03.06.2016 05:23 12,3 C 96 % 1009,0 hPa 0,0 l/m 3,9 km/h (1 Bft) S 177 0 min 0,000 mm 0,0 UV-I 7 W/m 11,7 C 12,3 C 6,4 km/h (2 Bft) 100,00 %
03.06.2016 05:24 12,3 C 96 % 1009,0 hPa 0,0 l/m 3,8 km/h (1 Bft) S 177 0 min 0,000 mm 0,0 UV-I 7 W/m 11,7 C 12,3 C 4,8 km/h (1 Bft) 100,00 %
03.06.2016 05:25 12,3 C 96 % 1009,0 hPa 0,0 l/m 4,2 km/h (1 Bft) S-SW 207 0 min 0,000 mm 0,0 UV-I 7 W/m 11,7 C 12,3 C 6,4 km/h (2 Bft) 100,00 %
03.06.2016 05:26 12,3 C 96 % 1009,0 hPa 0,0 l/m 4,9 km/h (1 Bft) S-SW 205 0 min 0,000 mm 0,0 UV-I 8 W/m 11,7 C 12,3 C 6,4 km/h (2 Bft) 100,00 %
03.06.2016 05:27 12,3 C 96 % 1009,0 hPa 0,0 l/m 5,4 km/h (1 Bft) S-SW 205 0 min 0,000 mm 0,0 UV-I 9 W/m 11,7 C 12,3 C 6,4 km/h (2 Bft) 100,00 %
03.06.2016 05:28 12,3 C 96 % 1009,0 hPa 0,0 l/m 6,4 km/h (2 Bft) S-SW 203 0 min 0,000 mm 0,0 UV-I 9 W/m 11,7 C 12,3 C 8,0 km/h (2 Bft) 95,83 %
03.06.2016 05:29 12,3 C 96 % 1009,0 hPa 0,0 l/m 5,9 km/h (2 Bft) S-SW 205 0 min 0,000 mm 0,0 UV-I 9 W/m 11,7 C 12,3 C 8,0 km/h (2 Bft) 100,00 %
03.06.2016 05:30 12,3 C 96 % 1009,0 hPa 0,0 l/m 6,5 km/h (2 Bft) S-SW 198 0 min 0,000 mm 0,0 UV-I 11 W/m 11,7 C 12,3 C 9,7 km/h (2 Bft) 100,00 %
03.06.2016 05:31 12,3 C 96 % 1009,0 hPa 0,0 l/m 6,1 km/h (2 Bft) S-SW 201 0 min 0,000 mm 0,0 UV-I 11 W/m 11,7 C 12,3 C 8,0 km/h (2 Bft) 100,00 %
03.06.2016 05:32 12,3 C 96 % 1009,0 hPa 0,0 l/m 5,9 km/h (2 Bft) S-SW 205 0 min 0,000 mm 0,0 UV-I 11 W/m 11,7 C 12,3 C 6,4 km/h (2 Bft) 100,00 %
03.06.2016 05:33 12,4 C 96 % 1009,0 hPa 0,0 l/m 6,4 km/h (2 Bft) S-SW 193 0 min 0,000 mm 0,0 UV-I 11 W/m 11,8 C 12,4 C 8,0 km/h (2 Bft) 100,00 %
03.06.2016 05:34 12,4 C 96 % 1009,0 hPa 0,0 l/m 6,8 km/h (2 Bft) S-SW 198 0 min 0,000 mm 0,0 UV-I 12 W/m 11,8 C 12,1 C 8,0 km/h (2 Bft) 100,00 %
03.06.2016 05:35 12,4 C 96 % 1009,0 hPa 0,0 l/m 6,0 km/h (2 Bft) S-SW 202 0 min 0,000 mm 0,0 UV-I 12 W/m 11,8 C 12,4 C 8,0 km/h (2 Bft) 100,00 %
03.06.2016 05:36 12,4 C 96 % 1009,0 hPa 0,0 l/m 6,0 km/h (2 Bft) S-SW 210 0 min 0,000 mm 0,0 UV-I 12 W/m 11,8 C 12,4 C 8,0 km/h (2 Bft) 100,00 %
03.06.2016 05:37 12,4 C 96 % 1009,0 hPa 0,0 l/m 6,4 km/h (2 Bft) S 191 0 min 0,000 mm 0,0 UV-I 12 W/m 11,8 C 12,4 C 8,0 km/h (2 Bft) 100,00 %
03.06.2016 05:38 12,4 C 96 % 1009,0 hPa 0,0 l/m 8,3 km/h (2 Bft) S-SW 200 0 min 0,000 mm 0,0 UV-I 12 W/m 11,8 C 11,2 C 9,7 km/h (2 Bft) 100,00 %
03.06.2016 05:39 12,4 C 96 % 1009,0 hPa 0,0 l/m 6,3 km/h (2 Bft) S-SW 199 0 min 0,000 mm 0,0 UV-I 13 W/m 11,8 C 12,4 C 8,0 km/h (2 Bft) 100,00 %
03.06.2016 05:40 12,4 C 96 % 1009,0 hPa 0,0 l/m 6,5 km/h (2 Bft) S 188 0 min 0,000 mm 0,0 UV-I 14 W/m 11,8 C 12,4 C 8,0 km/h (2 Bft) 100,00 %
03.06.2016 05:41 12,4 C 96 % 1009,0 hPa 0,0 l/m 7,4 km/h (2 Bft) S-SW 208 0 min 0,000 mm 0,0 UV-I 14 W/m 11,8 C 11,7 C 9,7 km/h (2 Bft) 100,00 %
03.06.2016 05:42 12,5 C 96 % 1009,0 hPa 0,0 l/m 6,7 km/h (2 Bft) S-SW 201 0 min 0,000 mm 0,0 UV-I 14 W/m 11,9 C 12,3 C 8,0 km/h (2 Bft) 100,00 %
03.06.2016 05:43 12,5 C 96 % 1009,0 hPa 0,0 l/m 5,0 km/h (1 Bft) S 183 0 min 0,000 mm 0,0 UV-I 16 W/m 11,9 C 12,5 C 8,0 km/h (2 Bft) 100,00 %
03.06.2016 05:44 12,5 C 96 % 1009,0 hPa 0,0 l/m 6,1 km/h (2 Bft) S 178 0 min 0,000 mm 0,0 UV-I 16 W/m 11,9 C 12,5 C 8,0 km/h (2 Bft) 100,00 %
03.06.2016 05:45 12,5 C 96 % 1009,0 hPa 0,0 l/m 4,4 km/h (1 Bft) SW 214 0 min 0,000 mm 0,0 UV-I 16 W/m 11,9 C 12,5 C 6,4 km/h (2 Bft) 100,00 %
03.06.2016 05:46 12,5 C 96 % 1009,0 hPa 0,0 l/m 4,1 km/h (1 Bft) S 190 0 min 0,000 mm 0,0 UV-I 18 W/m 11,9 C 12,5 C 4,8 km/h (1 Bft) 92,86 %
03.06.2016 05:47 12,5 C 96 % 1009,0 hPa 0,0 l/m 6,2 km/h (2 Bft) S-SW 200 0 min 0,000 mm 0,0 UV-I 18 W/m 11,9 C 12,5 C 8,0 km/h (2 Bft) 100,00 %
03.06.2016 05:48 12,5 C 96 % 1009,0 hPa 0,0 l/m 4,7 km/h (1 Bft) SW 222 0 min 0,000 mm 0,0 UV-I 18 W/m 11,9 C 12,5 C 6,4 km/h (2 Bft) 100,00 %
03.06.2016 05:49 12,5 C 96 % 1009,0 hPa 0,0 l/m 3,0 km/h (1 Bft) SW 215 0 min 0,000 mm 0,0 UV-I 19 W/m 11,9 C 12,5 C 4,8 km/h (1 Bft) 100,00 %
03.06.2016 05:50 12,5 C 96 % 1009,0 hPa 0,0 l/m 4,5 km/h (1 Bft) S-SW 212 0 min 0,000 mm 0,0 UV-I 19 W/m 11,9 C 12,5 C 6,4 km/h (2 Bft) 100,00 %
03.06.2016 05:51 12,5 C 96 % 1009,0 hPa 0,0 l/m 4,4 km/h (1 Bft) SW 215 0 min 0,000 mm 0,0 UV-I 19 W/m 11,9 C 12,5 C 6,4 km/h (2 Bft) 100,00 %
03.06.2016 05:52 12,5 C 96 % 1009,0 hPa 0,0 l/m 4,3 km/h (1 Bft) S-SW 211 0 min 0,000 mm 0,0 UV-I 21 W/m 11,9 C 12,5 C 6,4 km/h (2 Bft) 95,65 %
03.06.2016 05:53 12,5 C 96 % 1009,0 hPa 0,0 l/m 3,4 km/h (1 Bft) S-SW 207 0 min 0,000 mm 0,0 UV-I 21 W/m 11,9 C 12,5 C 4,8 km/h (1 Bft) 95,83 %
03.06.2016 05:54 12,5 C 96 % 1009,0 hPa 0,0 l/m 5,0 km/h (1 Bft) SW 214 0 min 0,000 mm 0,0 UV-I 21 W/m 11,9 C 12,5 C 6,4 km/h (2 Bft) 100,00 %
03.06.2016 05:55 12,5 C 96 % 1009,0 hPa 0,0 l/m 5,8 km/h (2 Bft) S 187 0 min 0,000 mm 0,0 UV-I 22 W/m 11,9 C 12,5 C 6,4 km/h (2 Bft) 95,83 %
03.06.2016 05:56 12,5 C 96 % 1009,0 hPa 0,0 l/m 3,8 km/h (1 Bft) S-SW 206 0 min 0,000 mm 0,0 UV-I 23 W/m 11,9 C 12,5 C 6,4 km/h (2 Bft) 100,00 %
03.06.2016 05:57 12,5 C 96 % 1009,0 hPa 0,0 l/m 3,4 km/h (1 Bft) S-SW 206 0 min 0,000 mm 0,0 UV-I 23 W/m 11,9 C 12,5 C 6,4 km/h (2 Bft) 95,83 %
03.06.2016 05:58 12,6 C 96 % 1009,0 hPa 0,0 l/m 3,8 km/h (1 Bft) SW 229 0 min 0,000 mm 0,0 UV-I 25 W/m 12,0 C 12,6 C 4,8 km/h (1 Bft) 100,00 %
03.06.2016 05:59 12,6 C 96 % 1009,0 hPa 0,0 l/m 3,4 km/h (1 Bft) SW 227 0 min 0,000 mm 0,0 UV-I 25 W/m 12,0 C 12,6 C 4,8 km/h (1 Bft) 95,83 %
03.06.2016 06:00 12,6 C 96 % 1009,0 hPa 0,0 l/m 5,6 km/h (1 Bft) SW 221 0 min 0,000 mm 0,0 UV-I 25 W/m 12,0 C 12,6 C 6,4 km/h (2 Bft) 100,00 %
03.06.2016 06:01 12,6 C 96 % 1009,1 hPa 0,0 l/m 4,8 km/h (1 Bft) SW 221 0 min 0,000 mm 0,0 UV-I 25 W/m 12,0 C 12,6 C 6,4 km/h (2 Bft) 95,83 %
03.06.2016 06:02 12,6 C 96 % 1009,0 hPa 0,0 l/m 4,2 km/h (1 Bft) SW 215 0 min 0,000 mm 0,0 UV-I 25 W/m 12,0 C 12,6 C 4,8 km/h (1 Bft) 95,83 %
03.06.2016 06:03 12,6 C 96 % 1009,1 hPa 0,0 l/m 4,6 km/h (1 Bft) SW 228 0 min 0,000 mm 0,0 UV-I 25 W/m 12,0 C 12,6 C 4,8 km/h (1 Bft) 100,00 %
03.06.2016 06:04 12,6 C 96 % 1009,1 hPa 0,0 l/m 4,9 km/h (1 Bft) SW 228 0 min 0,000 mm 0,0 UV-I 25 W/m 12,0 C 12,6 C 6,4 km/h (2 Bft) 95,83 %
03.06.2016 06:05 12,6 C 96 % 1009,1 hPa 0,0 l/m 4,1 km/h (1 Bft) SW 217 0 min 0,000 mm 0,0 UV-I 25 W/m 12,0 C 12,6 C 4,8 km/h (1 Bft) 100,00 %
03.06.2016 06:06 12,6 C 96 % 1009,0 hPa 0,0 l/m 2,7 km/h (1 Bft) SW 219 0 min 0,000 mm 0,0 UV-I 25 W/m 12,0 C 12,6 C 3,2 km/h (1 Bft) 95,83 %
03.06.2016 06:07 12,6 C 96 % 1009,1 hPa 0,0 l/m 3,4 km/h (1 Bft) S-SW 210 0 min 0,000 mm 0,0 UV-I 26 W/m 12,0 C 12,6 C 4,8 km/h (1 Bft) 100,00 %
03.06.2016 06:08 12,7 C 96 % 1009,0 hPa 0,0 l/m 4,2 km/h (1 Bft) S-SW 198 0 min 0,000 mm 0,0 UV-I 27 W/m 12,1 C 12,7 C 6,4 km/h (2 Bft) 95,83 %
03.06.2016 06:09 12,7 C 96 % 1009,1 hPa 0,0 l/m 4,2 km/h (1 Bft) S-SW 198 0 min 0,000 mm 0,0 UV-I 30 W/m 12,1 C 12,7 C 4,8 km/h (1 Bft) 95,65 %
03.06.2016 06:10 12,7 C 96 % 1009,1 hPa 0,0 l/m 4,2 km/h (1 Bft) S-SW 198 0 min 0,000 mm 0,0 UV-I 32 W/m 12,1 C 12,7 C 6,4 km/h (2 Bft) 100,00 %
03.06.2016 06:11 12,7 C 96 % 1009,1 hPa 0,0 l/m 4,5 km/h (1 Bft) S-SW 195 0 min 0,000 mm 0,0 UV-I 33 W/m 12,1 C 12,7 C 6,4 km/h (2 Bft) 91,30 %
03.06.2016 06:12 12,7 C 96 % 1009,0 hPa 0,0 l/m 4,6 km/h (1 Bft) S-SW 195 0 min 0,000 mm 0,0 UV-I 36 W/m 12,1 C 12,7 C 6,4 km/h (2 Bft) 100,00 %
03.06.2016 06:13 12,7 C 96 % 1009,0 hPa 0,0 l/m 4,3 km/h (1 Bft) S-SW 195 0 min 0,000 mm 0,0 UV-I 38 W/m 12,1 C 12,7 C 4,8 km/h (1 Bft) 96,15 %
03.06.2016 06:14 12,7 C 96 % 1009,0 hPa 0,0 l/m 4,9 km/h (1 Bft) S-SW 200 0 min 0,000 mm 0,0 UV-I 39 W/m 12,1 C 12,7 C 8,0 km/h (2 Bft) 100,00 %
03.06.2016 06:15 12,7 C 96 % 1009,0 hPa 0,0 l/m 4,1 km/h (1 Bft) S-SW 200 0 min 0,000 mm 0,0 UV-I 40 W/m 12,1 C 12,7 C 6,4 km/h (2 Bft) 95,65 %
03.06.2016 06:16 12,7 C 96 % 1009,0 hPa 0,0 l/m 5,0 km/h (1 Bft) S-SW 211 0 min 0,000 mm 0,0 UV-I 40 W/m 12,1 C 12,7 C 6,4 km/h (2 Bft) 95,83 %
03.06.2016 06:17 12,8 C 96 % 1009,0 hPa 0,0 l/m 4,6 km/h (1 Bft) SW 229 0 min 0,000 mm 0,0 UV-I 42 W/m 12,2 C 12,8 C 6,4 km/h (2 Bft) 100,00 %
03.06.2016 06:18 12,8 C 96 % 1009,0 hPa 0,0 l/m 3,9 km/h (1 Bft) S-SW 203 0 min 0,000 mm 0,0 UV-I 42 W/m 12,2 C 12,8 C 4,8 km/h (1 Bft) 95,83 %
03.06.2016 06:19 12,8 C 96 % 1009,0 hPa 0,0 l/m 3,3 km/h (1 Bft) S-SW 209 0 min 0,000 mm 0,0 UV-I 43 W/m 12,2 C 12,8 C 4,8 km/h (1 Bft) 100,00 %
03.06.2016 06:20 12,8 C 96 % 1009,0 hPa 0,0 l/m 4,9 km/h (1 Bft) SW 219 0 min 0,000 mm 0,0 UV-I 45 W/m 12,2 C 12,8 C 6,4 km/h (2 Bft) 95,83 %
03.06.2016 06:21 12,8 C 96 % 1009,0 hPa 0,0 l/m 4,8 km/h (1 Bft) S-SW 196 0 min 0,000 mm 0,0 UV-I 46 W/m 12,2 C 12,8 C 6,4 km/h (2 Bft) 100,00 %
03.06.2016 06:22 12,8 C 96 % 1009,0 hPa 0,0 l/m 6,0 km/h (2 Bft) S-SW 192 0 min 0,000 mm 0,0 UV-I 47 W/m 12,2 C 12,8 C 8,0 km/h (2 Bft) 95,83 %
03.06.2016 06:23 12,8 C 96 % 1009,0 hPa 0,0 l/m 4,3 km/h (1 Bft) S 186 0 min 0,000 mm 0,0 UV-I 49 W/m 12,2 C 12,8 C 4,8 km/h (1 Bft) 100,00 %
03.06.2016 06:24 12,8 C 96 % 1009,0 hPa 0,0 l/m 3,1 km/h (1 Bft) S 186 0 min 0,000 mm 0,0 UV-I 50 W/m 12,2 C 12,8 C 4,8 km/h (1 Bft) 100,00 %
03.06.2016 06:25 12,8 C 95 % 1009,0 hPa 0,0 l/m 3,3 km/h (1 Bft) S 186 0 min 0,000 mm 0,0 UV-I 52 W/m 12,0 C 12,8 C 4,8 km/h (1 Bft) 100,00 %
03.06.2016 06:26 12,8 C 96 % 1009,0 hPa 0,0 l/m 2,8 km/h (1 Bft) S 186 0 min 0,000 mm 0,0 UV-I 54 W/m 12,2 C 12,8 C 3,2 km/h (1 Bft) 100,00 %
03.06.2016 06:27 12,9 C 96 % 1009,0 hPa 0,0 l/m 3,0 km/h (1 Bft) S-SW 194 0 min 0,000 mm 0,0 UV-I 56 W/m 12,3 C 12,9 C 4,8 km/h (1 Bft) 100,00 %
03.06.2016 06:28 12,9 C 95 % 1009,0 hPa 0,0 l/m 4,6 km/h (1 Bft) SW 214 0 min 0,000 mm 0,0 UV-I 58 W/m 12,1 C 12,9 C 6,4 km/h (2 Bft) 100,00 %
03.06.2016 06:29 12,9 C 95 % 1009,0 hPa 0,0 l/m 5,0 km/h (1 Bft) SW 223 0 min 0,000 mm 0,0 UV-I 59 W/m 12,1 C 12,9 C 6,4 km/h (2 Bft) 95,83 %
03.06.2016 06:30 12,9 C 96 % 1009,0 hPa 0,0 l/m 3,6 km/h (1 Bft) SW 223 0 min 0,000 mm 0,0 UV-I 61 W/m 12,3 C 12,9 C 4,8 km/h (1 Bft) 100,00 %
03.06.2016 06:31 12,9 C 96 % 1009,0 hPa 0,0 l/m 2,8 km/h (1 Bft) SW 223 0 min 0,000 mm 0,0 UV-I 63 W/m 12,3 C 12,9 C 4,8 km/h (1 Bft) 96,30 %
03.06.2016 06:32 12,9 C 96 % 1009,0 hPa 0,0 l/m 1,1 km/h (1 Bft) SW 223 0 min 0,000 mm 0,0 UV-I 64 W/m 12,3 C 12,9 C 3,2 km/h (1 Bft) 100,00 %
03.06.2016 06:33 12,9 C 96 % 1009,0 hPa 0,0 l/m 0,6 km/h (0 Bft) SW 223 0 min 0,000 mm 0,0 UV-I 69 W/m 12,3 C 12,9 C 1,6 km/h (1 Bft) 96,30 %
03.06.2016 06:34 12,9 C 96 % 1009,0 hPa 0,0 l/m 0,5 km/h (0 Bft) SW 223 0 min 0,000 mm 0,0 UV-I 69 W/m 12,3 C 12,9 C 1,6 km/h (1 Bft) 100,00 %
03.06.2016 06:35 12,9 C 96 % 1009,0 hPa 0,0 l/m 0,5 km/h (0 Bft) SW 223 0 min 0,000 mm 0,0 UV-I 71 W/m 12,3 C 12,9 C 1,6 km/h (1 Bft) 100,00 %
03.06.2016 06:36 12,9 C 96 % 1009,0 hPa 0,0 l/m 2,5 km/h (1 Bft) SW 223 0 min 0,000 mm 0,0 UV-I 73 W/m 12,3 C 12,9 C 3,2 km/h (1 Bft) 100,00 %
03.06.2016 06:37 13,0 C 96 % 1009,0 hPa 0,0 l/m 2,6 km/h (1 Bft) SW 223 0 min 0,000 mm 0,0 UV-I 74 W/m 12,4 C 13,0 C 3,2 km/h (1 Bft) 100,00 %
03.06.2016 06:38 13,0 C 96 % 1009,0 hPa 0,0 l/m 1,7 km/h (1 Bft) SW 223 0 min 0,000 mm 0,0 UV-I 76 W/m 12,4 C 13,0 C 3,2 km/h (1 Bft) 100,00 %
03.06.2016 06:39 13,0 C 96 % 1009,0 hPa 0,0 l/m 1,3 km/h (1 Bft) SW 223 0 min 0,000 mm 0,0 UV-I 79 W/m 12,4 C 13,0 C 3,2 km/h (1 Bft) 95,83 %
03.06.2016 06:40 13,0 C 96 % 1009,0 hPa 0,0 l/m 0,6 km/h (0 Bft) SW 223 0 min 0,000 mm 0,0 UV-I 81 W/m 12,4 C 13,0 C 1,6 km/h (1 Bft) 100,00 %
03.06.2016 06:41 13,0 C 95 % 1009,0 hPa 0,0 l/m 3,0 km/h (1 Bft) SW 223 0 min 0,000 mm 0,0 UV-I 83 W/m 12,2 C 13,0 C 4,8 km/h (1 Bft) 100,00 %
03.06.2016 06:42 13,1 C 95 % 1009,0 hPa 0,0 l/m 3,2 km/h (1 Bft) SW 223 0 min 0,000 mm 0,0 UV-I 83 W/m 12,3 C 13,1 C 4,8 km/h (1 Bft) 100,00 %
03.06.2016 06:43 13,1 C 96 % 1009,0 hPa 0,0 l/m 2,1 km/h (1 Bft) SW 223 0 min 0,000 mm 0,0 UV-I 84 W/m 12,5 C 13,1 C 3,2 km/h (1 Bft) 100,00 %
03.06.2016 06:44 13,1 C 95 % 1009,0 hPa 0,0 l/m 2,0 km/h (1 Bft) SW 223 0 min 0,000 mm 0,0 UV-I 86 W/m 12,3 C 13,1 C 3,2 km/h (1 Bft) 100,00 %
03.06.2016 06:45 13,1 C 95 % 1009,0 hPa 0,0 l/m 2,4 km/h (1 Bft) SW 223 0 min 0,000 mm 0,0 UV-I 86 W/m 12,3 C 13,1 C 3,2 km/h (1 Bft) 95,65 %
03.06.2016 06:46 13,2 C 95 % 1009,0 hPa 0,0 l/m 3,1 km/h (1 Bft) SW 222 0 min 0,000 mm 0,0 UV-I 86 W/m 12,4 C 13,2 C 4,8 km/h (1 Bft) 100,00 %
03.06.2016 06:47 13,2 C 95 % 1009,0 hPa 0,0 l/m 3,8 km/h (1 Bft) SW 219 0 min 0,000 mm 0,0 UV-I 88 W/m 12,4 C 13,2 C 4,8 km/h (1 Bft) 100,00 %
03.06.2016 06:48 13,2 C 95 % 1009,0 hPa 0,0 l/m 4,0 km/h (1 Bft) S-SW 211 0 min 0,000 mm 0,0 UV-I 89 W/m 12,4 C 13,2 C 4,8 km/h (1 Bft) 95,83 %
03.06.2016 06:49 13,2 C 95 % 1009,0 hPa 0,0 l/m 4,3 km/h (1 Bft) S-SW 211 0 min 0,000 mm 0,0 UV-I 91 W/m 12,4 C 13,2 C 6,4 km/h (2 Bft) 100,00 %
03.06.2016 06:50 13,2 C 95 % 1009,0 hPa 0,0 l/m 3,9 km/h (1 Bft) SW 232 0 min 0,000 mm 0,0 UV-I 92 W/m 12,4 C 13,2 C 4,8 km/h (1 Bft) 100,00 %
03.06.2016 06:51 13,2 C 95 % 1009,0 hPa 0,0 l/m 4,0 km/h (1 Bft) SW 236 0 min 0,000 mm 0,0 UV-I 95 W/m 12,4 C 13,2 C 6,4 km/h (2 Bft) 100,00 %
03.06.2016 06:52 13,2 C 95 % 1009,0 hPa 0,0 l/m 4,7 km/h (1 Bft) SW 228 0 min 0,000 mm 0,0 UV-I 97 W/m 12,4 C 13,2 C 6,4 km/h (2 Bft) 100,00 %
03.06.2016 06:53 13,2 C 95 % 1009,0 hPa 0,0 l/m 5,2 km/h (1 Bft) S-SW 205 0 min 0,000 mm 0,0 UV-I 99 W/m 12,4 C 13,2 C 6,4 km/h (2 Bft) 100,00 %
03.06.2016 06:54 13,3 C 95 % 1009,0 hPa 0,0 l/m 5,8 km/h (2 Bft) SW 227 0 min 0,000 mm 0,0 UV-I 101 W/m 12,5 C 13,3 C 8,0 km/h (2 Bft) 100,00 %
03.06.2016 06:55 13,3 C 95 % 1009,0 hPa 0,0 l/m 5,8 km/h (2 Bft) S-SW 201 0 min 0,000 mm 0,0 UV-I 103 W/m 12,5 C 13,3 C 8,0 km/h (2 Bft) 100,00 %
03.06.2016 06:56 13,3 C 95 % 1009,0 hPa 0,0 l/m 6,4 km/h (2 Bft) S-SW 204 0 min 0,000 mm 0,0 UV-I 104 W/m 12,5 C 13,3 C 9,7 km/h (2 Bft) 100,00 %
03.06.2016 06:57 13,3 C 95 % 1009,0 hPa 0,0 l/m 7,6 km/h (2 Bft) SW 218 0 min 0,000 mm 0,0 UV-I 105 W/m 12,5 C 12,6 C 11,3 km/h (2 Bft) 100,00 %
03.06.2016 06:58 13,3 C 95 % 1009,0 hPa 0,0 l/m 5,8 km/h (2 Bft) SW 221 0 min 0,000 mm 0,0 UV-I 105 W/m 12,5 C 13,3 C 8,0 km/h (2 Bft) 100,00 %
03.06.2016 06:59 13,3 C 95 % 1009,1 hPa 0,0 l/m 5,0 km/h (1 Bft) SW 226 0 min 0,000 mm 0,0 UV-I 105 W/m 12,5 C 13,3 C 6,4 km/h (2 Bft) 100,00 %
03.06.2016 07:00 13,4 C 95 % 1009,1 hPa 0,0 l/m 4,8 km/h (1 Bft) S 189 0 min 0,025 mm 0,0 UV-I 105 W/m 12,6 C 13,4 C 8,0 km/h (2 Bft) 100,00 %
03.06.2016 07:01 13,4 C 95 % 1009,1 hPa 0,0 l/m 5,6 km/h (1 Bft) SW 217 0 min 0,000 mm 0,0 UV-I 106 W/m 12,6 C 13,4 C 6,4 km/h (2 Bft) 100,00 %
03.06.2016 07:02 13,4 C 95 % 1009,1 hPa 0,0 l/m 5,4 km/h (1 Bft) SW 216 0 min 0,000 mm 0,0 UV-I 109 W/m 12,6 C 13,4 C 8,0 km/h (2 Bft) 95,83 %
03.06.2016 07:03 13,4 C 95 % 1009,1 hPa 0,0 l/m 4,2 km/h (1 Bft) S-SW 205 0 min 0,000 mm 0,0 UV-I 113 W/m 12,6 C 13,4 C 4,8 km/h (1 Bft) 100,00 %
03.06.2016 07:04 13,4 C 95 % 1009,1 hPa 0,0 l/m 6,2 km/h (2 Bft) W-SW 241 0 min 0,000 mm 0,0 UV-I 114 W/m 12,6 C 13,4 C 8,0 km/h (2 Bft) 100,00 %
03.06.2016 07:05 13,5 C 95 % 1009,1 hPa 0,0 l/m 5,0 km/h (1 Bft) W-SW 238 0 min 0,000 mm 0,0 UV-I 117 W/m 12,7 C 13,5 C 6,4 km/h (2 Bft) 100,00 %
03.06.2016 07:06 13,5 C 95 % 1009,1 hPa 0,0 l/m 5,1 km/h (1 Bft) SW 233 0 min 0,000 mm 0,0 UV-I 120 W/m 12,7 C 13,5 C 9,7 km/h (2 Bft) 100,00 %
03.06.2016 07:07 13,5 C 95 % 1009,1 hPa 0,0 l/m 3,3 km/h (1 Bft) W-SW 244 0 min 0,000 mm 0,0 UV-I 122 W/m 12,7 C 13,5 C 6,4 km/h (2 Bft) 100,00 %
03.06.2016 07:08 13,6 C 95 % 1009,1 hPa 0,0 l/m 4,4 km/h (1 Bft) S-SW 213 0 min 0,000 mm 0,0 UV-I 125 W/m 12,8 C 13,6 C 6,4 km/h (2 Bft) 100,00 %
03.06.2016 07:09 13,6 C 95 % 1009,1 hPa 0,0 l/m 5,6 km/h (1 Bft) SW 231 0 min 0,000 mm 0,0 UV-I 125 W/m 12,8 C 13,6 C 8,0 km/h (2 Bft) 100,00 %
03.06.2016 07:10 13,6 C 95 % 1009,1 hPa 0,0 l/m 4,2 km/h (1 Bft) W-SW 239 0 min 0,000 mm 0,0 UV-I 127 W/m 12,8 C 13,6 C 6,4 km/h (2 Bft) 95,65 %
03.06.2016 07:11 13,6 C 95 % 1009,2 hPa 0,0 l/m 3,8 km/h (1 Bft) SW 223 0 min 0,000 mm 0,0 UV-I 129 W/m 12,8 C 13,6 C 4,8 km/h (1 Bft) 100,00 %
03.06.2016 07:12 13,6 C 95 % 1009,1 hPa 0,0 l/m 3,3 km/h (1 Bft) SW 225 0 min 0,000 mm 0,0 UV-I 131 W/m 12,8 C 13,6 C 4,8 km/h (1 Bft) 95,65 %
03.06.2016 07:13 13,7 C 95 % 1009,1 hPa 0,0 l/m 3,8 km/h (1 Bft) SW 226 0 min 0,000 mm 0,0 UV-I 133 W/m 12,9 C 13,7 C 4,8 km/h (1 Bft) 100,00 %
03.06.2016 07:14 13,7 C 95 % 1009,2 hPa 0,0 l/m 4,2 km/h (1 Bft) SW 226 0 min 0,000 mm 0,0 UV-I 132 W/m 12,9 C 13,7 C 6,4 km/h (2 Bft) 100,00 %
03.06.2016 07:15 13,7 C 95 % 1009,1 hPa 0,0 l/m 4,4 km/h (1 Bft) SW 215 0 min 0,000 mm 0,0 UV-I 130 W/m 12,9 C 13,7 C 6,4 km/h (2 Bft) 95,83 %
03.06.2016 07:16 13,7 C 95 % 1009,1 hPa 0,0 l/m 4,1 km/h (1 Bft) W-SW 246 0 min 0,000 mm 0,0 UV-I 127 W/m 12,9 C 13,7 C 4,8 km/h (1 Bft) 95,83 %
03.06.2016 07:17 13,8 C 95 % 1009,2 hPa 0,0 l/m 4,0 km/h (1 Bft) S-SW 212 0 min 0,000 mm 0,0 UV-I 127 W/m 13,0 C 13,8 C 4,8 km/h (1 Bft) 100,00 %
03.06.2016 07:18 13,8 C 94 % 1009,2 hPa 0,0 l/m 4,4 km/h (1 Bft) SW 219 0 min 0,000 mm 0,0 UV-I 130 W/m 12,9 C 13,8 C 6,4 km/h (2 Bft) 100,00 %
03.06.2016 07:19 13,8 C 95 % 1009,2 hPa 0,0 l/m 3,6 km/h (1 Bft) SW 219 0 min 0,000 mm 0,0 UV-I 136 W/m 13,0 C 13,8 C 4,8 km/h (1 Bft) 95,65 %
03.06.2016 07:20 13,8 C 95 % 1009,2 hPa 0,0 l/m 2,3 km/h (1 Bft) SW 219 0 min 0,000 mm 0,0 UV-I 140 W/m 13,0 C 13,8 C 4,8 km/h (1 Bft) 100,00 %
03.06.2016 07:21 13,9 C 95 % 1009,2 hPa 0,0 l/m 5,1 km/h (1 Bft) SW 232 0 min 0,000 mm 0,0 UV-I 142 W/m 13,1 C 13,9 C 8,0 km/h (2 Bft) 95,65 %
03.06.2016 07:22 13,9 C 95 % 1009,2 hPa 0,0 l/m 6,0 km/h (2 Bft) SW 229 0 min 0,000 mm 0,0 UV-I 145 W/m 13,1 C 13,9 C 8,0 km/h (2 Bft) 100,00 %
03.06.2016 07:23 13,9 C 94 % 1009,2 hPa 0,0 l/m 5,0 km/h (1 Bft) SW 228 0 min 0,000 mm 0,0 UV-I 146 W/m 12,9 C 13,9 C 6,4 km/h (2 Bft) 95,65 %
03.06.2016 07:24 13,9 C 95 % 1009,2 hPa 0,0 l/m 3,9 km/h (1 Bft) SW 223 0 min 0,000 mm 0,0 UV-I 147 W/m 13,1 C 13,9 C 6,4 km/h (2 Bft) 100,00 %
03.06.2016 07:25 14,0 C 94 % 1009,2 hPa 0,0 l/m 3,2 km/h (1 Bft) SW 233 0 min 0,000 mm 0,0 UV-I 150 W/m 13,0 C 14,0 C 4,8 km/h (1 Bft) 95,65 %
03.06.2016 07:26 14,0 C 94 % 1009,2 hPa 0,0 l/m 5,5 km/h (1 Bft) SW 220 0 min 0,000 mm 0,0 UV-I 153 W/m 13,0 C 14,0 C 6,4 km/h (2 Bft) 100,00 %
03.06.2016 07:27 14,0 C 94 % 1009,2 hPa 0,0 l/m 5,6 km/h (1 Bft) W-SW 253 0 min 0,000 mm 0,0 UV-I 155 W/m 13,0 C 14,0 C 6,4 km/h (2 Bft) 100,00 %
03.06.2016 07:28 14,1 C 94 % 1009,2 hPa 0,0 l/m 3,8 km/h (1 Bft) W-SW 253 0 min 0,000 mm 0,0 UV-I 155 W/m 13,1 C 14,1 C 4,8 km/h (1 Bft) 100,00 %
03.06.2016 07:29 14,1 C 94 % 1009,2 hPa 0,0 l/m 4,6 km/h (1 Bft) W-SW 246 0 min 0,000 mm 0,1 UV-I 155 W/m 13,1 C 14,1 C 6,4 km/h (2 Bft) 100,00 %
03.06.2016 07:30 14,1 C 94 % 1009,2 hPa 0,0 l/m 4,1 km/h (1 Bft) W-SW 243 0 min 0,000 mm 0,5 UV-I 156 W/m 13,1 C 14,1 C 6,4 km/h (2 Bft) 100,00 %
03.06.2016 07:31 14,1 C 94 % 1009,2 hPa 0,0 l/m 3,6 km/h (1 Bft) S-SW 192 0 min 0,000 mm 0,5 UV-I 156 W/m 13,1 C 14,1 C 6,4 km/h (2 Bft) 94,74 %
03.06.2016 07:32 14,2 C 94 % 1009,2 hPa 0,0 l/m 6,2 km/h (2 Bft) W-SW 241 0 min 0,000 mm 0,5 UV-I 155 W/m 13,2 C 14,2 C 11,3 km/h (2 Bft) 100,00 %
03.06.2016 07:33 14,2 C 94 % 1009,2 hPa 0,0 l/m 6,5 km/h (2 Bft) W-SW 245 0 min 0,000 mm 0,5 UV-I 155 W/m 13,2 C 14,2 C 8,0 km/h (2 Bft) 97,14 %
03.06.2016 07:34 14,2 C 94 % 1009,2 hPa 0,0 l/m 3,8 km/h (1 Bft) W 263 0 min 0,000 mm 0,5 UV-I 154 W/m 13,2 C 14,2 C 6,4 km/h (2 Bft) 100,00 %
03.06.2016 07:35 14,2 C 94 % 1009,2 hPa 0,0 l/m 4,2 km/h (1 Bft) SW 223 0 min 0,000 mm 0,5 UV-I 155 W/m 13,2 C 14,2 C 6,4 km/h (2 Bft) 100,00 %
03.06.2016 07:36 14,3 C 94 % 1009,2 hPa 0,0 l/m 5,0 km/h (1 Bft) SW 227 0 min 0,000 mm 0,5 UV-I 157 W/m 13,3 C 14,3 C 6,4 km/h (2 Bft) 95,83 %
03.06.2016 07:37 14,3 C 94 % 1009,2 hPa 0,0 l/m 4,9 km/h (1 Bft) W 271 0 min 0,000 mm 0,5 UV-I 161 W/m 13,3 C 14,3 C 6,4 km/h (2 Bft) 91,30 %
03.06.2016 07:38 14,3 C 94 % 1009,2 hPa 0,0 l/m 7,2 km/h (2 Bft) W-SW 247 0 min 0,000 mm 0,5 UV-I 167 W/m 13,3 C 13,8 C 9,7 km/h (2 Bft) 100,00 %
03.06.2016 07:39 14,3 C 94 % 1009,3 hPa 0,0 l/m 3,8 km/h (1 Bft) SW 215 0 min 0,000 mm 0,5 UV-I 170 W/m 13,3 C 14,3 C 6,4 km/h (2 Bft) 100,00 %
03.06.2016 07:40 14,3 C 93 % 1009,3 hPa 0,0 l/m 5,4 km/h (1 Bft) W-SW 246 0 min 0,000 mm 0,5 UV-I 171 W/m 13,2 C 14,3 C 6,4 km/h (2 Bft) 100,00 %
03.06.2016 07:41 14,4 C 93 % 1009,3 hPa 0,0 l/m 5,9 km/h (2 Bft) SW 234 0 min 0,000 mm 0,5 UV-I 171 W/m 13,3 C 14,4 C 8,0 km/h (2 Bft) 100,00 %
03.06.2016 07:42 14,4 C 93 % 1009,3 hPa 0,0 l/m 6,8 km/h (2 Bft) SW 227 0 min 0,000 mm 0,5 UV-I 168 W/m 13,3 C 14,2 C 8,0 km/h (2 Bft) 100,00 %
03.06.2016 07:43 14,4 C 93 % 1009,3 hPa 0,0 l/m 5,6 km/h (1 Bft) SW 224 0 min 0,000 mm 0,5 UV-I 163 W/m 13,3 C 14,4 C 9,7 km/h (2 Bft) 100,00 %
03.06.2016 07:44 14,4 C 93 % 1009,3 hPa 0,0 l/m 6,3 km/h (2 Bft) SW 221 0 min 0,000 mm 0,5 UV-I 158 W/m 13,3 C 14,4 C 8,0 km/h (2 Bft) 95,65 %
03.06.2016 07:45 14,4 C 93 % 1009,3 hPa 0,0 l/m 3,4 km/h (1 Bft) S-SW 209 0 min 0,000 mm 0,5 UV-I 154 W/m 13,3 C 14,4 C 4,8 km/h (1 Bft) 95,83 %
03.06.2016 07:46 14,4 C 93 % 1009,3 hPa 0,0 l/m 4,0 km/h (1 Bft) SW 224 0 min 0,000 mm 0,5 UV-I 147 W/m 13,3 C 14,4 C 4,8 km/h (1 Bft) 95,65 %
03.06.2016 07:47 14,4 C 93 % 1009,3 hPa 0,0 l/m 4,2 km/h (1 Bft) W-SW 242 0 min 0,000 mm 0,5 UV-I 143 W/m 13,3 C 14,4 C 6,4 km/h (2 Bft) 100,00 %
03.06.2016 07:48 14,4 C 93 % 1009,3 hPa 0,0 l/m 4,0 km/h (1 Bft) W-SW 242 0 min 0,000 mm 0,5 UV-I 141 W/m 13,3 C 14,4 C 4,8 km/h (1 Bft) 100,00 %
03.06.2016 07:49 14,4 C 93 % 1009,3 hPa 0,0 l/m 3,4 km/h (1 Bft) SW 216 0 min 0,000 mm 0,5 UV-I 142 W/m 13,3 C 14,4 C 4,8 km/h (1 Bft) 100,00 %
03.06.2016 07:50 14,5 C 93 % 1009,3 hPa 0,0 l/m 3,3 km/h (1 Bft) S-SW 213 0 min 0,000 mm 0,5 UV-I 145 W/m 13,4 C 14,5 C 4,8 km/h (1 Bft) 95,65 %
03.06.2016 07:51 14,6 C 93 % 1009,3 hPa 0,0 l/m 5,1 km/h (1 Bft) W 260 0 min 0,000 mm 0,5 UV-I 151 W/m 13,5 C 14,6 C 6,4 km/h (2 Bft) 96,30 %
03.06.2016 07:52 14,6 C 93 % 1009,3 hPa 0,0 l/m 5,7 km/h (1 Bft) SW 232 0 min 0,000 mm 0,5 UV-I 159 W/m 13,5 C 14,6 C 8,0 km/h (2 Bft) 95,65 %
03.06.2016 07:53 14,6 C 93 % 1009,3 hPa 0,0 l/m 5,3 km/h (1 Bft) SW 223 0 min 0,000 mm 0,6 UV-I 169 W/m 13,5 C 14,6 C 6,4 km/h (2 Bft) 100,00 %
03.06.2016 07:54 14,7 C 93 % 1009,3 hPa 0,0 l/m 4,5 km/h (1 Bft) SW 224 0 min 0,000 mm 0,6 UV-I 177 W/m 13,6 C 14,7 C 6,4 km/h (2 Bft) 92,59 %
03.06.2016 07:55 14,7 C 93 % 1009,3 hPa 0,0 l/m 5,4 km/h (1 Bft) S 184 0 min 0,000 mm 0,6 UV-I 185 W/m 13,6 C 14,7 C 6,4 km/h (2 Bft) 96,30 %
03.06.2016 07:56 14,7 C 92 % 1009,3 hPa 0,0 l/m 4,5 km/h (1 Bft) S-SW 192 0 min 0,000 mm 0,7 UV-I 188 W/m 13,4 C 14,7 C 6,4 km/h (2 Bft) 100,00 %
03.06.2016 07:57 14,6 C 92 % 1009,3 hPa 0,0 l/m 4,0 km/h (1 Bft) S 182 0 min 0,000 mm 0,7 UV-I 191 W/m 13,3 C 14,6 C 6,4 km/h (2 Bft) 91,67 %
03.06.2016 07:58 14,6 C 92 % 1009,3 hPa 0,0 l/m 5,0 km/h (1 Bft) S 186 0 min 0,000 mm 0,7 UV-I 195 W/m 13,3 C 14,6 C 8,0 km/h (2 Bft) 100,00 %
03.06.2016 07:59 14,6 C 92 % 1009,3 hPa 0,0 l/m 3,5 km/h (1 Bft) S-SW 208 0 min 0,000 mm 0,7 UV-I 199 W/m 13,3 C 14,6 C 4,8 km/h (1 Bft) 95,83 %
03.06.2016 08:00 14,6 C 92 % 1009,2 hPa 0,0 l/m 3,6 km/h (1 Bft) SW 236 0 min 0,000 mm 0,8 UV-I 203 W/m 13,3 C 14,6 C 6,4 km/h (2 Bft) 95,83 %
03.06.2016 08:01 14,6 C 92 % 1009,3 hPa 0,0 l/m 4,9 km/h (1 Bft) S-SW 205 0 min 0,077 mm 0,8 UV-I 212 W/m 13,3 C 14,6 C 6,4 km/h (2 Bft) 92,31 %
03.06.2016 08:02 14,6 C 92 % 1009,3 hPa 0,0 l/m 4,3 km/h (1 Bft) SW 224 0 min 0,000 mm 0,8 UV-I 221 W/m 13,3 C 14,6 C 6,4 km/h (2 Bft) 95,65 %
03.06.2016 08:03 14,7 C 92 % 1009,3 hPa 0,0 l/m 5,5 km/h (1 Bft) W-SW 237 0 min 0,000 mm 0,8 UV-I 228 W/m 13,4 C 14,7 C 8,0 km/h (2 Bft) 100,00 %
03.06.2016 08:04 14,7 C 93 % 1009,3 hPa 0,0 l/m 3,9 km/h (1 Bft) S-SW 209 0 min 0,000 mm 0,9 UV-I 233 W/m 13,6 C 14,7 C 8,0 km/h (2 Bft) 95,83 %
03.06.2016 08:05 14,8 C 92 % 1009,2 hPa 0,0 l/m 6,6 km/h (2 Bft) SW 235 0 min 0,000 mm 0,9 UV-I 236 W/m 13,5 C 14,7 C 8,0 km/h (2 Bft) 100,00 %
03.06.2016 08:06 14,8 C 92 % 1009,2 hPa 0,0 l/m 6,5 km/h (2 Bft) SW 227 0 min 0,000 mm 0,9 UV-I 234 W/m 13,5 C 14,8 C 8,0 km/h (2 Bft) 95,83 %
03.06.2016 08:07 14,8 C 92 % 1009,3 hPa 0,0 l/m 5,0 km/h (1 Bft) SW 230 0 min 0,000 mm 0,9 UV-I 230 W/m 13,5 C 14,8 C 8,0 km/h (2 Bft) 95,65 %
03.06.2016 08:08 14,9 C 92 % 1009,2 hPa 0,0 l/m 5,2 km/h (1 Bft) S-SW 205 0 min 0,000 mm 0,9 UV-I 229 W/m 13,6 C 14,9 C 8,0 km/h (2 Bft) 95,83 %
03.06.2016 08:09 14,9 C 92 % 1009,2 hPa 0,0 l/m 4,4 km/h (1 Bft) S 184 0 min 0,000 mm 0,9 UV-I 229 W/m 13,6 C 14,9 C 6,4 km/h (2 Bft) 95,65 %
03.06.2016 08:10 14,9 C 92 % 1009,2 hPa 0,0 l/m 4,4 km/h (1 Bft) W-SW 248 0 min 0,000 mm 0,9 UV-I 233 W/m 13,6 C 14,9 C 6,4 km/h (2 Bft) 100,00 %
03.06.2016 08:11 14,9 C 91 % 1009,2 hPa 0,0 l/m 5,1 km/h (1 Bft) SW 217 0 min 0,000 mm 0,9 UV-I 238 W/m 13,4 C 14,9 C 6,4 km/h (2 Bft) 92,31 %
03.06.2016 08:12 15,0 C 91 % 1009,2 hPa 0,0 l/m 4,8 km/h (1 Bft) SW 230 0 min 0,000 mm 1,0 UV-I 248 W/m 13,5 C 15,0 C 6,4 km/h (2 Bft) 100,00 %
03.06.2016 08:13 15,0 C 92 % 1009,2 hPa 0,0 l/m 4,7 km/h (1 Bft) S-SW 205 1 min 0,000 mm 1,0 UV-I 257 W/m 13,7 C 15,0 C 6,4 km/h (2 Bft) 96,15 %
03.06.2016 08:14 15,0 C 91 % 1009,2 hPa 0,0 l/m 4,9 km/h (1 Bft) SW 233 1 min 0,000 mm 1,0 UV-I 262 W/m 13,5 C 15,0 C 8,0 km/h (2 Bft) 100,00 %
03.06.2016 08:15 15,1 C 92 % 1009,2 hPa 0,0 l/m 5,1 km/h (1 Bft) S-SO 161 0 min 0,000 mm 1,0 UV-I 259 W/m 13,8 C 15,1 C 11,3 km/h (2 Bft) 95,65 %
03.06.2016 08:16 15,1 C 92 % 1009,2 hPa 0,0 l/m 5,9 km/h (2 Bft) S 169 0 min 0,000 mm 1,0 UV-I 256 W/m 13,8 C 15,1 C 8,0 km/h (2 Bft) 100,00 %
03.06.2016 08:17 15,2 C 92 % 1009,2 hPa 0,0 l/m 4,1 km/h (1 Bft) W-SW 245 0 min 0,000 mm 1,0 UV-I 254 W/m 13,9 C 15,2 C 8,0 km/h (2 Bft) 95,65 %
03.06.2016 08:18 15,2 C 91 % 1009,2 hPa 0,0 l/m 5,5 km/h (1 Bft) SW 229 0 min 0,000 mm 1,0 UV-I 253 W/m 13,7 C 15,2 C 9,7 km/h (2 Bft) 95,83 %
03.06.2016 08:19 15,2 C 92 % 1009,2 hPa 0,0 l/m 5,5 km/h (1 Bft) S-SW 200 0 min 0,000 mm 1,1 UV-I 257 W/m 13,9 C 15,2 C 8,0 km/h (2 Bft) 95,65 %
03.06.2016 08:20 15,3 C 91 % 1009,2 hPa 0,0 l/m 5,4 km/h (1 Bft) W-SW 240 0 min 0,000 mm 1,1 UV-I 264 W/m 13,8 C 15,3 C 9,7 km/h (2 Bft) 100,00 %
03.06.2016 08:21 15,3 C 91 % 1009,2 hPa 0,0 l/m 7,6 km/h (2 Bft) SW 229 1 min 0,000 mm 1,1 UV-I 274 W/m 13,8 C 14,6 C 9,7 km/h (2 Bft) 95,83 %
03.06.2016 08:22 15,4 C 91 % 1009,2 hPa 0,0 l/m 6,4 km/h (2 Bft) S-SW 203 1 min 0,000 mm 1,1 UV-I 288 W/m 13,9 C 15,4 C 9,7 km/h (2 Bft) 95,65 %
03.06.2016 08:23 15,4 C 91 % 1009,3 hPa 0,0 l/m 6,4 km/h (2 Bft) S-SW 201 1 min 0,000 mm 1,2 UV-I 301 W/m 13,9 C 15,4 C 9,7 km/h (2 Bft) 100,00 %
03.06.2016 08:24 15,4 C 90 % 1009,3 hPa 0,0 l/m 7,4 km/h (2 Bft) SW 232 1 min 0,000 mm 1,2 UV-I 329 W/m 13,8 C 14,8 C 9,7 km/h (2 Bft) 100,00 %
03.06.2016 08:25 15,5 C 91 % 1009,3 hPa 0,0 l/m 4,9 km/h (1 Bft) W-SW 243 1 min 0,000 mm 1,2 UV-I 333 W/m 14,0 C 15,5 C 9,7 km/h (2 Bft) 100,00 %
03.06.2016 08:26 15,6 C 91 % 1009,2 hPa 0,0 l/m 7,1 km/h (2 Bft) S-SW 203 1 min 0,000 mm 1,3 UV-I 346 W/m 14,1 C 15,2 C 9,7 km/h (2 Bft) 100,00 %
03.06.2016 08:27 15,6 C 90 % 1009,2 hPa 0,0 l/m 5,0 km/h (1 Bft) W-SW 244 1 min 0,000 mm 1,3 UV-I 352 W/m 14,0 C 15,6 C 8,0 km/h (2 Bft) 100,00 %
03.06.2016 08:28 15,7 C 91 % 1009,3 hPa 0,0 l/m 4,5 km/h (1 Bft) SW 236 1 min 0,000 mm 1,3 UV-I 322 W/m 14,2 C 15,7 C 6,4 km/h (2 Bft) 95,65 %
03.06.2016 08:29 15,7 C 89 % 1009,2 hPa 0,0 l/m 4,0 km/h (1 Bft) S-SW 193 1 min 0,000 mm 1,3 UV-I 319 W/m 13,9 C 15,7 C 6,4 km/h (2 Bft) 100,00 %
03.06.2016 08:30 15,7 C 89 % 1009,3 hPa 0,0 l/m 7,2 km/h (2 Bft) S 190 1 min 0,000 mm 1,3 UV-I 316 W/m 13,9 C 15,3 C 9,7 km/h (2 Bft) 100,00 %
03.06.2016 08:31 15,7 C 90 % 1009,2 hPa 0,0 l/m 6,4 km/h (2 Bft) SW 216 1 min 0,000 mm 1,3 UV-I 313 W/m 14,1 C 15,7 C 9,7 km/h (2 Bft) 95,83 %
03.06.2016 08:32 15,7 C 90 % 1009,2 hPa 0,0 l/m 5,5 km/h (1 Bft) W-SW 239 1 min 0,000 mm 1,3 UV-I 316 W/m 14,1 C 15,7 C 8,0 km/h (2 Bft) 100,00 %
03.06.2016 08:33 15,7 C 89 % 1009,2 hPa 0,0 l/m 6,0 km/h (2 Bft) S-SW 198 1 min 0,000 mm 1,3 UV-I 324 W/m 13,9 C 15,7 C 9,7 km/h (2 Bft) 100,00 %
03.06.2016 08:34 15,7 C 90 % 1009,3 hPa 0,0 l/m 7,3 km/h (2 Bft) SW 235 1 min 0,000 mm 1,3 UV-I 338 W/m 14,1 C 15,2 C 9,7 km/h (2 Bft) 100,00 %
03.06.2016 08:35 15,8 C 90 % 1009,3 hPa 0,0 l/m 7,3 km/h (2 Bft) S-SW 213 1 min 0,000 mm 1,4 UV-I 346 W/m 14,2 C 15,3 C 11,3 km/h (2 Bft) 100,00 %
03.06.2016 08:36 15,8 C 89 % 1009,2 hPa 0,0 l/m 5,0 km/h (1 Bft) SW 216 1 min 0,000 mm 1,4 UV-I 352 W/m 14,0 C 15,8 C 8,0 km/h (2 Bft) 100,00 %
03.06.2016 08:37 15,9 C 90 % 1009,2 hPa 0,0 l/m 5,0 km/h (1 Bft) S 178 1 min 0,000 mm 1,4 UV-I 363 W/m 14,3 C 15,9 C 8,0 km/h (2 Bft) 100,00 %
03.06.2016 08:38 15,9 C 90 % 1009,3 hPa 0,0 l/m 4,8 km/h (1 Bft) W-SW 238 1 min 0,000 mm 1,4 UV-I 356 W/m 14,3 C 15,9 C 6,4 km/h (2 Bft) 100,00 %
03.06.2016 08:39 15,9 C 90 % 1009,2 hPa 0,0 l/m 7,0 km/h (2 Bft) S-SW 207 1 min 0,000 mm 1,5 UV-I 358 W/m 14,3 C 15,6 C 9,7 km/h (2 Bft) 100,00 %
03.06.2016 08:40 15,9 C 89 % 1009,2 hPa 0,0 l/m 7,3 km/h (2 Bft) S 178 1 min 0,000 mm 1,5 UV-I 364 W/m 14,1 C 15,4 C 9,7 km/h (2 Bft) 100,00 %
03.06.2016 08:41 16,0 C 89 % 1009,2 hPa 0,0 l/m 5,6 km/h (1 Bft) SW 220 1 min 0,000 mm 1,5 UV-I 372 W/m 14,2 C 16,0 C 8,0 km/h (2 Bft) 100,00 %
03.06.2016 08:42 16,1 C 90 % 1009,2 hPa 0,0 l/m 6,2 km/h (2 Bft) S 190 1 min 0,000 mm 1,5 UV-I 382 W/m 14,5 C 16,1 C 8,0 km/h (2 Bft) 100,00 %
03.06.2016 08:43 16,1 C 89 % 1009,2 hPa 0,0 l/m 6,0 km/h (2 Bft) S 171 1 min 0,000 mm 1,5 UV-I 394 W/m 14,3 C 16,1 C 8,0 km/h (2 Bft) 100,00 %
03.06.2016 08:44 16,1 C 89 % 1009,2 hPa 0,0 l/m 5,6 km/h (1 Bft) SW 222 1 min 0,000 mm 1,5 UV-I 361 W/m 14,3 C 16,1 C 9,7 km/h (2 Bft) 95,83 %
03.06.2016 08:45 16,2 C 88 % 1009,2 hPa 0,0 l/m 6,2 km/h (2 Bft) SW 218 1 min 0,000 mm 1,5 UV-I 367 W/m 14,2 C 16,2 C 8,0 km/h (2 Bft) 100,00 %
03.06.2016 08:46 16,2 C 89 % 1009,2 hPa 0,0 l/m 7,1 km/h (2 Bft) W-SW 239 1 min 0,000 mm 1,6 UV-I 374 W/m 14,4 C 15,8 C 11,3 km/h (2 Bft) 100,00 %
03.06.2016 08:47 16,3 C 88 % 1009,2 hPa 0,0 l/m 5,8 km/h (2 Bft) S-SW 192 1 min 0,000 mm 1,7 UV-I 396 W/m 14,3 C 16,3 C 11,3 km/h (2 Bft) 100,00 %
03.06.2016 08:48 16,3 C 88 % 1009,2 hPa 0,0 l/m 6,6 km/h (2 Bft) W-SW 247 1 min 0,000 mm 1,7 UV-I 437 W/m 14,3 C 16,2 C 12,9 km/h (3 Bft) 100,00 %
03.06.2016 08:49 16,4 C 89 % 1009,3 hPa 0,0 l/m 11,0 km/h (2 Bft) SW 232 1 min 0,000 mm 1,8 UV-I 522 W/m 14,6 C 14,3 C 12,9 km/h (3 Bft) 95,65 %
03.06.2016 08:50 16,5 C 88 % 1009,3 hPa 0,0 l/m 8,2 km/h (2 Bft) S 169 1 min 0,000 mm 1,7 UV-I 482 W/m 14,5 C 15,6 C 11,3 km/h (2 Bft) 100,00 %
03.06.2016 08:51 16,6 C 87 % 1009,3 hPa 0,0 l/m 7,4 km/h (2 Bft) W-SW 248 1 min 0,000 mm 1,7 UV-I 394 W/m 14,4 C 16,1 C 9,7 km/h (2 Bft) 96,15 %
03.06.2016 08:52 16,6 C 87 % 1009,3 hPa 0,0 l/m 7,4 km/h (2 Bft) S-SW 201 1 min 0,000 mm 1,7 UV-I 395 W/m 14,4 C 16,1 C 11,3 km/h (2 Bft) 100,00 %
03.06.2016 08:53 16,6 C 87 % 1009,3 hPa 0,0 l/m 7,6 km/h (2 Bft) S-SW 205 1 min 0,000 mm 1,8 UV-I 413 W/m 14,4 C 16,0 C 11,3 km/h (2 Bft) 98,55 %
03.06.2016 08:54 16,5 C 87 % 1009,3 hPa 0,0 l/m 6,2 km/h (2 Bft) W-SW 250 1 min 0,000 mm 1,8 UV-I 420 W/m 14,3 C 16,5 C 9,7 km/h (2 Bft) 100,00 %
03.06.2016 08:55 16,6 C 86 % 1009,3 hPa 0,0 l/m 4,8 km/h (1 Bft) S 190 1 min 0,000 mm 1,8 UV-I 417 W/m 14,2 C 16,6 C 8,0 km/h (2 Bft) 100,00 %
03.06.2016 08:56 16,5 C 86 % 1009,3 hPa 0,0 l/m 3,5 km/h (1 Bft) SW 223 1 min 0,000 mm 1,8 UV-I 423 W/m 14,1 C 16,5 C 8,0 km/h (2 Bft) 100,00 %
03.06.2016 08:57 16,6 C 87 % 1009,2 hPa 0,0 l/m 7,5 km/h (2 Bft) SW 234 1 min 0,000 mm 1,9 UV-I 440 W/m 14,4 C 16,0 C 11,3 km/h (2 Bft) 100,00 %
03.06.2016 08:58 16,6 C 85 % 1009,2 hPa 0,0 l/m 7,6 km/h (2 Bft) S-SO 148 1 min 0,000 mm 1,9 UV-I 452 W/m 14,1 C 16,0 C 11,3 km/h (2 Bft) 100,00 %
03.06.2016 08:59 16,6 C 85 % 1009,2 hPa 0,0 l/m 8,0 km/h (2 Bft) W-SW 240 1 min 0,000 mm 1,9 UV-I 478 W/m 14,1 C 15,8 C 11,3 km/h (2 Bft) 100,00 %
03.06.2016 09:00 16,6 C 85 % 1009,3 hPa 0,0 l/m 8,7 km/h (2 Bft) SW 228 1 min 0,177 mm 1,9 UV-I 445 W/m 14,1 C 15,5 C 12,9 km/h (3 Bft) 95,65 %
03.06.2016 09:01 16,6 C 85 % 1009,3 hPa 0,0 l/m 11,8 km/h (2 Bft) SW 231 1 min 0,000 mm 1,9 UV-I 451 W/m 14,1 C 14,2 C 16,1 km/h (3 Bft) 100,00 %
03.06.2016 09:02 16,7 C 85 % 1009,3 hPa 0,0 l/m 9,5 km/h (2 Bft) W 262 1 min 0,000 mm 2,0 UV-I 445 W/m 14,2 C 15,2 C 16,1 km/h (3 Bft) 95,65 %
03.06.2016 09:03 16,7 C 84 % 1009,3 hPa 0,0 l/m 12,7 km/h (3 Bft) W-SW 247 1 min 0,000 mm 1,8 UV-I 401 W/m 14,0 C 14,0 C 16,1 km/h (3 Bft) 100,00 %
03.06.2016 09:04 16,7 C 85 % 1009,3 hPa 0,0 l/m 6,4 km/h (2 Bft) S 180 1 min 0,000 mm 1,8 UV-I 399 W/m 14,2 C 16,7 C 12,9 km/h (3 Bft) 100,00 %
03.06.2016 09:05 16,7 C 84 % 1009,3 hPa 0,0 l/m 6,5 km/h (2 Bft) S 186 1 min 0,000 mm 1,9 UV-I 406 W/m 14,0 C 16,7 C 9,7 km/h (2 Bft) 100,00 %
03.06.2016 09:06 16,7 C 84 % 1009,3 hPa 0,0 l/m 7,6 km/h (2 Bft) S 180 1 min 0,000 mm 1,9 UV-I 410 W/m 14,0 C 16,1 C 11,3 km/h (2 Bft) 100,00 %
03.06.2016 09:07 16,6 C 83 % 1009,3 hPa 0,0 l/m 9,9 km/h (2 Bft) W-SW 246 1 min 0,000 mm 1,9 UV-I 413 W/m 13,7 C 14,9 C 14,5 km/h (3 Bft) 100,00 %
03.06.2016 09:08 16,7 C 84 % 1009,3 hPa 0,0 l/m 8,2 km/h (2 Bft) W-SW 257 1 min 0,000 mm 1,9 UV-I 420 W/m 14,0 C 15,8 C 11,3 km/h (2 Bft) 100,00 %
03.06.2016 09:09 16,7 C 84 % 1009,3 hPa 0,0 l/m 6,9 km/h (2 Bft) W 271 1 min 0,000 mm 1,9 UV-I 421 W/m 14,0 C 16,4 C 11,3 km/h (2 Bft) 100,00 %
03.06.2016 09:10 16,7 C 84 % 1009,3 hPa 0,0 l/m 7,3 km/h (2 Bft) W-NW 301 1 min 0,000 mm 1,9 UV-I 418 W/m 14,0 C 16,2 C 11,3 km/h (2 Bft) 100,00 %
03.06.2016 09:11 16,7 C 84 % 1009,3 hPa 0,0 l/m 7,6 km/h (2 Bft) SW 225 1 min 0,000 mm 1,9 UV-I 408 W/m 14,0 C 16,1 C 14,5 km/h (3 Bft) 100,00 %
03.06.2016 09:12 16,7 C 84 % 1009,3 hPa 0,0 l/m 5,2 km/h (1 Bft) SW 215 1 min 0,000 mm 1,8 UV-I 385 W/m 14,0 C 16,7 C 8,0 km/h (2 Bft) 95,65 %
03.06.2016 09:13 16,7 C 84 % 1009,3 hPa 0,0 l/m 7,8 km/h (2 Bft) SW 235 1 min 0,000 mm 1,8 UV-I 373 W/m 14,0 C 16,0 C 12,9 km/h (3 Bft) 100,00 %
03.06.2016 09:14 16,8 C 84 % 1009,2 hPa 0,0 l/m 6,5 km/h (2 Bft) SW 229 1 min 0,000 mm 1,8 UV-I 370 W/m 14,1 C 16,8 C 8,0 km/h (2 Bft) 100,00 %
03.06.2016 09:15 16,8 C 84 % 1009,2 hPa 0,0 l/m 8,2 km/h (2 Bft) SW 228 1 min 0,000 mm 1,8 UV-I 368 W/m 14,1 C 15,9 C 12,9 km/h (3 Bft) 100,00 %
03.06.2016 09:16 16,9 C 85 % 1009,2 hPa 0,0 l/m 8,4 km/h (2 Bft) SW 231 1 min 0,000 mm 1,9 UV-I 371 W/m 14,4 C 15,9 C 12,9 km/h (3 Bft) 95,65 %
03.06.2016 09:17 16,9 C 84 % 1009,2 hPa 0,0 l/m 6,8 km/h (2 Bft) W-SW 240 1 min 0,000 mm 1,9 UV-I 381 W/m 14,2 C 16,7 C 11,3 km/h (2 Bft) 100,00 %
03.06.2016 09:18 16,9 C 83 % 1009,2 hPa 0,0 l/m 6,8 km/h (2 Bft) W-SW 255 1 min 0,000 mm 2,0 UV-I 392 W/m 14,0 C 16,7 C 9,7 km/h (2 Bft) 95,83 %
03.06.2016 09:19 17,0 C 84 % 1009,2 hPa 0,0 l/m 7,5 km/h (2 Bft) S-SW 200 1 min 0,000 mm 2,0 UV-I 387 W/m 14,3 C 16,4 C 11,3 km/h (2 Bft) 100,00 %
03.06.2016 09:20 17,0 C 83 % 1009,3 hPa 0,0 l/m 8,1 km/h (2 Bft) W-SW 244 1 min 0,000 mm 1,9 UV-I 375 W/m 14,1 C 16,2 C 14,5 km/h (3 Bft) 100,00 %
03.06.2016 09:21 17,0 C 83 % 1009,3 hPa 0,0 l/m 4,2 km/h (1 Bft) W-SW 243 1 min 0,000 mm 1,9 UV-I 360 W/m 14,1 C 17,0 C 8,0 km/h (2 Bft) 100,00 %
03.06.2016 09:22 16,9 C 83 % 1009,3 hPa 0,0 l/m 7,0 km/h (2 Bft) W-SW 254 1 min 0,000 mm 1,8 UV-I 349 W/m 14,0 C 16,6 C 9,7 km/h (2 Bft) 100,00 %
03.06.2016 09:25 16,8 C 82 % 1009,3 hPa 0,0 l/m 6,4 km/h (2 Bft) W-SW 247 0 min 0,000 mm 1,7 UV-I 335 W/m 13,7 C 16,8 C 14,5 km/h (3 Bft) 100,00 %
03.06.2016 09:29 16,9 C 84 % 1009,3 hPa 0,0 l/m 2,6 km/h (1 Bft) W 262 0 min 0,000 mm 1,8 UV-I 330 W/m 14,2 C 16,9 C 4,8 km/h (1 Bft) 99,39 %
03.06.2016 09:30 16,9 C 83 % 1009,3 hPa 0,0 l/m 3,7 km/h (1 Bft) W-SW 243 0 min 0,000 mm 1,9 UV-I 327 W/m 14,0 C 16,9 C 6,4 km/h (2 Bft) 95,83 %
03.06.2016 09:31 17,0 C 85 % 1009,3 hPa 0,0 l/m 7,7 km/h (2 Bft) W-SW 248 0 min 0,000 mm 1,9 UV-I 327 W/m 14,5 C 16,3 C 11,3 km/h (2 Bft) 95,65 %
03.06.2016 09:32 17,0 C 83 % 1009,3 hPa 0,0 l/m 4,2 km/h (1 Bft) SW 234 0 min 0,000 mm 1,9 UV-I 327 W/m 14,1 C 17,0 C 6,4 km/h (2 Bft) 100,00 %
03.06.2016 09:35 17,1 C 84 % 1009,3 hPa 0,0 l/m 6,4 km/h (2 Bft) W-SW 247 0 min 0,000 mm 2,0 UV-I 335 W/m 14,4 C 17,1 C 11,3 km/h (2 Bft) 99,12 %
03.06.2016 09:39 17,2 C 83 % 1009,3 hPa 0,0 l/m 6,8 km/h (2 Bft) W 269 0 min 0,000 mm 2,1 UV-I 349 W/m 14,3 C 17,0 C 9,7 km/h (2 Bft) 98,80 %
03.06.2016 09:40 17,1 C 82 % 1009,3 hPa 0,0 l/m 11,7 km/h (2 Bft) W 267 0 min 0,000 mm 2,2 UV-I 360 W/m 14,0 C 14,8 C 14,5 km/h (3 Bft) 98,62 %
03.06.2016 09:41 17,1 C 83 % 1009,3 hPa 0,0 l/m 9,7 km/h (2 Bft) W-SW 244 0 min 0,000 mm 2,2 UV-I 361 W/m 14,2 C 15,6 C 14,5 km/h (3 Bft) 100,00 %
03.06.2016 09:42 17,1 C 84 % 1009,3 hPa 0,0 l/m 9,5 km/h (2 Bft) W-SW 238 1 min 0,000 mm 2,3 UV-I 382 W/m 14,4 C 15,6 C 12,9 km/h (3 Bft) 100,00 %
03.06.2016 09:43 17,1 C 83 % 1009,3 hPa 0,0 l/m 9,7 km/h (2 Bft) W 266 1 min 0,000 mm 2,4 UV-I 387 W/m 14,2 C 15,6 C 12,9 km/h (3 Bft) 95,83 %
03.06.2016 09:44 17,1 C 82 % 1009,3 hPa 0,0 l/m 8,7 km/h (2 Bft) W-SW 257 1 min 0,000 mm 2,4 UV-I 379 W/m 14,0 C 16,0 C 11,3 km/h (2 Bft) 100,00 %
03.06.2016 09:45 17,1 C 82 % 1009,3 hPa 0,0 l/m 9,7 km/h (2 Bft) W 266 1 min 0,000 mm 2,5 UV-I 414 W/m 14,0 C 15,6 C 12,9 km/h (3 Bft) 96,15 %
03.06.2016 09:46 17,0 C 82 % 1009,3 hPa 0,0 l/m 7,4 km/h (2 Bft) W-SW 243 1 min 0,000 mm 2,7 UV-I 488 W/m 13,9 C 16,5 C 14,5 km/h (3 Bft) 100,00 %
03.06.2016 09:47 17,1 C 83 % 1009,3 hPa 0,0 l/m 6,9 km/h (2 Bft) W-SW 254 1 min 0,000 mm 3,0 UV-I 504 W/m 14,2 C 16,9 C 9,7 km/h (2 Bft) 95,65 %
03.06.2016 09:48 17,1 C 83 % 1009,3 hPa 0,0 l/m 7,2 km/h (2 Bft) W 267 1 min 0,000 mm 3,5 UV-I 504 W/m 14,2 C 16,7 C 12,9 km/h (3 Bft) 95,83 %
03.06.2016 09:49 17,2 C 84 % 1009,3 hPa 0,0 l/m 5,5 km/h (1 Bft) W 261 1 min 0,000 mm 2,9 UV-I 504 W/m 14,5 C 17,2 C 8,0 km/h (2 Bft) 100,00 %
03.06.2016 09:50 17,2 C 82 % 1009,3 hPa 0,0 l/m 8,0 km/h (2 Bft) W-SW 243 1 min 0,000 mm 3,2 UV-I 504 W/m 14,1 C 16,4 C 14,5 km/h (3 Bft) 95,83 %
03.06.2016 09:51 17,3 C 84 % 1009,3 hPa 0,0 l/m 7,8 km/h (2 Bft) W-SW 238 1 min 0,000 mm 3,2 UV-I 504 W/m 14,6 C 16,6 C 11,3 km/h (2 Bft) 95,65 %
03.06.2016 09:52 17,3 C 83 % 1009,3 hPa 0,0 l/m 6,2 km/h (2 Bft) W-SW 242 1 min 0,000 mm 3,1 UV-I 552 W/m 14,4 C 17,3 C 11,3 km/h (2 Bft) 95,83 %
03.06.2016 09:53 17,3 C 83 % 1009,3 hPa 0,0 l/m 5,9 km/h (2 Bft) W-SW 258 1 min 0,000 mm 3,8 UV-I 561 W/m 14,4 C 17,3 C 9,7 km/h (2 Bft) 100,00 %
03.06.2016 09:54 17,4 C 82 % 1009,3 hPa 0,0 l/m 9,3 km/h (2 Bft) W-SW 241 1 min 0,000 mm 3,9 UV-I 647 W/m 14,3 C 16,1 C 14,5 km/h (3 Bft) 95,83 %
03.06.2016 09:55 17,5 C 83 % 1009,3 hPa 0,0 l/m 11,0 km/h (2 Bft) W 263 1 min 0,000 mm 3,8 UV-I 889 W/m 14,6 C 15,5 C 17,7 km/h (3 Bft) 92,31 %
03.06.2016 09:56 17,6 C 83 % 1009,2 hPa 0,0 l/m 6,8 km/h (2 Bft) W-SW 253 1 min 0,000 mm 4,0 UV-I 886 W/m 14,7 C 17,4 C 12,9 km/h (3 Bft) 100,00 %
03.06.2016 09:57 17,7 C 82 % 1009,2 hPa 0,0 l/m 10,7 km/h (2 Bft) W-SW 258 1 min 0,000 mm 4,0 UV-I 900 W/m 14,6 C 15,8 C 14,5 km/h (3 Bft) 86,96 %
03.06.2016 09:58 17,8 C 84 % 1009,2 hPa 0,0 l/m 5,2 km/h (1 Bft) SW 236 1 min 0,000 mm 4,0 UV-I 905 W/m 15,1 C 17,8 C 6,4 km/h (2 Bft) 100,00 %
03.06.2016 09:59 17,9 C 82 % 1009,2 hPa 0,0 l/m 7,5 km/h (2 Bft) S 172 1 min 0,000 mm 4,0 UV-I 774 W/m 14,8 C 17,4 C 11,3 km/h (2 Bft) 95,65 %
03.06.2016 10:00 17,9 C 79 % 1009,2 hPa 0,0 l/m 13,3 km/h (3 Bft) S-SW 212 1 min 0,254 mm 3,5 UV-I 838 W/m 14,2 C 15,2 C 17,7 km/h (3 Bft) 100,00 %
03.06.2016 10:01 17,9 C 80 % 1009,2 hPa 0,0 l/m 12,8 km/h (3 Bft) W-SW 243 1 min 0,000 mm 2,7 UV-I 631 W/m 14,4 C 15,4 C 17,7 km/h (3 Bft) 85,71 %
03.06.2016 10:02 17,9 C 80 % 1009,2 hPa 0,0 l/m 10,6 km/h (2 Bft) S-SW 209 1 min 0,000 mm 3,0 UV-I 404 W/m 14,4 C 16,1 C 14,5 km/h (3 Bft) 100,00 %
03.06.2016 10:03 17,9 C 79 % 1009,2 hPa 0,0 l/m 6,3 km/h (2 Bft) S-SW 205 1 min 0,000 mm 3,1 UV-I 404 W/m 14,2 C 17,9 C 14,5 km/h (3 Bft) 95,83 %
03.06.2016 10:04 17,8 C 80 % 1009,2 hPa 0,0 l/m 7,1 km/h (2 Bft) W-SW 238 1 min 0,000 mm 3,1 UV-I 404 W/m 14,3 C 17,5 C 11,3 km/h (2 Bft) 100,00 %
03.06.2016 10:05 17,8 C 81 % 1009,2 hPa 0,0 l/m 5,3 km/h (1 Bft) S-SW 192 1 min 0,000 mm 2,9 UV-I 411 W/m 14,5 C 17,8 C 8,0 km/h (2 Bft) 92,59 %
03.06.2016 10:06 17,8 C 80 % 1009,2 hPa 0,0 l/m 7,2 km/h (2 Bft) W-SW 257 1 min 0,000 mm 2,7 UV-I 450 W/m 14,3 C 17,4 C 11,3 km/h (2 Bft) 91,30 %
03.06.2016 10:07 17,8 C 82 % 1009,1 hPa 0,0 l/m 4,4 km/h (1 Bft) W-NW 287 1 min 0,000 mm 3,0 UV-I 454 W/m 14,7 C 17,8 C 6,4 km/h (2 Bft) 100,00 %
03.06.2016 10:08 17,9 C 81 % 1009,1 hPa 0,0 l/m 2,6 km/h (1 Bft) W-SW 255 0 min 0,000 mm 2,3 UV-I 391 W/m 14,6 C 17,9 C 4,8 km/h (1 Bft) 91,30 %
03.06.2016 10:09 17,9 C 81 % 1009,1 hPa 0,0 l/m 4,5 km/h (1 Bft) S-SW 203 0 min 0,000 mm 2,3 UV-I 338 W/m 14,6 C 17,9 C 8,0 km/h (2 Bft) 100,00 %
03.06.2016 10:10 17,9 C 81 % 1009,1 hPa 0,0 l/m 10,1 km/h (2 Bft) W-SW 252 0 min 0,000 mm 2,2 UV-I 332 W/m 14,6 C 16,3 C 16,1 km/h (3 Bft) 95,65 %
03.06.2016 10:11 17,9 C 80 % 1009,1 hPa 0,0 l/m 15,3 km/h (3 Bft) W 259 0 min 0,000 mm 2,3 UV-I 400 W/m 14,4 C 14,6 C 22,5 km/h (4 Bft) 100,00 %
03.06.2016 10:12 17,8 C 80 % 1009,1 hPa 0,0 l/m 12,3 km/h (3 Bft) SW 235 0 min 0,000 mm 2,2 UV-I 306 W/m 14,3 C 15,4 C 16,1 km/h (3 Bft) 95,65 %
03.06.2016 10:13 17,7 C 79 % 1009,1 hPa 0,0 l/m 12,2 km/h (2 Bft) S-SW 209 0 min 0,000 mm 2,1 UV-I 271 W/m 14,0 C 15,3 C 17,7 km/h (3 Bft) 91,67 %
03.06.2016 10:14 17,7 C 80 % 1009,1 hPa 0,0 l/m 10,9 km/h (2 Bft) W-SW 254 0 min 0,000 mm 2,1 UV-I 263 W/m 14,2 C 15,8 C 14,5 km/h (3 Bft) 100,00 %
03.06.2016 10:15 17,6 C 81 % 1009,1 hPa 0,0 l/m 11,2 km/h (2 Bft) SW 229 0 min 0,000 mm 2,2 UV-I 261 W/m 14,3 C 15,5 C 14,5 km/h (3 Bft) 95,83 %
03.06.2016 10:16 17,5 C 80 % 1009,1 hPa 0,0 l/m 14,9 km/h (3 Bft) W-SW 248 0 min 0,000 mm 2,3 UV-I 265 W/m 14,0 C 14,2 C 20,9 km/h (4 Bft) 100,00 %
03.06.2016 10:17 17,4 C 80 % 1009,1 hPa 0,0 l/m 13,2 km/h (3 Bft) W-SW 251 0 min 0,000 mm 2,4 UV-I 287 W/m 13,9 C 14,6 C 16,1 km/h (3 Bft) 95,83 %
03.06.2016 10:18 17,4 C 81 % 1009,1 hPa 0,0 l/m 9,0 km/h (2 Bft) W-SW 238 1 min 0,000 mm 3,9 UV-I 473 W/m 14,1 C 16,2 C 16,1 km/h (3 Bft) 100,00 %
03.06.2016 10:19 17,6 C 81 % 1009,0 hPa 0,0 l/m 11,2 km/h (2 Bft) W-SW 239 1 min 0,000 mm 3,7 UV-I 846 W/m 14,3 C 15,5 C 14,5 km/h (3 Bft) 100,00 %
03.06.2016 10:20 17,7 C 82 % 1009,1 hPa 0,0 l/m 9,0 km/h (2 Bft) SW 221 1 min 0,000 mm 3,1 UV-I 846 W/m 14,6 C 16,5 C 12,9 km/h (3 Bft) 100,00 %
03.06.2016 10:21 17,8 C 81 % 1009,1 hPa 0,0 l/m 9,0 km/h (2 Bft) SW 223 1 min 0,000 mm 3,1 UV-I 846 W/m 14,5 C 16,6 C 12,9 km/h (3 Bft) 95,83 %
03.06.2016 10:22 17,8 C 82 % 1009,1 hPa 0,0 l/m 7,6 km/h (2 Bft) S-SW 201 1 min 0,000 mm 4,1 UV-I 847 W/m 14,7 C 17,2 C 9,7 km/h (2 Bft) 100,00 %
03.06.2016 10:23 18,0 C 82 % 1009,0 hPa 0,0 l/m 6,0 km/h (2 Bft) SW 215 1 min 0,000 mm 4,2 UV-I 841 W/m 14,9 C 18,0 C 9,7 km/h (2 Bft) 96,30 %
03.06.2016 10:24 18,2 C 81 % 1009,0 hPa 0,0 l/m 13,7 km/h (3 Bft) SW 234 1 min 0,000 mm 4,0 UV-I 766 W/m 14,9 C 15,4 C 20,9 km/h (4 Bft) 95,65 %
03.06.2016 10:25 18,3 C 80 % 1009,0 hPa 0,0 l/m 12,7 km/h (3 Bft) SW 226 1 min 0,000 mm 3,8 UV-I 738 W/m 14,8 C 15,9 C 20,9 km/h (4 Bft) 100,00 %
03.06.2016 10:26 18,3 C 79 % 1009,0 hPa 0,0 l/m 10,9 km/h (2 Bft) W 269 1 min 0,000 mm 3,6 UV-I 735 W/m 14,6 C 16,4 C 16,1 km/h (3 Bft) 100,00 %
03.06.2016 10:27 18,4 C 78 % 1009,0 hPa 0,0 l/m 9,3 km/h (2 Bft) W-SW 246 1 min 0,000 mm 3,2 UV-I 599 W/m 14,5 C 17,1 C 16,1 km/h (3 Bft) 100,00 %
03.06.2016 10:28 18,4 C 78 % 1009,0 hPa 0,0 l/m 10,5 km/h (2 Bft) W-SW 248 1 min 0,000 mm 3,4 UV-I 563 W/m 14,5 C 16,7 C 16,1 km/h (3 Bft) 100,00 %
03.06.2016 10:29 18,4 C 78 % 1009,0 hPa 0,0 l/m 9,9 km/h (2 Bft) W-SW 257 1 min 0,000 mm 2,9 UV-I 563 W/m 14,5 C 16,9 C 12,9 km/h (3 Bft) 100,00 %
03.06.2016 10:30 18,4 C 79 % 1009,0 hPa 0,0 l/m 9,7 km/h (2 Bft) W-SW 250 1 min 0,000 mm 2,4 UV-I 563 W/m 14,7 C 17,0 C 12,9 km/h (3 Bft) 95,83 %
03.06.2016 10:31 18,3 C 79 % 1009,0 hPa 0,0 l/m 10,8 km/h (2 Bft) S-SO 167 0 min 0,000 mm 1,8 UV-I 406 W/m 14,6 C 16,5 C 17,7 km/h (3 Bft) 100,00 %
03.06.2016 10:32 18,2 C 77 % 1009,0 hPa 0,0 l/m 10,8 km/h (2 Bft) W-SW 250 0 min 0,000 mm 1,9 UV-I 262 W/m 14,1 C 16,4 C 14,5 km/h (3 Bft) 100,00 %
03.06.2016 10:33 18,1 C 79 % 1009,0 hPa 0,0 l/m 12,0 km/h (2 Bft) SW 214 0 min 0,000 mm 2,0 UV-I 278 W/m 14,4 C 15,8 C 16,1 km/h (3 Bft) 100,00 %
03.06.2016 10:34 17,9 C 80 % 1009,0 hPa 0,0 l/m 9,1 km/h (2 Bft) W-SW 248 0 min 0,000 mm 2,2 UV-I 311 W/m 14,4 C 16,7 C 14,5 km/h (3 Bft) 100,00 %
03.06.2016 10:35 17,9 C 81 % 1009,0 hPa 0,0 l/m 9,9 km/h (2 Bft) S 188 0 min 0,000 mm 2,4 UV-I 364 W/m 14,6 C 16,4 C 17,7 km/h (3 Bft) 100,00 %
03.06.2016 10:36 17,8 C 82 % 1009,0 hPa 0,0 l/m 8,6 km/h (2 Bft) W 274 1 min 0,000 mm 2,7 UV-I 429 W/m 14,7 C 16,8 C 14,5 km/h (3 Bft) 100,00 %
03.06.2016 10:37 17,8 C 81 % 1009,0 hPa 0,0 l/m 10,5 km/h (2 Bft) W 273 0 min 0,000 mm 2,8 UV-I 423 W/m 14,5 C 16,0 C 12,9 km/h (3 Bft) 100,00 %
03.06.2016 10:38 17,8 C 80 % 1009,0 hPa 0,0 l/m 12,1 km/h (2 Bft) W-SW 251 0 min 0,000 mm 2,9 UV-I 421 W/m 14,3 C 15,5 C 17,7 km/h (3 Bft) 100,00 %
03.06.2016 10:39 17,8 C 80 % 1009,0 hPa 0,0 l/m 14,2 km/h (3 Bft) SW 236 1 min 0,000 mm 3,0 UV-I 428 W/m 14,3 C 14,8 C 19,3 km/h (3 Bft) 100,00 %
03.06.2016 10:40 17,7 C 80 % 1009,0 hPa 0,0 l/m 12,7 km/h (3 Bft) SW 223 1 min 0,000 mm 3,2 UV-I 460 W/m 14,2 C 15,2 C 19,3 km/h (3 Bft) 100,00 %
03.06.2016 10:41 17,6 C 80 % 1009,0 hPa 0,0 l/m 13,5 km/h (3 Bft) SW 235 1 min 0,000 mm 3,5 UV-I 524 W/m 14,1 C 14,8 C 20,9 km/h (4 Bft) 100,00 %
03.06.2016 10:42 17,6 C 82 % 1009,0 hPa 0,0 l/m 12,8 km/h (3 Bft) W-SW 253 1 min 0,000 mm 3,6 UV-I 582 W/m 14,5 C 15,0 C 17,7 km/h (3 Bft) 100,00 %
03.06.2016 10:43 17,5 C 85 % 1009,0 hPa 0,0 l/m 10,7 km/h (2 Bft) W 259 1 min 0,000 mm 3,9 UV-I 609 W/m 14,9 C 15,6 C 12,9 km/h (3 Bft) 91,67 %
03.06.2016 10:44 17,6 C 84 % 1009,0 hPa 0,0 l/m 9,4 km/h (2 Bft) W-SW 252 1 min 0,000 mm 4,0 UV-I 620 W/m 14,9 C 16,2 C 14,5 km/h (3 Bft) 95,65 %
03.06.2016 10:45 17,6 C 84 % 1009,0 hPa 0,0 l/m 12,5 km/h (3 Bft) W-SW 250 1 min 0,000 mm 3,9 UV-I 617 W/m 14,9 C 15,1 C 16,1 km/h (3 Bft) 100,00 %
03.06.2016 10:46 17,7 C 84 % 1009,0 hPa 0,0 l/m 10,5 km/h (2 Bft) SW 232 1 min 0,000 mm 4,0 UV-I 622 W/m 15,0 C 15,9 C 14,5 km/h (3 Bft) 96,30 %
03.06.2016 10:47 17,7 C 84 % 1009,0 hPa 0,0 l/m 9,5 km/h (2 Bft) S-SW 213 1 min 0,000 mm 4,3 UV-I 640 W/m 15,0 C 16,3 C 12,9 km/h (3 Bft) 95,65 %
03.06.2016 10:48 17,7 C 83 % 1009,0 hPa 0,0 l/m 9,9 km/h (2 Bft) SW 232 1 min 0,000 mm 4,4 UV-I 640 W/m 14,8 C 16,1 C 12,9 km/h (3 Bft) 91,67 %
03.06.2016 10:49 17,7 C 81 % 1009,0 hPa 0,0 l/m 9,5 km/h (2 Bft) S-SW 201 1 min 0,000 mm 3,6 UV-I 586 W/m 14,4 C 16,3 C 12,9 km/h (3 Bft) 100,00 %
03.06.2016 10:50 17,7 C 82 % 1009,0 hPa 0,0 l/m 3,8 km/h (1 Bft) W-NW 287 1 min 0,000 mm 3,4 UV-I 547 W/m 14,6 C 17,7 C 8,0 km/h (2 Bft) 95,65 %
03.06.2016 10:51 17,7 C 81 % 1009,0 hPa 0,0 l/m 3,3 km/h (1 Bft) W 259 1 min 0,000 mm 3,4 UV-I 466 W/m 14,4 C 17,7 C 9,7 km/h (2 Bft) 100,00 %
03.06.2016 10:52 17,7 C 81 % 1009,0 hPa 0,0 l/m 11,2 km/h (2 Bft) W-SW 254 1 min 0,000 mm 3,4 UV-I 464 W/m 14,4 C 15,7 C 14,5 km/h (3 Bft) 100,00 %
03.06.2016 10:53 17,8 C 82 % 1009,0 hPa 0,0 l/m 11,8 km/h (2 Bft) SW 217 1 min 0,000 mm 3,9 UV-I 464 W/m 14,7 C 15,6 C 16,1 km/h (3 Bft) 100,00 %
03.06.2016 10:54 17,8 C 81 % 1009,0 hPa 0,0 l/m 9,0 km/h (2 Bft) W-SW 246 1 min 0,000 mm 3,5 UV-I 464 W/m 14,5 C 16,6 C 14,5 km/h (3 Bft) 95,65 %
03.06.2016 10:55 17,8 C 81 % 1009,0 hPa 0,0 l/m 6,1 km/h (2 Bft) W-SW 255 1 min 0,000 mm 3,6 UV-I 464 W/m 14,5 C 17,8 C 11,3 km/h (2 Bft) 100,00 %
03.06.2016 10:56 17,9 C 82 % 1009,0 hPa 0,0 l/m 7,9 km/h (2 Bft) SW 231 1 min 0,000 mm 3,5 UV-I 444 W/m 14,8 C 17,2 C 12,9 km/h (3 Bft) 95,65 %
03.06.2016 10:57 17,9 C 82 % 1009,0 hPa 0,0 l/m 13,1 km/h (3 Bft) SW 220 0 min 0,000 mm 3,4 UV-I 440 W/m 14,8 C 15,3 C 16,1 km/h (3 Bft) 100,00 %
03.06.2016 10:58 18,0 C 81 % 1009,0 hPa 0,0 l/m 14,5 km/h (3 Bft) SW 225 1 min 0,000 mm 3,5 UV-I 473 W/m 14,7 C 15,0 C 19,3 km/h (3 Bft) 100,00 %
03.06.2016 10:59 18,0 C 80 % 1009,0 hPa 0,0 l/m 12,2 km/h (2 Bft) S-SW 208 1 min 0,000 mm 3,9 UV-I 515 W/m 14,5 C 15,7 C 16,1 km/h (3 Bft) 100,00 %
03.06.2016 11:00 18,1 C 82 % 1009,0 hPa 0,0 l/m 9,9 km/h (2 Bft) S-SW 210 1 min 0,000 mm 4,6 UV-I 515 W/m 15,0 C 16,6 C 14,5 km/h (3 Bft) 100,00 %
03.06.2016 11:01 18,1 C 79 % 1009,0 hPa 0,0 l/m 11,7 km/h (2 Bft) SW 217 1 min 0,305 mm 4,5 UV-I 515 W/m 14,4 C 15,9 C 17,7 km/h (3 Bft) 95,83 %
03.06.2016 11:02 18,1 C 79 % 1009,0 hPa 0,0 l/m 9,8 km/h (2 Bft) S-SW 211 1 min 0,000 mm 4,2 UV-I 515 W/m 14,4 C 16,6 C 12,9 km/h (3 Bft) 95,65 %
03.06.2016 11:03 18,1 C 79 % 1008,9 hPa 0,0 l/m 10,9 km/h (2 Bft) SW 220 1 min 0,000 mm 4,1 UV-I 618 W/m 14,4 C 16,2 C 16,1 km/h (3 Bft) 100,00 %
03.06.2016 11:04 18,1 C 79 % 1009,0 hPa 0,0 l/m 6,9 km/h (2 Bft) W 273 1 min 0,000 mm 4,1 UV-I 624 W/m 14,4 C 17,9 C 11,3 km/h (2 Bft) 100,00 %
03.06.2016 11:05 18,2 C 80 % 1009,0 hPa 0,0 l/m 7,7 km/h (2 Bft) W-SW 245 1 min 0,000 mm 4,8 UV-I 624 W/m 14,7 C 17,6 C 14,5 km/h (3 Bft) 100,00 %
03.06.2016 11:06 18,4 C 81 % 1008,9 hPa 0,0 l/m 13,3 km/h (3 Bft) SW 225 1 min 0,000 mm 3,9 UV-I 624 W/m 15,1 C 15,8 C 16,1 km/h (3 Bft) 100,00 %
03.06.2016 11:07 18,4 C 78 % 1009,0 hPa 0,0 l/m 8,9 km/h (2 Bft) SW 232 1 min 0,000 mm 3,2 UV-I 511 W/m 14,5 C 17,3 C 14,5 km/h (3 Bft) 100,00 %
03.06.2016 11:08 18,4 C 80 % 1008,9 hPa 0,0 l/m 8,0 km/h (2 Bft) W-SW 248 0 min 0,000 mm 2,9 UV-I 419 W/m 14,9 C 17,7 C 16,1 km/h (3 Bft) 100,00 %
03.06.2016 11:09 18,3 C 79 % 1009,0 hPa 0,0 l/m 11,0 km/h (2 Bft) W 263 0 min 0,000 mm 2,6 UV-I 368 W/m 14,6 C 16,4 C 17,7 km/h (3 Bft) 100,00 %
03.06.2016 11:10 18,3 C 80 % 1009,0 hPa 0,0 l/m 8,4 km/h (2 Bft) W 261 0 min 0,000 mm 2,7 UV-I 357 W/m 14,8 C 17,4 C 12,9 km/h (3 Bft) 95,83 %
03.06.2016 11:11 18,2 C 78 % 1009,0 hPa 0,0 l/m 11,1 km/h (2 Bft) S-SO 157 0 min 0,000 mm 3,0 UV-I 385 W/m 14,3 C 16,3 C 16,1 km/h (3 Bft) 100,00 %
03.06.2016 11:12 18,1 C 78 % 1009,0 hPa 0,0 l/m 11,1 km/h (2 Bft) S-SW 192 0 min 0,000 mm 3,3 UV-I 411 W/m 14,2 C 16,1 C 19,3 km/h (3 Bft) 100,00 %
03.06.2016 11:13 17,9 C 78 % 1009,0 hPa 0,0 l/m 7,2 km/h (2 Bft) W-SW 255 0 min 0,000 mm 3,4 UV-I 431 W/m 14,0 C 17,5 C 9,7 km/h (2 Bft) 100,00 %
03.06.2016 11:14 17,9 C 79 % 1009,0 hPa 0,0 l/m 11,7 km/h (2 Bft) S-SW 213 0 min 0,000 mm 3,3 UV-I 429 W/m 14,2 C 15,7 C 16,1 km/h (3 Bft) 100,00 %
03.06.2016 11:15 17,8 C 80 % 1008,9 hPa 0,0 l/m 14,3 km/h (3 Bft) W-SW 244 0 min 0,000 mm 3,3 UV-I 416 W/m 14,3 C 14,8 C 17,7 km/h (3 Bft) 100,00 %
03.06.2016 11:16 17,9 C 81 % 1009,0 hPa 0,0 l/m 9,3 km/h (2 Bft) SW 221 0 min 0,000 mm 3,4 UV-I 408 W/m 14,6 C 16,6 C 14,5 km/h (3 Bft) 100,00 %
03.06.2016 11:17 17,9 C 82 % 1009,0 hPa 0,0 l/m 8,8 km/h (2 Bft) SW 223 0 min 0,000 mm 3,4 UV-I 403 W/m 14,8 C 16,8 C 14,5 km/h (3 Bft) 100,00 %
03.06.2016 11:18 18,0 C 81 % 1009,0 hPa 0,0 l/m 10,3 km/h (2 Bft) W-SW 244 0 min 0,000 mm 3,4 UV-I 400 W/m 14,7 C 16,3 C 16,1 km/h (3 Bft) 100,00 %
03.06.2016 11:19 18,0 C 79 % 1009,0 hPa 0,0 l/m 12,0 km/h (2 Bft) W-SW 240 0 min 0,000 mm 3,6 UV-I 403 W/m 14,3 C 15,7 C 17,7 km/h (3 Bft) 100,00 %
03.06.2016 11:20 18,0 C 79 % 1009,0 hPa 0,0 l/m 13,3 km/h (3 Bft) SW 231 0 min 0,000 mm 3,7 UV-I 426 W/m 14,3 C 15,3 C 22,5 km/h (4 Bft) 100,00 %
03.06.2016 11:21 17,9 C 79 % 1009,0 hPa 0,0 l/m 10,6 km/h (2 Bft) SW 232 0 min 0,000 mm 4,5 UV-I 431 W/m 14,2 C 16,1 C 17,7 km/h (3 Bft) 100,00 %
03.06.2016 11:22 18,1 C 79 % 1008,9 hPa 0,0 l/m 10,4 km/h (2 Bft) S-SW 210 0 min 0,000 mm 6,2 UV-I 431 W/m 14,4 C 16,4 C 16,1 km/h (3 Bft) 100,00 %
03.06.2016 11:23 18,2 C 80 % 1009,0 hPa 0,0 l/m 8,0 km/h (2 Bft) S 175 0 min 0,000 mm 6,4 UV-I 431 W/m 14,7 C 17,5 C 12,9 km/h (3 Bft) 100,00 %
03.06.2016 11:24 18,4 C 80 % 1008,9 hPa 0,0 l/m 12,8 km/h (3 Bft) W 264 1 min 0,000 mm 6,2 UV-I 820 W/m 14,9 C 15,9 C 16,1 km/h (3 Bft) 100,00 %
03.06.2016 11:25 18,6 C 79 % 1008,9 hPa 0,0 l/m 12,6 km/h (3 Bft) SW 219 1 min 0,000 mm 6,2 UV-I 1081 W/m 14,9 C 16,2 C 16,1 km/h (3 Bft) 100,00 %
03.06.2016 11:26 18,7 C 77 % 1008,9 hPa 0,0 l/m 13,4 km/h (3 Bft) W-SW 253 1 min 0,000 mm 6,0 UV-I 1074 W/m 14,6 C 16,1 C 16,1 km/h (3 Bft) 100,00 %
03.06.2016 11:27 18,6 C 76 % 1008,9 hPa 0,0 l/m 10,3 km/h (2 Bft) W-SW 249 1 min 0,000 mm 6,1 UV-I 1064 W/m 14,3 C 17,0 C 12,9 km/h (3 Bft) 100,00 %
03.06.2016 11:28 18,6 C 77 % 1008,9 hPa 0,0 l/m 8,2 km/h (2 Bft) W 266 1 min 0,000 mm 6,1 UV-I 1001 W/m 14,5 C 17,8 C 14,5 km/h (3 Bft) 100,00 %
03.06.2016 11:29 18,7 C 77 % 1008,9 hPa 0,0 l/m 9,7 km/h (2 Bft) W-SW 258 1 min 0,000 mm 6,3 UV-I 990 W/m 14,6 C 17,3 C 12,9 km/h (3 Bft) 100,00 %
03.06.2016 11:30 18,9 C 81 % 1008,9 hPa 0,0 l/m 10,2 km/h (2 Bft) SW 230 1 min 0,000 mm 6,3 UV-I 1002 W/m 15,6 C 17,4 C 14,5 km/h (3 Bft) 95,65 %
03.06.2016 11:31 19,2 C 75 % 1008,8 hPa 0,0 l/m 12,3 km/h (3 Bft) S 180 1 min 0,000 mm 6,3 UV-I 1010 W/m 14,7 C 17,0 C 16,1 km/h (3 Bft) 100,00 %
03.06.2016 11:32 19,2 C 72 % 1008,8 hPa 0,0 l/m 11,8 km/h (2 Bft) S-SW 208 1 min 0,000 mm 6,3 UV-I 958 W/m 14,0 C 17,2 C 20,9 km/h (4 Bft) 100,00 %
03.06.2016 11:33 19,3 C 73 % 1008,9 hPa 0,0 l/m 11,1 km/h (2 Bft) W 261 1 min 0,000 mm 6,0 UV-I 919 W/m 14,3 C 17,5 C 16,1 km/h (3 Bft) 100,00 %
03.06.2016 11:34 19,2 C 72 % 1008,8 hPa 0,0 l/m 13,9 km/h (3 Bft) W 261 1 min 0,000 mm 5,8 UV-I 883 W/m 14,0 C 16,6 C 16,1 km/h (3 Bft) 100,00 %
03.06.2016 11:35 19,1 C 70 % 1008,8 hPa 0,0 l/m 9,9 km/h (2 Bft) W-SW 244 1 min 0,000 mm 5,9 UV-I 770 W/m 13,5 C 17,7 C 14,5 km/h (3 Bft) 95,83 %
03.06.2016 11:36 19,1 C 74 % 1008,8 hPa 0,0 l/m 8,5 km/h (2 Bft) W 273 1 min 0,000 mm 6,1 UV-I 740 W/m 14,4 C 18,2 C 12,9 km/h (3 Bft) 100,00 %
03.06.2016 11:37 19,1 C 71 % 1008,8 hPa 0,0 l/m 10,5 km/h (2 Bft) W 267 1 min 0,000 mm 6,1 UV-I 886 W/m 13,7 C 17,5 C 14,5 km/h (3 Bft) 100,00 %
03.06.2016 11:38 19,1 C 73 % 1008,8 hPa 0,0 l/m 7,9 km/h (2 Bft) SW 216 1 min 0,000 mm 6,3 UV-I 954 W/m 14,1 C 18,4 C 14,5 km/h (3 Bft) 95,65 %
03.06.2016 11:39 19,2 C 74 % 1008,8 hPa 0,0 l/m 8,9 km/h (2 Bft) S-SO 165 1 min 0,000 mm 6,6 UV-I 999 W/m 14,4 C 18,2 C 12,9 km/h (3 Bft) 95,83 %
03.06.2016 11:40 19,2 C 76 % 1008,9 hPa 0,0 l/m 7,0 km/h (2 Bft) S-SO 150 1 min 0,000 mm 6,1 UV-I 981 W/m 14,9 C 18,9 C 11,3 km/h (2 Bft) 100,00 %
03.06.2016 11:41 19,1 C 73 % 1008,9 hPa 0,0 l/m 8,0 km/h (2 Bft) W-SW 253 1 min 0,000 mm 5,4 UV-I 981 W/m 14,1 C 18,4 C 12,9 km/h (3 Bft) 95,83 %
03.06.2016 11:42 19,0 C 73 % 1008,9 hPa 0,0 l/m 11,2 km/h (2 Bft) S-SW 210 1 min 0,000 mm 6,2 UV-I 981 W/m 14,0 C 17,1 C 17,7 km/h (3 Bft) 95,65 %
03.06.2016 11:43 19,1 C 71 % 1008,9 hPa 0,0 l/m 11,4 km/h (2 Bft) S-SO 161 1 min 0,000 mm 6,2 UV-I 963 W/m 13,7 C 17,2 C 19,3 km/h (3 Bft) 95,83 %
03.06.2016 11:44 19,0 C 73 % 1008,9 hPa 0,0 l/m 6,9 km/h (2 Bft) S-SO 159 1 min 0,000 mm 6,5 UV-I 918 W/m 14,0 C 18,8 C 9,7 km/h (2 Bft) 100,00 %
03.06.2016 11:45 19,1 C 73 % 1008,9 hPa 0,0 l/m 6,3 km/h (2 Bft) W-SW 254 1 min 0,000 mm 6,6 UV-I 1013 W/m 14,1 C 19,1 C 9,7 km/h (2 Bft) 91,30 %
03.06.2016 11:46 19,2 C 73 % 1008,9 hPa 0,0 l/m 10,7 km/h (2 Bft) S-SW 209 1 min 0,000 mm 6,6 UV-I 1010 W/m 14,2 C 17,5 C 14,5 km/h (3 Bft) 100,00 %
03.06.2016 11:47 19,2 C 72 % 1008,8 hPa 0,0 l/m 8,0 km/h (2 Bft) S 184 1 min 0,000 mm 6,6 UV-I 1018 W/m 14,0 C 18,5 C 11,3 km/h (2 Bft) 95,65 %
03.06.2016 11:48 19,2 C 73 % 1008,9 hPa 0,0 l/m 7,4 km/h (2 Bft) S 188 1 min 0,000 mm 6,7 UV-I 1040 W/m 14,2 C 18,8 C 14,5 km/h (3 Bft) 100,00 %
03.06.2016 11:49 19,3 C 75 % 1008,9 hPa 0,0 l/m 9,9 km/h (2 Bft) W-NW 290 1 min 0,000 mm 6,6 UV-I 1056 W/m 14,8 C 17,9 C 14,5 km/h (3 Bft) 91,30 %
03.06.2016 11:50 19,5 C 74 % 1008,8 hPa 0,0 l/m 7,6 km/h (2 Bft) W 277 1 min 0,000 mm 6,7 UV-I 1082 W/m 14,7 C 19,0 C 12,9 km/h (3 Bft) 91,67 %
03.06.2016 11:51 19,5 C 71 % 1008,8 hPa 0,0 l/m 8,0 km/h (2 Bft) S-SW 208 1 min 0,000 mm 6,6 UV-I 1107 W/m 14,1 C 18,8 C 12,9 km/h (3 Bft) 100,00 %
03.06.2016 11:52 19,6 C 73 % 1008,8 hPa 0,0 l/m 13,2 km/h (3 Bft) W-SW 257 1 min 0,000 mm 6,2 UV-I 1132 W/m 14,6 C 17,2 C 16,1 km/h (3 Bft) 96,30 %
03.06.2016 11:53 19,7 C 70 % 1008,9 hPa 0,0 l/m 7,2 km/h (2 Bft) W 262 1 min 0,000 mm 4,7 UV-I 1134 W/m 14,1 C 19,4 C 14,5 km/h (3 Bft) 100,00 %
03.06.2016 11:54 19,6 C 69 % 1008,8 hPa 0,0 l/m 7,4 km/h (2 Bft) W-SW 250 1 min 0,000 mm 3,0 UV-I 1134 W/m 13,8 C 19,2 C 11,3 km/h (2 Bft) 95,83 %
03.06.2016 11:55 19,6 C 70 % 1008,8 hPa 0,0 l/m 9,7 km/h (2 Bft) W-SW 247 1 min 0,000 mm 2,6 UV-I 1134 W/m 14,0 C 18,3 C 14,5 km/h (3 Bft) 100,00 %
03.06.2016 11:56 19,5 C 72 % 1008,9 hPa 0,0 l/m 13,3 km/h (3 Bft) W 267 0 min 0,000 mm 2,3 UV-I 357 W/m 14,3 C 17,1 C 20,9 km/h (4 Bft) 91,67 %
03.06.2016 11:57 19,4 C 71 % 1008,9 hPa 0,0 l/m 10,2 km/h (2 Bft) SW 229 0 min 0,000 mm 2,2 UV-I 298 W/m 14,0 C 17,9 C 17,7 km/h (3 Bft) 91,30 %
03.06.2016 11:58 19,4 C 73 % 1008,9 hPa 0,0 l/m 8,4 km/h (2 Bft) S-SW 205 0 min 0,000 mm 1,9 UV-I 257 W/m 14,4 C 18,6 C 12,9 km/h (3 Bft) 100,00 %
03.06.2016 11:59 19,3 C 73 % 1008,9 hPa 0,0 l/m 11,9 km/h (2 Bft) W 266 0 min 0,000 mm 1,8 UV-I 240 W/m 14,3 C 17,3 C 16,1 km/h (3 Bft) 95,65 %
03.06.2016 12:00 19,2 C 74 % 1009,0 hPa 0,0 l/m 8,3 km/h (2 Bft) W-SW 243 0 min 0,432 mm 1,8 UV-I 237 W/m 14,4 C 18,4 C 16,1 km/h (3 Bft) 100,00 %
03.06.2016 12:01 19,0 C 75 % 1008,9 hPa 0,0 l/m 8,7 km/h (2 Bft) W 279 0 min 0,000 mm 1,8 UV-I 245 W/m 14,5 C 18,0 C 12,9 km/h (3 Bft) 95,83 %
03.06.2016 12:02 18,9 C 76 % 1008,9 hPa 0,0 l/m 9,5 km/h (2 Bft) SW 215 0 min 0,000 mm 1,9 UV-I 253 W/m 14,6 C 17,6 C 16,1 km/h (3 Bft) 100,00 %
03.06.2016 12:03 18,7 C 74 % 1008,9 hPa 0,0 l/m 8,7 km/h (2 Bft) W 266 0 min 0,000 mm 1,9 UV-I 255 W/m 14,0 C 17,7 C 14,5 km/h (3 Bft) 95,83 %
03.06.2016 12:04 18,6 C 74 % 1008,9 hPa 0,0 l/m 8,6 km/h (2 Bft) W 264 0 min 0,000 mm 1,9 UV-I 253 W/m 13,9 C 17,6 C 12,9 km/h (3 Bft) 86,96 %
03.06.2016 12:05 18,4 C 77 % 1008,9 hPa 0,0 l/m 7,7 km/h (2 Bft) W 263 0 min 0,000 mm 1,9 UV-I 248 W/m 14,3 C 17,8 C 12,9 km/h (3 Bft) 100,00 %
03.06.2016 12:06 18,3 C 79 % 1008,9 hPa 0,0 l/m 5,9 km/h (2 Bft) W 260 0 min 0,000 mm 1,8 UV-I 244 W/m 14,6 C 18,3 C 9,7 km/h (2 Bft) 86,96 %
03.06.2016 12:07 18,2 C 79 % 1008,9 hPa 0,0 l/m 5,6 km/h (1 Bft) W 261 0 min 0,000 mm 1,8 UV-I 243 W/m 14,5 C 18,2 C 11,3 km/h (2 Bft) 100,00 %
03.06.2016 12:08 18,1 C 80 % 1008,9 hPa 0,0 l/m 6,0 km/h (2 Bft) W 263 0 min 0,000 mm 1,8 UV-I 243 W/m 14,6 C 18,1 C 9,7 km/h (2 Bft) 95,65 %
03.06.2016 12:09 17,9 C 80 % 1008,9 hPa 0,0 l/m 3,2 km/h (1 Bft) W-NW 301 0 min 0,000 mm 1,8 UV-I 246 W/m 14,4 C 17,9 C 4,8 km/h (1 Bft) 100,00 %
03.06.2016 12:10 17,8 C 82 % 1008,9 hPa 0,0 l/m 4,3 km/h (1 Bft) W-NW 289 0 min 0,000 mm 1,9 UV-I 253 W/m 14,7 C 17,8 C 9,7 km/h (2 Bft) 95,65 %
03.06.2016 12:11 17,7 C 83 % 1008,9 hPa 0,0 l/m 3,0 km/h (1 Bft) W-NW 299 0 min 0,000 mm 1,9 UV-I 260 W/m 14,8 C 17,7 C 6,4 km/h (2 Bft) 100,00 %
03.06.2016 12:12 17,7 C 84 % 1008,9 hPa 0,0 l/m 2,8 km/h (1 Bft) W 266 0 min 0,000 mm 2,1 UV-I 267 W/m 15,0 C 17,7 C 4,8 km/h (1 Bft) 95,65 %
03.06.2016 12:13 17,6 C 84 % 1008,9 hPa 0,0 l/m 1,7 km/h (1 Bft) NW 313 0 min 0,000 mm 2,1 UV-I 277 W/m 14,9 C 17,6 C 4,8 km/h (1 Bft) 100,00 %
03.06.2016 12:14 17,6 C 84 % 1008,9 hPa 0,0 l/m 4,6 km/h (1 Bft) NW 307 0 min 0,000 mm 2,2 UV-I 290 W/m 14,9 C 17,6 C 6,4 km/h (2 Bft) 100,00 %
03.06.2016 12:15 17,6 C 85 % 1008,9 hPa 0,0 l/m 2,1 km/h (1 Bft) W-SW 251 0 min 0,000 mm 2,3 UV-I 302 W/m 15,0 C 17,6 C 4,8 km/h (1 Bft) 100,00 %
03.06.2016 12:16 17,5 C 86 % 1008,9 hPa 0,0 l/m 1,9 km/h (1 Bft) W-SW 251 0 min 0,000 mm 2,3 UV-I 313 W/m 15,1 C 17,5 C 3,2 km/h (1 Bft) 100,00 %
03.06.2016 12:17 17,5 C 84 % 1008,9 hPa 0,0 l/m 2,5 km/h (1 Bft) NW 321 0 min 0,000 mm 2,4 UV-I 324 W/m 14,8 C 17,5 C 4,8 km/h (1 Bft) 100,00 %
03.06.2016 12:18 17,4 C 84 % 1008,9 hPa 0,0 l/m 3,8 km/h (1 Bft) NW 323 0 min 0,000 mm 2,6 UV-I 333 W/m 14,7 C 17,4 C 6,4 km/h (2 Bft) 100,00 %
03.06.2016 12:19 17,4 C 84 % 1008,9 hPa 0,0 l/m 2,2 km/h (1 Bft) NW 326 0 min 0,000 mm 2,6 UV-I 339 W/m 14,7 C 17,4 C 4,8 km/h (1 Bft) 95,83 %
03.06.2016 12:20 17,4 C 86 % 1009,0 hPa 0,0 l/m 1,9 km/h (1 Bft) NW 309 0 min 0,000 mm 2,7 UV-I 344 W/m 15,0 C 17,4 C 4,8 km/h (1 Bft) 100,00 %
03.06.2016 12:21 17,4 C 87 % 1008,9 hPa 0,0 l/m 4,0 km/h (1 Bft) NW 304 0 min 0,000 mm 2,7 UV-I 349 W/m 15,2 C 17,4 C 6,4 km/h (2 Bft) 91,30 %
03.06.2016 12:22 17,4 C 86 % 1009,0 hPa 0,0 l/m 3,0 km/h (1 Bft) N 5 0 min 0,000 mm 2,7 UV-I 354 W/m 15,0 C 17,4 C 4,8 km/h (1 Bft) 100,00 %
03.06.2016 12:23 17,3 C 86 % 1009,0 hPa 0,0 l/m 4,2 km/h (1 Bft) W-SW 243 0 min 0,000 mm 2,8 UV-I 359 W/m 14,9 C 17,3 C 6,4 km/h (2 Bft) 100,00 %
03.06.2016 12:24 17,3 C 86 % 1009,0 hPa 0,0 l/m 2,6 km/h (1 Bft) W 276 0 min 0,000 mm 2,9 UV-I 369 W/m 14,9 C 17,3 C 4,8 km/h (1 Bft) 100,00 %
03.06.2016 12:25 17,3 C 86 % 1009,0 hPa 0,0 l/m 1,1 km/h (1 Bft) W 276 0 min 0,000 mm 3,0 UV-I 384 W/m 14,9 C 17,3 C 1,6 km/h (1 Bft) 100,00 %
03.06.2016 12:26 17,3 C 86 % 1009,0 hPa 0,0 l/m 1,6 km/h (1 Bft) W-NW 296 0 min 0,000 mm 3,1 UV-I 402 W/m 14,9 C 17,3 C 3,2 km/h (1 Bft) 100,00 %
03.06.2016 12:27 17,4 C 87 % 1009,0 hPa 0,0 l/m 3,5 km/h (1 Bft) NW 318 0 min 0,000 mm 3,3 UV-I 421 W/m 15,2 C 17,4 C 6,4 km/h (2 Bft) 100,00 %
03.06.2016 12:28 17,4 C 87 % 1009,0 hPa 0,0 l/m 1,0 km/h (0 Bft) NW 318 0 min 0,000 mm 3,5 UV-I 441 W/m 15,2 C 17,4 C 3,2 km/h (1 Bft) 100,00 %
03.06.2016 12:29 17,6 C 87 % 1009,0 hPa 0,0 l/m 1,8 km/h (1 Bft) W-NW 298 0 min 0,000 mm 3,7 UV-I 471 W/m 15,4 C 17,6 C 4,8 km/h (1 Bft) 100,00 %
03.06.2016 12:30 17,6 C 87 % 1009,0 hPa 0,0 l/m 4,9 km/h (1 Bft) W-NW 298 1 min 0,000 mm 3,9 UV-I 509 W/m 15,4 C 17,6 C 11,3 km/h (2 Bft) 100,00 %
03.06.2016 12:31 17,6 C 85 % 1009,0 hPa 0,0 l/m 4,0 km/h (1 Bft) NW 310 1 min 0,000 mm 4,5 UV-I 595 W/m 15,0 C 17,6 C 11,3 km/h (2 Bft) 100,00 %
03.06.2016 12:32 17,6 C 86 % 1009,0 hPa 0,0 l/m 3,6 km/h (1 Bft) N-NW 331 1 min 0,000 mm 4,8 UV-I 639 W/m 15,2 C 17,6 C 6,4 km/h (2 Bft) 100,00 %
03.06.2016 12:33 17,6 C 84 % 1009,0 hPa 0,0 l/m 3,7 km/h (1 Bft) N-NW 346 1 min 0,000 mm 4,7 UV-I 598 W/m 14,9 C 17,6 C 6,4 km/h (2 Bft) 100,00 %
03.06.2016 12:34 17,6 C 84 % 1008,9 hPa 0,0 l/m 2,3 km/h (1 Bft) NW 317 1 min 0,000 mm 4,6 UV-I 568 W/m 14,9 C 17,6 C 4,8 km/h (1 Bft) 95,83 %
03.06.2016 12:35 17,6 C 85 % 1009,0 hPa 0,0 l/m 3,1 km/h (1 Bft) NW 319 1 min 0,000 mm 5,2 UV-I 582 W/m 15,0 C 17,6 C 6,4 km/h (2 Bft) 92,86 %
03.06.2016 12:36 17,7 C 84 % 1009,0 hPa 0,0 l/m 2,7 km/h (1 Bft) NW 308 1 min 0,000 mm 5,9 UV-I 582 W/m 15,0 C 17,7 C 4,8 km/h (1 Bft) 100,00 %
03.06.2016 12:37 17,8 C 85 % 1008,9 hPa 0,0 l/m 3,1 km/h (1 Bft) W-NW 296 1 min 0,000 mm 6,8 UV-I 622 W/m 15,2 C 17,8 C 6,4 km/h (2 Bft) 100,00 %
03.06.2016 12:38 17,9 C 85 % 1009,0 hPa 0,0 l/m 5,3 km/h (1 Bft) NW 306 1 min 0,000 mm 6,7 UV-I 986 W/m 15,3 C 17,9 C 8,0 km/h (2 Bft) 100,00 %
03.06.2016 12:39 17,9 C 82 % 1009,0 hPa 0,0 l/m 3,1 km/h (1 Bft) NW 325 1 min 0,000 mm 5,7 UV-I 986 W/m 14,8 C 17,9 C 4,8 km/h (1 Bft) 100,00 %
03.06.2016 12:40 17,9 C 82 % 1009,0 hPa 0,0 l/m 3,4 km/h (1 Bft) N-NW 340 1 min 0,000 mm 4,9 UV-I 758 W/m 14,8 C 17,9 C 4,8 km/h (1 Bft) 100,00 %
03.06.2016 12:41 17,9 C 82 % 1009,0 hPa 0,0 l/m 4,2 km/h (1 Bft) W 274 1 min 0,000 mm 4,8 UV-I 565 W/m 14,8 C 17,9 C 8,0 km/h (2 Bft) 100,00 %
03.06.2016 12:42 17,9 C 85 % 1009,0 hPa 0,0 l/m 3,7 km/h (1 Bft) NW 317 1 min 0,000 mm 4,9 UV-I 593 W/m 15,3 C 17,9 C 4,8 km/h (1 Bft) 95,65 %
03.06.2016 12:43 18,0 C 83 % 1009,0 hPa 0,0 l/m 3,4 km/h (1 Bft) N 360 1 min 0,000 mm 5,3 UV-I 618 W/m 15,1 C 18,0 C 8,0 km/h (2 Bft) 95,83 %
03.06.2016 12:44 18,0 C 82 % 1009,0 hPa 0,0 l/m 4,7 km/h (1 Bft) W-NW 302 1 min 0,000 mm 5,6 UV-I 741 W/m 14,9 C 18,0 C 8,0 km/h (2 Bft) 100,00 %
03.06.2016 12:45 18,1 C 81 % 1009,0 hPa 0,0 l/m 3,6 km/h (1 Bft) N 349 1 min 0,000 mm 5,2 UV-I 708 W/m 14,8 C 18,1 C 8,0 km/h (2 Bft) 100,00 %
03.06.2016 12:46 18,1 C 79 % 1009,0 hPa 0,0 l/m 3,0 km/h (1 Bft) N 360 1 min 0,000 mm 5,0 UV-I 670 W/m 14,4 C 18,1 C 8,0 km/h (2 Bft) 95,65 %
03.06.2016 12:47 18,2 C 80 % 1009,0 hPa 0,0 l/m 2,6 km/h (1 Bft) N-NW 339 1 min 0,000 mm 4,6 UV-I 666 W/m 14,7 C 18,2 C 4,8 km/h (1 Bft) 100,00 %
03.06.2016 12:48 18,2 C 81 % 1009,0 hPa 0,0 l/m 2,5 km/h (1 Bft) N-NW 336 1 min 0,000 mm 4,1 UV-I 515 W/m 14,9 C 18,2 C 6,4 km/h (2 Bft) 95,65 %
03.06.2016 12:49 18,2 C 81 % 1009,0 hPa 0,0 l/m 2,1 km/h (1 Bft) N-NW 336 0 min 0,000 mm 3,8 UV-I 441 W/m 14,9 C 18,2 C 4,8 km/h (1 Bft) 100,00 %
03.06.2016 12:50 18,2 C 79 % 1009,0 hPa 0,0 l/m 1,8 km/h (1 Bft) N-NW 333 0 min 0,000 mm 3,6 UV-I 413 W/m 14,5 C 18,2 C 4,8 km/h (1 Bft) 100,00 %
03.06.2016 12:51 18,2 C 79 % 1009,0 hPa 0,0 l/m 3,4 km/h (1 Bft) N-NO 21 0 min 0,000 mm 3,5 UV-I 403 W/m 14,5 C 18,2 C 4,8 km/h (1 Bft) 100,00 %
03.06.2016 12:52 18,2 C 80 % 1009,0 hPa 0,0 l/m 4,0 km/h (1 Bft) N-NW 336 0 min 0,000 mm 3,5 UV-I 411 W/m 14,7 C 18,2 C 8,0 km/h (2 Bft) 100,00 %
03.06.2016 12:53 18,2 C 79 % 1008,9 hPa 0,0 l/m 3,8 km/h (1 Bft) N-NW 332 0 min 0,000 mm 3,6 UV-I 433 W/m 14,5 C 18,2 C 6,4 km/h (2 Bft) 100,00 %
03.06.2016 12:54 18,2 C 77 % 1009,0 hPa 0,0 l/m 4,2 km/h (1 Bft) N 355 0 min 0,000 mm 3,6 UV-I 459 W/m 14,1 C 18,2 C 8,0 km/h (2 Bft) 100,00 %
03.06.2016 12:55 18,2 C 77 % 1009,0 hPa 0,0 l/m 3,6 km/h (1 Bft) N-NW 327 1 min 0,000 mm 3,9 UV-I 525 W/m 14,1 C 18,2 C 6,4 km/h (2 Bft) 100,00 %
03.06.2016 12:56 18,2 C 79 % 1009,0 hPa 0,0 l/m 4,0 km/h (1 Bft) N 360 1 min 0,000 mm 4,1 UV-I 589 W/m 14,5 C 18,2 C 8,0 km/h (2 Bft) 100,00 %
03.06.2016 12:57 18,3 C 77 % 1009,0 hPa 0,0 l/m 3,0 km/h (1 Bft) N-NW 347 1 min 0,000 mm 4,8 UV-I 589 W/m 14,2 C 18,3 C 4,8 km/h (1 Bft) 100,00 %
03.06.2016 12:58 18,3 C 79 % 1009,0 hPa 0,0 l/m 1,9 km/h (1 Bft) N 355 0 min 0,000 mm 2,9 UV-I 456 W/m 14,6 C 18,3 C 3,2 km/h (1 Bft) 100,00 %
03.06.2016 12:59 18,3 C 77 % 1009,0 hPa 0,0 l/m 1,9 km/h (1 Bft) W-NW 290 0 min 0,000 mm 2,5 UV-I 320 W/m 14,2 C 18,3 C 4,8 km/h (1 Bft) 100,00 %
03.06.2016 13:00 18,4 C 76 % 1009,0 hPa 0,0 l/m 2,2 km/h (1 Bft) N-NW 342 0 min 0,254 mm 2,1 UV-I 267 W/m 14,1 C 18,4 C 4,8 km/h (1 Bft) 96,30 %
03.06.2016 13:01 18,4 C 76 % 1009,0 hPa 0,0 l/m 2,1 km/h (1 Bft) N 5 0 min 0,000 mm 1,7 UV-I 231 W/m 14,1 C 18,4 C 3,2 km/h (1 Bft) 100,00 %
03.06.2016 13:02 18,3 C 78 % 1009,0 hPa 0,0 l/m 1,8 km/h (1 Bft) N-NO 12 0 min 0,000 mm 1,6 UV-I 210 W/m 14,4 C 18,3 C 3,2 km/h (1 Bft) 100,00 %
03.06.2016 13:03 18,2 C 75 % 1008,9 hPa 0,0 l/m 1,8 km/h (1 Bft) N 9 0 min 0,000 mm 1,5 UV-I 200 W/m 13,7 C 18,2 C 3,2 km/h (1 Bft) 95,83 %
03.06.2016 13:04 18,1 C 76 % 1008,9 hPa 0,0 l/m 2,5 km/h (1 Bft) N-NO 13 0 min 0,000 mm 1,5 UV-I 198 W/m 13,8 C 18,1 C 4,8 km/h (1 Bft) 100,00 %
03.06.2016 13:05 18,0 C 78 % 1008,9 hPa 0,0 l/m 2,1 km/h (1 Bft) N-NO 13 0 min 0,000 mm 1,5 UV-I 204 W/m 14,1 C 18,0 C 3,2 km/h (1 Bft) 100,00 %
03.06.2016 13:06 17,9 C 79 % 1008,9 hPa 0,0 l/m 1,8 km/h (1 Bft) NW 316 0 min 0,000 mm 1,6 UV-I 215 W/m 14,2 C 17,9 C 4,8 km/h (1 Bft) 100,00 %
03.06.2016 13:07 17,9 C 81 % 1008,9 hPa 0,0 l/m 2,3 km/h (1 Bft) NW 316 0 min 0,000 mm 1,7 UV-I 233 W/m 14,6 C 17,9 C 3,2 km/h (1 Bft) 100,00 %
03.06.2016 13:08 17,9 C 78 % 1008,9 hPa 0,0 l/m 2,8 km/h (1 Bft) NW 311 0 min 0,000 mm 1,8 UV-I 253 W/m 14,0 C 17,9 C 4,8 km/h (1 Bft) 100,00 %
03.06.2016 13:09 17,8 C 79 % 1008,9 hPa 0,0 l/m 1,7 km/h (1 Bft) NW 311 0 min 0,000 mm 2,1 UV-I 284 W/m 14,1 C 17,8 C 3,2 km/h (1 Bft) 100,00 %
03.06.2016 13:10 17,8 C 82 % 1008,9 hPa 0,0 l/m 0,6 km/h (0 Bft) NW 311 0 min 0,000 mm 2,4 UV-I 347 W/m 14,7 C 17,8 C 1,6 km/h (1 Bft) 100,00 %
03.06.2016 13:11 17,8 C 81 % 1008,9 hPa 0,0 l/m 4,3 km/h (1 Bft) W-NW 294 0 min 0,000 mm 2,8 UV-I 405 W/m 14,5 C 17,8 C 8,0 km/h (2 Bft) 91,30 %
03.06.2016 13:12 17,9 C 82 % 1008,9 hPa 0,0 l/m 3,9 km/h (1 Bft) W-NW 292 0 min 0,000 mm 2,7 UV-I 378 W/m 14,8 C 17,9 C 6,4 km/h (2 Bft) 100,00 %
03.06.2016 13:13 17,9 C 83 % 1009,0 hPa 0,0 l/m 2,9 km/h (1 Bft) W-NW 292 0 min 0,000 mm 3,3 UV-I 432 W/m 15,0 C 17,9 C 4,8 km/h (1 Bft) 100,00 %
03.06.2016 13:14 18,0 C 83 % 1009,0 hPa 0,0 l/m 4,7 km/h (1 Bft) S-SW 212 1 min 0,000 mm 3,4 UV-I 506 W/m 15,1 C 18,0 C 9,7 km/h (2 Bft) 100,00 %
03.06.2016 13:15 18,0 C 82 % 1008,9 hPa 0,0 l/m 2,7 km/h (1 Bft) W-NW 291 1 min 0,000 mm 3,7 UV-I 573 W/m 14,9 C 18,0 C 4,8 km/h (1 Bft) 100,00 %
03.06.2016 13:16 18,0 C 84 % 1008,9 hPa 0,0 l/m 3,4 km/h (1 Bft) NW 308 1 min 0,000 mm 4,1 UV-I 586 W/m 15,3 C 18,0 C 4,8 km/h (1 Bft) 100,00 %
03.06.2016 13:17 18,0 C 83 % 1008,9 hPa 0,0 l/m 1,9 km/h (1 Bft) NW 313 1 min 0,000 mm 3,9 UV-I 518 W/m 15,1 C 18,0 C 3,2 km/h (1 Bft) 100,00 %
03.06.2016 13:18 18,0 C 84 % 1008,9 hPa 0,0 l/m 2,6 km/h (1 Bft) N-NW 329 0 min 0,000 mm 3,7 UV-I 477 W/m 15,3 C 18,0 C 4,8 km/h (1 Bft) 100,00 %
03.06.2016 13:19 17,9 C 85 % 1008,9 hPa 0,0 l/m 3,2 km/h (1 Bft) NW 311 0 min 0,000 mm 3,8 UV-I 480 W/m 15,3 C 17,9 C 4,8 km/h (1 Bft) 100,00 %
03.06.2016 13:20 17,9 C 83 % 1008,8 hPa 0,0 l/m 2,2 km/h (1 Bft) NW 311 1 min 0,000 mm 3,9 UV-I 498 W/m 15,0 C 17,9 C 3,2 km/h (1 Bft) 95,65 %
03.06.2016 13:21 17,9 C 81 % 1008,8 hPa 0,0 l/m 4,0 km/h (1 Bft) W-NW 292 1 min 0,000 mm 4,0 UV-I 515 W/m 14,6 C 17,9 C 6,4 km/h (2 Bft) 100,00 %
03.06.2016 13:22 17,9 C 83 % 1008,8 hPa 0,0 l/m 5,8 km/h (2 Bft) W 268 1 min 0,000 mm 4,3 UV-I 550 W/m 15,0 C 17,9 C 9,7 km/h (2 Bft) 100,00 %
03.06.2016 13:23 17,9 C 82 % 1008,8 hPa 0,0 l/m 3,5 km/h (1 Bft) N-NW 333 1 min 0,000 mm 4,4 UV-I 556 W/m 14,8 C 17,9 C 6,4 km/h (2 Bft) 100,00 %
03.06.2016 13:24 18,1 C 85 % 1008,8 hPa 0,0 l/m 2,4 km/h (1 Bft) N-NW 334 1 min 0,000 mm 4,4 UV-I 545 W/m 15,5 C 18,1 C 4,8 km/h (1 Bft) 100,00 %
03.06.2016 13:25 18,1 C 82 % 1008,8 hPa 0,0 l/m 1,1 km/h (1 Bft) N-NW 344 1 min 0,000 mm 4,7 UV-I 567 W/m 15,0 C 18,1 C 3,2 km/h (1 Bft) 100,00 %
03.06.2016 13:26 18,2 C 84 % 1008,8 hPa 0,0 l/m 2,1 km/h (1 Bft) W-NW 302 1 min 0,000 mm 4,8 UV-I 586 W/m 15,4 C 18,2 C 4,8 km/h (1 Bft) 100,00 %
03.06.2016 13:27 18,2 C 84 % 1008,8 hPa 0,0 l/m 1,4 km/h (1 Bft) W-NW 302 1 min 0,000 mm 4,8 UV-I 600 W/m 15,4 C 18,2 C 3,2 km/h (1 Bft) 100,00 %
03.06.2016 13:28 18,3 C 84 % 1008,8 hPa 0,0 l/m 1,2 km/h (1 Bft) NW 309 1 min 0,000 mm 4,8 UV-I 600 W/m 15,5 C 18,3 C 3,2 km/h (1 Bft) 100,00 %
03.06.2016 13:29 18,5 C 82 % 1008,8 hPa 0,0 l/m 2,1 km/h (1 Bft) W-NW 292 1 min 0,000 mm 4,6 UV-I 601 W/m 15,4 C 18,5 C 3,2 km/h (1 Bft) 96,30 %
03.06.2016 13:30 18,6 C 79 % 1008,8 hPa 0,0 l/m 3,8 km/h (1 Bft) W-SW 251 1 min 0,000 mm 4,7 UV-I 570 W/m 14,9 C 18,6 C 6,4 km/h (2 Bft) 100,00 %
03.06.2016 13:31 18,6 C 79 % 1008,8 hPa 0,0 l/m 8,2 km/h (2 Bft) W-SW 240 1 min 0,000 mm 5,6 UV-I 570 W/m 14,9 C 17,8 C 14,5 km/h (3 Bft) 100,00 %
03.06.2016 13:32 18,7 C 75 % 1008,7 hPa 0,0 l/m 4,5 km/h (1 Bft) SW 221 1 min 0,000 mm 6,8 UV-I 776 W/m 14,2 C 18,7 C 6,4 km/h (2 Bft) 95,65 %
03.06.2016 13:33 18,8 C 77 % 1008,7 hPa 0,0 l/m 6,8 km/h (2 Bft) SW 232 1 min 0,000 mm 5,8 UV-I 1065 W/m 14,7 C 18,6 C 11,3 km/h (2 Bft) 100,00 %
03.06.2016 13:34 19,0 C 81 % 1008,7 hPa 0,0 l/m 4,2 km/h (1 Bft) N-NW 329 1 min 0,000 mm 6,3 UV-I 1065 W/m 15,7 C 19,0 C 8,0 km/h (2 Bft) 100,00 %
03.06.2016 13:35 19,3 C 77 % 1008,7 hPa 0,0 l/m 3,6 km/h (1 Bft) W-SW 250 1 min 0,000 mm 6,6 UV-I 1057 W/m 15,2 C 19,3 C 6,4 km/h (2 Bft) 100,00 %
03.06.2016 13:36 19,4 C 77 % 1008,7 hPa 0,0 l/m 5,3 km/h (1 Bft) W-NW 300 1 min 0,000 mm 7,0 UV-I 1056 W/m 15,3 C 19,4 C 9,7 km/h (2 Bft) 95,65 %
03.06.2016 13:37 19,6 C 74 % 1008,7 hPa 0,0 l/m 5,6 km/h (1 Bft) N 350 1 min 0,000 mm 6,2 UV-I 1057 W/m 14,8 C 19,6 C 8,0 km/h (2 Bft) 95,83 %
03.06.2016 13:38 19,6 C 73 % 1008,7 hPa 0,0 l/m 8,1 km/h (2 Bft) NW 319 1 min 0,000 mm 6,1 UV-I 1060 W/m 14,6 C 18,9 C 11,3 km/h (2 Bft) 93,33 %
03.06.2016 13:39 19,6 C 73 % 1008,7 hPa 0,0 l/m 4,3 km/h (1 Bft) W 262 1 min 0,000 mm 5,1 UV-I 813 W/m 14,6 C 19,6 C 6,4 km/h (2 Bft) 100,00 %
03.06.2016 13:40 19,6 C 73 % 1008,7 hPa 0,0 l/m 3,2 km/h (1 Bft) NO 40 1 min 0,000 mm 5,7 UV-I 689 W/m 14,6 C 19,6 C 8,0 km/h (2 Bft) 91,67 %
03.06.2016 13:41 19,5 C 75 % 1008,7 hPa 0,0 l/m 2,2 km/h (1 Bft) W-SW 251 1 min 0,000 mm 5,9 UV-I 898 W/m 14,9 C 19,5 C 4,8 km/h (1 Bft) 95,65 %
03.06.2016 13:42 19,6 C 75 % 1008,7 hPa 0,0 l/m 3,3 km/h (1 Bft) W-SW 254 1 min 0,000 mm 4,9 UV-I 845 W/m 15,0 C 19,6 C 6,4 km/h (2 Bft) 100,00 %
03.06.2016 13:43 19,7 C 74 % 1008,7 hPa 0,0 l/m 2,4 km/h (1 Bft) W-NW 289 1 min 0,000 mm 4,5 UV-I 561 W/m 14,9 C 19,7 C 6,4 km/h (2 Bft) 92,31 %
03.06.2016 13:44 19,7 C 75 % 1008,7 hPa 0,0 l/m 5,2 km/h (1 Bft) W-NW 296 1 min 0,000 mm 4,4 UV-I 561 W/m 15,1 C 19,7 C 12,9 km/h (3 Bft) 95,83 %
03.06.2016 13:45 19,6 C 73 % 1008,7 hPa 0,0 l/m 4,6 km/h (1 Bft) W-NW 294 1 min 0,000 mm 4,5 UV-I 582 W/m 14,6 C 19,6 C 9,7 km/h (2 Bft) 95,65 %
03.06.2016 13:46 19,4 C 75 % 1008,6 hPa 0,0 l/m 4,2 km/h (1 Bft) NW 323 1 min 0,000 mm 4,8 UV-I 591 W/m 14,8 C 19,4 C 8,0 km/h (2 Bft) 100,00 %
03.06.2016 13:47 19,4 C 73 % 1008,7 hPa 0,0 l/m 4,8 km/h (1 Bft) W-SW 248 1 min 0,000 mm 4,9 UV-I 694 W/m 14,4 C 19,4 C 9,7 km/h (2 Bft) 95,65 %
03.06.2016 13:48 19,3 C 73 % 1008,6 hPa 0,0 l/m 5,1 km/h (1 Bft) NW 321 1 min 0,000 mm 5,0 UV-I 708 W/m 14,3 C 19,3 C 8,0 km/h (2 Bft) 95,83 %
03.06.2016 13:49 19,3 C 73 % 1008,6 hPa 0,0 l/m 4,2 km/h (1 Bft) W-NW 284 1 min 0,000 mm 5,5 UV-I 771 W/m 14,3 C 19,3 C 6,4 km/h (2 Bft) 95,65 %
03.06.2016 13:50 19,2 C 73 % 1008,6 hPa 0,0 l/m 2,7 km/h (1 Bft) W-NW 286 1 min 0,000 mm 5,8 UV-I 896 W/m 14,2 C 19,2 C 6,4 km/h (2 Bft) 95,83 %
03.06.2016 13:51 19,2 C 74 % 1008,6 hPa 0,0 l/m 2,9 km/h (1 Bft) W 263 1 min 0,000 mm 4,9 UV-I 896 W/m 14,4 C 19,2 C 3,2 km/h (1 Bft) 95,65 %
03.06.2016 13:52 19,3 C 74 % 1008,6 hPa 0,0 l/m 2,8 km/h (1 Bft) W 267 1 min 0,000 mm 4,6 UV-I 682 W/m 14,5 C 19,3 C 6,4 km/h (2 Bft) 95,83 %
03.06.2016 13:53 19,3 C 72 % 1008,6 hPa 0,0 l/m 5,8 km/h (2 Bft) W-NW 297 1 min 0,000 mm 4,6 UV-I 629 W/m 14,1 C 19,3 C 11,3 km/h (2 Bft) 100,00 %
03.06.2016 13:54 19,3 C 71 % 1008,6 hPa 0,0 l/m 3,6 km/h (1 Bft) W 263 1 min 0,000 mm 4,6 UV-I 586 W/m 13,9 C 19,3 C 6,4 km/h (2 Bft) 95,83 %
03.06.2016 13:55 19,3 C 74 % 1008,7 hPa 0,0 l/m 4,4 km/h (1 Bft) W-SW 253 1 min 0,000 mm 4,3 UV-I 591 W/m 14,5 C 19,3 C 8,0 km/h (2 Bft) 100,00 %
03.06.2016 13:56 19,3 C 72 % 1008,6 hPa 0,0 l/m 4,5 km/h (1 Bft) W 276 1 min 0,000 mm 4,2 UV-I 563 W/m 14,1 C 19,3 C 8,0 km/h (2 Bft) 91,67 %
03.06.2016 13:57 19,3 C 72 % 1008,6 hPa 0,0 l/m 6,3 km/h (2 Bft) W-NW 283 1 min 0,000 mm 3,8 UV-I 501 W/m 14,1 C 19,3 C 11,3 km/h (2 Bft) 95,65 %
03.06.2016 13:58 19,2 C 72 % 1008,6 hPa 0,0 l/m 5,3 km/h (1 Bft) W-NW 299 0 min 0,000 mm 3,6 UV-I 467 W/m 14,0 C 19,2 C 11,3 km/h (2 Bft) 100,00 %
03.06.2016 13:59 19,1 C 71 % 1008,7 hPa 0,0 l/m 3,8 km/h (1 Bft) W-NW 286 0 min 0,000 mm 3,4 UV-I 436 W/m 13,7 C 19,1 C 4,8 km/h (1 Bft) 96,30 %
03.06.2016 14:00 19,1 C 70 % 1008,6 hPa 0,0 l/m 1,3 km/h (1 Bft) W-NW 302 0 min 0,000 mm 3,3 UV-I 420 W/m 13,5 C 19,1 C 3,2 km/h (1 Bft) 100,00 %
03.06.2016 14:01 19,1 C 74 % 1008,6 hPa 0,0 l/m 3,1 km/h (1 Bft) W-NW 290 0 min 0,330 mm 3,2 UV-I 412 W/m 14,4 C 19,1 C 6,4 km/h (2 Bft) 95,83 %
03.06.2016 14:02 19,1 C 72 % 1008,6 hPa 0,0 l/m 5,6 km/h (1 Bft) W-SW 242 0 min 0,000 mm 3,2 UV-I 413 W/m 13,9 C 19,1 C 8,0 km/h (2 Bft) 100,00 %
03.06.2016 14:03 19,1 C 72 % 1008,6 hPa 0,0 l/m 6,2 km/h (2 Bft) W 270 0 min 0,000 mm 3,1 UV-I 421 W/m 13,9 C 19,1 C 11,3 km/h (2 Bft) 95,83 %
03.06.2016 14:04 19,1 C 70 % 1008,7 hPa 0,0 l/m 3,5 km/h (1 Bft) W 266 0 min 0,000 mm 3,2 UV-I 425 W/m 13,5 C 19,1 C 6,4 km/h (2 Bft) 100,00 %
03.06.2016 14:05 19,0 C 71 % 1008,6 hPa 0,0 l/m 4,7 km/h (1 Bft) W-SW 250 0 min 0,000 mm 3,1 UV-I 418 W/m 13,6 C 19,0 C 6,4 km/h (2 Bft) 95,83 %
03.06.2016 14:06 19,0 C 74 % 1008,6 hPa 0,0 l/m 2,2 km/h (1 Bft) W-NW 297 0 min 0,000 mm 3,0 UV-I 403 W/m 14,3 C 19,0 C 4,8 km/h (1 Bft) 100,00 %
03.06.2016 14:07 19,1 C 73 % 1008,6 hPa 0,0 l/m 2,3 km/h (1 Bft) N-NW 331 0 min 0,000 mm 3,0 UV-I 389 W/m 14,1 C 19,1 C 3,2 km/h (1 Bft) 95,83 %
03.06.2016 14:08 19,1 C 73 % 1008,6 hPa 0,0 l/m 2,1 km/h (1 Bft) N-NW 327 0 min 0,000 mm 2,9 UV-I 383 W/m 14,1 C 19,1 C 3,2 km/h (1 Bft) 95,65 %
03.06.2016 14:09 19,1 C 73 % 1008,6 hPa 0,0 l/m 2,4 km/h (1 Bft) N-NW 336 0 min 0,000 mm 2,7 UV-I 371 W/m 14,1 C 19,1 C 4,8 km/h (1 Bft) 95,83 %
03.06.2016 14:10 19,0 C 71 % 1008,6 hPa 0,0 l/m 2,6 km/h (1 Bft) N-NW 336 0 min 0,000 mm 2,7 UV-I 361 W/m 13,6 C 19,0 C 4,8 km/h (1 Bft) 100,00 %
03.06.2016 14:11 19,0 C 74 % 1008,7 hPa 0,0 l/m 0,6 km/h (0 Bft) N-NW 336 0 min 0,000 mm 2,6 UV-I 355 W/m 14,3 C 19,0 C 1,6 km/h (1 Bft) 100,00 %
03.06.2016 14:12 18,9 C 74 % 1008,6 hPa 0,0 l/m 1,8 km/h (1 Bft) N-NO 12 0 min 0,000 mm 2,6 UV-I 356 W/m 14,2 C 18,9 C 4,8 km/h (1 Bft) 100,00 %
03.06.2016 14:13 18,9 C 74 % 1008,6 hPa 0,0 l/m 2,5 km/h (1 Bft) NW 306 0 min 0,000 mm 2,6 UV-I 358 W/m 14,2 C 18,9 C 4,8 km/h (1 Bft) 100,00 %
03.06.2016 14:14 18,9 C 74 % 1008,6 hPa 0,0 l/m 1,1 km/h (1 Bft) N-NW 344 0 min 0,000 mm 2,7 UV-I 360 W/m 14,2 C 18,9 C 3,2 km/h (1 Bft) 100,00 %
03.06.2016 14:15 18,9 C 76 % 1008,6 hPa 0,0 l/m 1,8 km/h (1 Bft) W-NW 302 0 min 0,000 mm 2,7 UV-I 362 W/m 14,6 C 18,9 C 4,8 km/h (1 Bft) 100,00 %
03.06.2016 14:16 18,9 C 73 % 1008,7 hPa 0,0 l/m 1,9 km/h (1 Bft) W-NW 296 0 min 0,000 mm 2,7 UV-I 366 W/m 13,9 C 18,9 C 3,2 km/h (1 Bft) 96,15 %
03.06.2016 14:17 18,9 C 74 % 1008,6 hPa 0,0 l/m 2,8 km/h (1 Bft) NW 319 0 min 0,000 mm 2,8 UV-I 374 W/m 14,2 C 18,9 C 4,8 km/h (1 Bft) 95,83 %
03.06.2016 14:18 19,0 C 74 % 1008,6 hPa 0,0 l/m 0,5 km/h (0 Bft) NW 319 0 min 0,000 mm 2,8 UV-I 381 W/m 14,3 C 19,0 C 1,6 km/h (1 Bft) 100,00 %
03.06.2016 14:19 19,0 C 74 % 1008,6 hPa 0,0 l/m 1,7 km/h (1 Bft) N-NW 337 0 min 0,000 mm 2,9 UV-I 396 W/m 14,3 C 19,0 C 3,2 km/h (1 Bft) 100,00 %
03.06.2016 14:20 19,1 C 75 % 1008,6 hPa 0,0 l/m 0,8 km/h (0 Bft) N-NW 339 0 min 0,000 mm 3,1 UV-I 431 W/m 14,6 C 19,1 C 1,6 km/h (1 Bft) 95,83 %
03.06.2016 14:21 19,1 C 76 % 1008,5 hPa 0,0 l/m 2,7 km/h (1 Bft) N-NW 346 1 min 0,000 mm 3,4 UV-I 492 W/m 14,8 C 19,1 C 4,8 km/h (1 Bft) 100,00 %
03.06.2016 14:22 19,1 C 75 % 1008,6 hPa 0,0 l/m 3,0 km/h (1 Bft) W-NW 299 1 min 0,000 mm 3,7 UV-I 550 W/m 14,6 C 19,1 C 4,8 km/h (1 Bft) 100,00 %
03.06.2016 14:23 19,1 C 72 % 1008,5 hPa 0,0 l/m 1,3 km/h (1 Bft) W-NW 299 1 min 0,000 mm 3,7 UV-I 540 W/m 13,9 C 19,1 C 3,2 km/h (1 Bft) 100,00 %
03.06.2016 14:24 19,1 C 72 % 1008,5 hPa 0,0 l/m 2,9 km/h (1 Bft) W 277 1 min 0,000 mm 3,9 UV-I 585 W/m 13,9 C 19,1 C 4,8 km/h (1 Bft) 100,00 %
03.06.2016 14:25 19,1 C 71 % 1008,5 hPa 0,0 l/m 3,7 km/h (1 Bft) W-SW 238 1 min 0,000 mm 4,3 UV-I 680 W/m 13,7 C 19,1 C 6,4 km/h (2 Bft) 91,30 %
03.06.2016 14:26 19,2 C 72 % 1008,5 hPa 0,0 l/m 4,5 km/h (1 Bft) NW 319 1 min 0,000 mm 4,5 UV-I 692 W/m 14,0 C 19,2 C 6,4 km/h (2 Bft) 100,00 %
03.06.2016 14:27 19,3 C 72 % 1008,5 hPa 0,0 l/m 2,1 km/h (1 Bft) NW 313 1 min 0,000 mm 4,0 UV-I 663 W/m 14,1 C 19,3 C 3,2 km/h (1 Bft) 96,55 %
03.06.2016 14:28 19,4 C 74 % 1008,5 hPa 0,0 l/m 2,7 km/h (1 Bft) W 275 1 min 0,000 mm 4,0 UV-I 569 W/m 14,6 C 19,4 C 6,4 km/h (2 Bft) 100,00 %
03.06.2016 14:29 19,4 C 70 % 1008,4 hPa 0,0 l/m 3,8 km/h (1 Bft) W 272 1 min 0,000 mm 4,0 UV-I 544 W/m 13,8 C 19,4 C 6,4 km/h (2 Bft) 100,00 %
03.06.2016 14:30 19,5 C 69 % 1008,5 hPa 0,0 l/m 0,5 km/h (0 Bft) W 272 1 min 0,000 mm 4,0 UV-I 529 W/m 13,7 C 19,5 C 1,6 km/h (1 Bft) 100,00 %
03.06.2016 14:31 19,5 C 71 % 1008,4 hPa 0,0 l/m 0,4 km/h (0 Bft) W 272 1 min 0,000 mm 4,3 UV-I 576 W/m 14,1 C 19,5 C 1,6 km/h (1 Bft) 100,00 %
03.06.2016 14:32 19,5 C 69 % 1008,4 hPa 0,0 l/m 0,9 km/h (0 Bft) W 272 1 min 0,000 mm 4,3 UV-I 564 W/m 13,7 C 19,5 C 3,2 km/h (1 Bft) 100,00 %
03.06.2016 14:33 19,6 C 70 % 1008,4 hPa 0,0 l/m 1,8 km/h (1 Bft) W 272 1 min 0,000 mm 4,0 UV-I 520 W/m 14,0 C 19,6 C 3,2 km/h (1 Bft) 100,00 %
03.06.2016 14:34 19,7 C 73 % 1008,4 hPa 0,0 l/m 0,8 km/h (0 Bft) W 275 1 min 0,000 mm 3,9 UV-I 474 W/m 14,7 C 19,7 C 1,6 km/h (1 Bft) 100,00 %
03.06.2016 14:35 19,7 C 72 % 1008,4 hPa 0,0 l/m 5,9 km/h (2 Bft) W 271 1 min 0,000 mm 3,8 UV-I 466 W/m 14,5 C 19,7 C 11,3 km/h (2 Bft) 100,00 %
03.06.2016 14:36 19,7 C 70 % 1008,4 hPa 0,0 l/m 8,4 km/h (2 Bft) N-NW 335 1 min 0,000 mm 4,0 UV-I 473 W/m 14,1 C 18,9 C 12,9 km/h (3 Bft) 100,00 %
03.06.2016 14:37 19,6 C 69 % 1008,4 hPa 0,0 l/m 3,0 km/h (1 Bft) N-NW 329 1 min 0,000 mm 4,1 UV-I 473 W/m 13,8 C 19,6 C 4,8 km/h (1 Bft) 100,00 %
03.06.2016 14:38 19,6 C 68 % 1008,4 hPa 0,0 l/m 3,6 km/h (1 Bft) NW 306 1 min 0,000 mm 3,8 UV-I 494 W/m 13,5 C 19,6 C 6,4 km/h (2 Bft) 100,00 %
03.06.2016 14:39 19,4 C 68 % 1008,4 hPa 0,0 l/m 1,5 km/h (1 Bft) NW 306 0 min 0,000 mm 3,7 UV-I 452 W/m 13,3 C 19,4 C 3,2 km/h (1 Bft) 100,00 %
03.06.2016 14:40 19,4 C 69 % 1008,4 hPa 0,0 l/m 1,5 km/h (1 Bft) NW 306 0 min 0,000 mm 3,5 UV-I 419 W/m 13,6 C 19,4 C 3,2 km/h (1 Bft) 100,00 %
03.06.2016 14:41 19,4 C 70 % 1008,4 hPa 0,0 l/m 2,1 km/h (1 Bft) SW 225 0 min 0,000 mm 3,5 UV-I 404 W/m 13,8 C 19,4 C 4,8 km/h (1 Bft) 100,00 %
03.06.2016 14:42 19,4 C 70 % 1008,4 hPa 0,0 l/m 4,1 km/h (1 Bft) SW 216 0 min 0,000 mm 3,4 UV-I 398 W/m 13,8 C 19,4 C 4,8 km/h (1 Bft) 100,00 %
03.06.2016 14:43 19,4 C 71 % 1008,4 hPa 0,0 l/m 2,4 km/h (1 Bft) SW 216 0 min 0,000 mm 3,4 UV-I 399 W/m 14,0 C 19,4 C 4,8 km/h (1 Bft) 100,00 %
03.06.2016 14:44 19,3 C 72 % 1008,4 hPa 0,0 l/m 0,6 km/h (0 Bft) S-SW 213 0 min 0,000 mm 3,4 UV-I 406 W/m 14,1 C 19,3 C 1,6 km/h (1 Bft) 96,15 %
03.06.2016 14:45 19,4 C 71 % 1008,3 hPa 0,0 l/m 1,8 km/h (1 Bft) S-SW 200 0 min 0,000 mm 3,6 UV-I 433 W/m 14,0 C 19,4 C 4,8 km/h (1 Bft) 100,00 %
03.06.2016 14:46 19,5 C 74 % 1008,3 hPa 0,0 l/m 1,4 km/h (1 Bft) S-SW 200 1 min 0,000 mm 4,2 UV-I 475 W/m 14,7 C 19,5 C 3,2 km/h (1 Bft) 100,00 %
03.06.2016 14:47 19,6 C 74 % 1008,3 hPa 0,0 l/m 1,6 km/h (1 Bft) SW 236 1 min 0,000 mm 4,2 UV-I 687 W/m 14,8 C 19,6 C 3,2 km/h (1 Bft) 100,00 %
03.06.2016 14:48 19,6 C 68 % 1008,3 hPa 0,0 l/m 1,9 km/h (1 Bft) W-SW 240 1 min 0,000 mm 4,0 UV-I 624 W/m 13,5 C 19,6 C 3,2 km/h (1 Bft) 100,00 %
03.06.2016 14:49 19,7 C 70 % 1008,3 hPa 0,0 l/m 3,2 km/h (1 Bft) W-SW 251 1 min 0,000 mm 3,9 UV-I 514 W/m 14,1 C 19,7 C 4,8 km/h (1 Bft) 100,00 %
03.06.2016 14:50 19,7 C 70 % 1008,3 hPa 0,0 l/m 4,9 km/h (1 Bft) SW 232 1 min 0,000 mm 3,8 UV-I 495 W/m 14,1 C 19,7 C 6,4 km/h (2 Bft) 100,00 %
03.06.2016 14:51 19,7 C 71 % 1008,3 hPa 0,0 l/m 4,0 km/h (1 Bft) W-NW 297 1 min 0,000 mm 3,9 UV-I 517 W/m 14,3 C 19,7 C 6,4 km/h (2 Bft) 100,00 %
03.06.2016 14:52 19,7 C 71 % 1008,3 hPa 0,0 l/m 3,8 km/h (1 Bft) W 259 1 min 0,000 mm 3,9 UV-I 477 W/m 14,3 C 19,7 C 4,8 km/h (1 Bft) 100,00 %
03.06.2016 14:53 19,7 C 71 % 1008,3 hPa 0,0 l/m 3,0 km/h (1 Bft) W-SW 246 1 min 0,000 mm 4,0 UV-I 487 W/m 14,3 C 19,7 C 4,8 km/h (1 Bft) 100,00 %
03.06.2016 14:54 19,8 C 72 % 1008,3 hPa 0,0 l/m 2,9 km/h (1 Bft) W-NW 293 1 min 0,000 mm 3,8 UV-I 497 W/m 14,6 C 19,8 C 4,8 km/h (1 Bft) 100,00 %
03.06.2016 14:55 19,8 C 69 % 1008,3 hPa 0,0 l/m 6,0 km/h (2 Bft) W 259 1 min 0,000 mm 3,6 UV-I 508 W/m 13,9 C 19,8 C 9,7 km/h (2 Bft) 100,00 %
03.06.2016 14:56 19,8 C 70 % 1008,3 hPa 0,0 l/m 4,8 km/h (1 Bft) W 263 0 min 0,000 mm 3,3 UV-I 407 W/m 14,2 C 19,8 C 9,7 km/h (2 Bft) 100,00 %
03.06.2016 14:57 19,8 C 67 % 1008,3 hPa 0,0 l/m 5,2 km/h (1 Bft) W-SW 243 0 min 0,000 mm 3,3 UV-I 365 W/m 13,5 C 19,8 C 6,4 km/h (2 Bft) 95,65 %
03.06.2016 14:58 19,8 C 68 % 1008,3 hPa 0,0 l/m 4,4 km/h (1 Bft) SW 234 0 min 0,000 mm 3,2 UV-I 351 W/m 13,7 C 19,8 C 6,4 km/h (2 Bft) 95,83 %
03.06.2016 14:59 19,8 C 69 % 1008,3 hPa 0,0 l/m 7,8 km/h (2 Bft) W-SW 251 0 min 0,000 mm 2,9 UV-I 313 W/m 13,9 C 19,2 C 11,3 km/h (2 Bft) 100,00 %
03.06.2016 15:00 19,7 C 68 % 1008,3 hPa 0,0 l/m 6,4 km/h (2 Bft) W-SW 256 0 min 0,000 mm 3,2 UV-I 353 W/m 13,6 C 19,7 C 9,7 km/h (2 Bft) 100,00 %
03.06.2016 15:01 19,7 C 70 % 1008,3 hPa 0,0 l/m 3,5 km/h (1 Bft) W 260 0 min 0,280 mm 3,1 UV-I 350 W/m 14,1 C 19,7 C 6,4 km/h (2 Bft) 100,00 %
03.06.2016 15:02 19,6 C 69 % 1008,3 hPa 0,0 l/m 3,9 km/h (1 Bft) W 273 0 min 0,000 mm 3,1 UV-I 345 W/m 13,8 C 19,6 C 6,4 km/h (2 Bft) 100,00 %
03.06.2016 15:03 19,6 C 69 % 1008,3 hPa 0,0 l/m 4,4 km/h (1 Bft) W 275 0 min 0,000 mm 3,0 UV-I 338 W/m 13,8 C 19,6 C 6,4 km/h (2 Bft) 91,30 %
03.06.2016 15:04 19,6 C 70 % 1008,2 hPa 0,0 l/m 3,4 km/h (1 Bft) W 275 0 min 0,000 mm 2,7 UV-I 333 W/m 14,0 C 19,6 C 4,8 km/h (1 Bft) 100,00 %
03.06.2016 15:05 19,6 C 69 % 1008,2 hPa 0,0 l/m 2,0 km/h (1 Bft) W 275 0 min 0,000 mm 2,6 UV-I 329 W/m 13,8 C 19,6 C 3,2 km/h (1 Bft) 100,00 %
03.06.2016 15:06 19,6 C 71 % 1008,2 hPa 0,0 l/m 1,9 km/h (1 Bft) W 275 0 min 0,000 mm 2,7 UV-I 326 W/m 14,2 C 19,6 C 3,2 km/h (1 Bft) 95,83 %
03.06.2016 15:07 19,6 C 69 % 1008,2 hPa 0,0 l/m 3,0 km/h (1 Bft) W 275 0 min 0,000 mm 2,8 UV-I 326 W/m 13,8 C 19,6 C 4,8 km/h (1 Bft) 100,00 %
03.06.2016 15:08 19,6 C 70 % 1008,2 hPa 0,0 l/m 3,8 km/h (1 Bft) W 281 0 min 0,000 mm 2,8 UV-I 327 W/m 14,0 C 19,6 C 9,7 km/h (2 Bft) 100,00 %
03.06.2016 15:09 19,6 C 71 % 1008,2 hPa 0,0 l/m 5,6 km/h (1 Bft) W 259 0 min 0,000 mm 2,6 UV-I 327 W/m 14,2 C 19,6 C 9,7 km/h (2 Bft) 100,00 %
03.06.2016 15:10 19,6 C 69 % 1008,2 hPa 0,0 l/m 4,5 km/h (1 Bft) W 275 0 min 0,000 mm 2,7 UV-I 323 W/m 13,8 C 19,6 C 6,4 km/h (2 Bft) 100,00 %
03.06.2016 15:11 19,6 C 69 % 1008,2 hPa 0,0 l/m 3,4 km/h (1 Bft) W 275 0 min 0,000 mm 2,3 UV-I 326 W/m 13,8 C 19,6 C 4,8 km/h (1 Bft) 100,00 %
03.06.2016 15:12 19,7 C 71 % 1008,2 hPa 0,0 l/m 2,2 km/h (1 Bft) W-SW 244 0 min 0,000 mm 2,7 UV-I 330 W/m 14,3 C 19,7 C 3,2 km/h (1 Bft) 100,00 %
03.06.2016 15:13 19,7 C 71 % 1008,3 hPa 0,0 l/m 4,4 km/h (1 Bft) W-SW 246 0 min 0,000 mm 2,6 UV-I 335 W/m 14,3 C 19,7 C 4,8 km/h (1 Bft) 100,00 %
03.06.2016 15:14 19,7 C 73 % 1008,3 hPa 0,0 l/m 2,7 km/h (1 Bft) W-SW 241 0 min 0,000 mm 2,6 UV-I 338 W/m 14,7 C 19,7 C 4,8 km/h (1 Bft) 100,00 %
03.06.2016 15:15 19,7 C 73 % 1008,3 hPa 0,0 l/m 3,2 km/h (1 Bft) S-SW 195 0 min 0,000 mm 2,6 UV-I 338 W/m 14,7 C 19,7 C 4,8 km/h (1 Bft) 100,00 %
03.06.2016 15:16 19,7 C 71 % 1008,3 hPa 0,0 l/m 5,7 km/h (1 Bft) S-SW 208 0 min 0,000 mm 2,5 UV-I 333 W/m 14,3 C 19,7 C 8,0 km/h (2 Bft) 100,00 %
03.06.2016 15:17 19,7 C 71 % 1008,3 hPa 0,0 l/m 6,5 km/h (2 Bft) S-SW 209 0 min 0,000 mm 2,5 UV-I 329 W/m 14,3 C 19,7 C 8,0 km/h (2 Bft) 100,00 %
03.06.2016 15:18 19,6 C 70 % 1008,3 hPa 0,0 l/m 7,1 km/h (2 Bft) SW 223 0 min 0,000 mm 2,4 UV-I 326 W/m 14,0 C 19,3 C 9,7 km/h (2 Bft) 100,00 %
03.06.2016 15:19 19,7 C 71 % 1008,3 hPa 0,0 l/m 5,0 km/h (1 Bft) SW 217 0 min 0,000 mm 2,4 UV-I 324 W/m 14,3 C 19,7 C 8,0 km/h (2 Bft) 100,00 %
03.06.2016 15:20 19,6 C 70 % 1008,4 hPa 0,0 l/m 6,9 km/h (2 Bft) S-SW 199 0 min 0,000 mm 2,4 UV-I 325 W/m 14,0 C 19,4 C 9,7 km/h (2 Bft) 100,00 %
03.06.2016 15:21 19,6 C 71 % 1008,4 hPa 0,0 l/m 5,5 km/h (1 Bft) S-SW 205 0 min 0,000 mm 2,4 UV-I 330 W/m 14,2 C 19,6 C 8,0 km/h (2 Bft) 100,00 %
03.06.2016 15:22 19,7 C 72 % 1008,4 hPa 0,0 l/m 5,4 km/h (1 Bft) S-SW 198 0 min 0,000 mm 2,4 UV-I 337 W/m 14,5 C 19,7 C 6,4 km/h (2 Bft) 100,00 %
03.06.2016 15:23 19,7 C 73 % 1008,3 hPa 0,0 l/m 5,4 km/h (1 Bft) W-SW 250 0 min 0,000 mm 2,4 UV-I 344 W/m 14,7 C 19,7 C 8,0 km/h (2 Bft) 95,83 %
03.06.2016 15:24 19,7 C 71 % 1008,4 hPa 0,0 l/m 4,7 km/h (1 Bft) W-SW 243 0 min 0,000 mm 2,4 UV-I 352 W/m 14,3 C 19,7 C 6,4 km/h (2 Bft) 100,00 %
03.06.2016 15:25 19,7 C 70 % 1008,3 hPa 0,0 l/m 4,9 km/h (1 Bft) S 180 0 min 0,000 mm 2,5 UV-I 363 W/m 14,1 C 19,7 C 6,4 km/h (2 Bft) 95,83 %
03.06.2016 15:26 19,7 C 70 % 1008,4 hPa 0,0 l/m 5,5 km/h (1 Bft) W-SW 242 0 min 0,000 mm 2,6 UV-I 397 W/m 14,1 C 19,7 C 6,4 km/h (2 Bft) 100,00 %
03.06.2016 15:27 19,8 C 70 % 1008,4 hPa 0,0 l/m 4,6 km/h (1 Bft) W-SW 246 0 min 0,000 mm 3,4 UV-I 401 W/m 14,2 C 19,8 C 8,0 km/h (2 Bft) 100,00 %
03.06.2016 15:28 19,8 C 70 % 1008,3 hPa 0,0 l/m 3,2 km/h (1 Bft) S-SW 207 0 min 0,000 mm 2,5 UV-I 397 W/m 14,2 C 19,8 C 4,8 km/h (1 Bft) 95,65 %
03.06.2016 15:29 19,8 C 69 % 1008,4 hPa 0,0 l/m 4,8 km/h (1 Bft) S-SO 157 0 min 0,000 mm 2,5 UV-I 389 W/m 13,9 C 19,8 C 8,0 km/h (2 Bft) 100,00 %
03.06.2016 15:30 19,8 C 70 % 1008,3 hPa 0,0 l/m 5,0 km/h (1 Bft) S-SW 196 0 min 0,000 mm 2,5 UV-I 399 W/m 14,2 C 19,8 C 8,0 km/h (2 Bft) 100,00 %
03.06.2016 15:31 19,9 C 71 % 1008,4 hPa 0,0 l/m 4,5 km/h (1 Bft) S 184 0 min 0,000 mm 2,6 UV-I 405 W/m 14,5 C 19,9 C 6,4 km/h (2 Bft) 100,00 %
03.06.2016 15:32 19,9 C 71 % 1008,3 hPa 0,0 l/m 6,2 km/h (2 Bft) SW 225 0 min 0,000 mm 2,7 UV-I 416 W/m 14,5 C 19,9 C 8,0 km/h (2 Bft) 95,65 %
03.06.2016 15:33 19,9 C 70 % 1008,3 hPa 0,0 l/m 5,0 km/h (1 Bft) S 191 1 min 0,000 mm 2,7 UV-I 420 W/m 14,3 C 19,9 C 11,3 km/h (2 Bft) 100,00 %
03.06.2016 15:34 19,9 C 69 % 1008,3 hPa 0,0 l/m 8,4 km/h (2 Bft) W-SW 256 0 min 0,000 mm 2,7 UV-I 419 W/m 14,0 C 19,1 C 11,3 km/h (2 Bft) 91,67 %
03.06.2016 15:35 20,0 C 71 % 1008,3 hPa 0,0 l/m 9,2 km/h (2 Bft) W 271 0 min 0,000 mm 2,7 UV-I 418 W/m 14,6 C 18,9 C 12,9 km/h (3 Bft) 96,15 %
03.06.2016 15:36 20,0 C 69 % 1008,3 hPa 0,0 l/m 4,6 km/h (1 Bft) W-NW 295 0 min 0,000 mm 2,7 UV-I 415 W/m 14,1 C 20,0 C 6,4 km/h (2 Bft) 95,83 %
03.06.2016 15:37 19,9 C 68 % 1008,2 hPa 0,0 l/m 2,4 km/h (1 Bft) S-SW 196 0 min 0,000 mm 2,7 UV-I 409 W/m 13,8 C 19,9 C 6,4 km/h (2 Bft) 100,00 %
03.06.2016 15:38 19,9 C 69 % 1008,2 hPa 0,0 l/m 6,4 km/h (2 Bft) S-SW 200 0 min 0,000 mm 2,7 UV-I 404 W/m 14,0 C 19,9 C 11,3 km/h (2 Bft) 91,67 %
03.06.2016 15:39 19,8 C 70 % 1008,2 hPa 0,0 l/m 7,4 km/h (2 Bft) S-SW 196 0 min 0,000 mm 2,7 UV-I 402 W/m 14,2 C 19,4 C 11,3 km/h (2 Bft) 100,00 %
03.06.2016 15:40 19,8 C 69 % 1008,2 hPa 0,0 l/m 6,5 km/h (2 Bft) W 272 0 min 0,000 mm 2,6 UV-I 394 W/m 13,9 C 19,8 C 8,0 km/h (2 Bft) 96,30 %
03.06.2016 15:41 19,9 C 72 % 1008,2 hPa 0,0 l/m 5,8 km/h (2 Bft) W 261 0 min 0,000 mm 2,6 UV-I 389 W/m 14,7 C 19,9 C 9,7 km/h (2 Bft) 95,65 %
03.06.2016 15:42 20,0 C 71 % 1008,2 hPa 0,0 l/m 4,9 km/h (1 Bft) SW 228 0 min 0,000 mm 2,6 UV-I 336 W/m 14,6 C 20,0 C 6,4 km/h (2 Bft) 95,83 %
03.06.2016 15:43 20,1 C 69 % 1008,2 hPa 0,0 l/m 3,0 km/h (1 Bft) W-SW 242 0 min 0,000 mm 2,6 UV-I 362 W/m 14,2 C 20,1 C 4,8 km/h (1 Bft) 95,65 %
03.06.2016 15:44 20,0 C 68 % 1008,2 hPa 0,0 l/m 3,4 km/h (1 Bft) W-SW 241 0 min 0,000 mm 2,6 UV-I 383 W/m 13,9 C 20,0 C 4,8 km/h (1 Bft) 100,00 %
03.06.2016 15:45 20,0 C 68 % 1008,2 hPa 0,0 l/m 1,6 km/h (1 Bft) W-SW 241 0 min 0,000 mm 2,6 UV-I 392 W/m 13,9 C 20,0 C 3,2 km/h (1 Bft) 96,15 %
03.06.2016 15:46 19,9 C 69 % 1008,2 hPa 0,0 l/m 5,2 km/h (1 Bft) W-SW 240 0 min 0,000 mm 2,6 UV-I 406 W/m 14,0 C 19,9 C 6,4 km/h (2 Bft) 100,00 %
03.06.2016 15:47 20,0 C 70 % 1008,2 hPa 0,0 l/m 1,9 km/h (1 Bft) SW 230 1 min 0,000 mm 2,7 UV-I 418 W/m 14,4 C 20,0 C 3,2 km/h (1 Bft) 95,65 %
03.06.2016 15:48 20,0 C 70 % 1008,2 hPa 0,0 l/m 1,3 km/h (1 Bft) SW 230 1 min 0,000 mm 2,7 UV-I 424 W/m 14,4 C 20,0 C 3,2 km/h (1 Bft) 95,83 %
03.06.2016 15:49 20,1 C 70 % 1008,2 hPa 0,0 l/m 3,4 km/h (1 Bft) SW 229 1 min 0,000 mm 2,7 UV-I 432 W/m 14,5 C 20,1 C 8,0 km/h (2 Bft) 95,65 %
03.06.2016 15:50 20,1 C 68 % 1008,2 hPa 0,0 l/m 3,9 km/h (1 Bft) SW 229 1 min 0,000 mm 2,9 UV-I 456 W/m 14,0 C 20,1 C 6,4 km/h (2 Bft) 95,83 %
03.06.2016 15:51 20,2 C 71 % 1008,2 hPa 0,0 l/m 5,2 km/h (1 Bft) W-SW 258 1 min 0,000 mm 2,7 UV-I 492 W/m 14,8 C 20,2 C 8,0 km/h (2 Bft) 100,00 %
03.06.2016 15:52 20,2 C 69 % 1008,2 hPa 0,0 l/m 5,2 km/h (1 Bft) SW 229 1 min 0,000 mm 2,9 UV-I 477 W/m 14,3 C 20,2 C 6,4 km/h (2 Bft) 95,83 %
03.06.2016 15:53 20,2 C 70 % 1008,2 hPa 0,0 l/m 4,5 km/h (1 Bft) SW 221 1 min 0,000 mm 2,8 UV-I 455 W/m 14,5 C 20,2 C 6,4 km/h (2 Bft) 100,00 %
03.06.2016 15:54 20,1 C 67 % 1008,2 hPa 0,0 l/m 3,8 km/h (1 Bft) SW 236 1 min 0,000 mm 2,7 UV-I 436 W/m 13,8 C 20,1 C 4,8 km/h (1 Bft) 95,83 %
03.06.2016 15:55 20,1 C 69 % 1008,2 hPa 0,0 l/m 1,5 km/h (1 Bft) SW 226 1 min 0,000 mm 2,8 UV-I 419 W/m 14,2 C 20,1 C 4,8 km/h (1 Bft) 95,65 %
03.06.2016 15:56 20,0 C 67 % 1008,2 hPa 0,0 l/m 1,5 km/h (1 Bft) SW 226 1 min 0,000 mm 2,8 UV-I 404 W/m 13,7 C 20,0 C 3,2 km/h (1 Bft) 95,83 %
03.06.2016 15:57 19,9 C 67 % 1008,2 hPa 0,0 l/m 0,6 km/h (0 Bft) SW 226 0 min 0,000 mm 2,9 UV-I 372 W/m 13,6 C 19,9 C 1,6 km/h (1 Bft) 91,30 %
03.06.2016 15:58 19,9 C 71 % 1008,2 hPa 0,0 l/m 0,1 km/h (0 Bft) SW 226 1 min 0,000 mm 3,0 UV-I 421 W/m 14,5 C 19,9 C 1,6 km/h (1 Bft) 100,00 %
03.06.2016 15:59 20,0 C 69 % 1008,2 hPa 0,0 l/m 1,6 km/h (1 Bft) W-SW 238 1 min 0,000 mm 3,4 UV-I 431 W/m 14,1 C 20,0 C 3,2 km/h (1 Bft) 95,83 %
03.06.2016 16:00 20,2 C 68 % 1008,2 hPa 0,0 l/m 2,9 km/h (1 Bft) W-SW 238 1 min 0,000 mm 4,0 UV-I 431 W/m 14,1 C 20,2 C 3,2 km/h (1 Bft) 100,00 %
03.06.2016 16:01 20,3 C 70 % 1008,2 hPa 0,0 l/m 2,7 km/h (1 Bft) W-SW 238 1 min 0,254 mm 4,2 UV-I 847 W/m 14,6 C 20,3 C 4,8 km/h (1 Bft) 95,83 %
03.06.2016 16:02 20,4 C 68 % 1008,1 hPa 0,0 l/m 6,0 km/h (2 Bft) SW 219 1 min 0,000 mm 4,2 UV-I 911 W/m 14,3 C 20,4 C 11,3 km/h (2 Bft) 100,00 %
03.06.2016 16:03 20,5 C 68 % 1008,2 hPa 0,0 l/m 4,1 km/h (1 Bft) SW 234 1 min 0,000 mm 4,2 UV-I 888 W/m 14,4 C 20,5 C 6,4 km/h (2 Bft) 95,83 %
03.06.2016 16:04 20,5 C 67 % 1008,2 hPa 0,0 l/m 3,9 km/h (1 Bft) W-SW 247 1 min 0,000 mm 4,1 UV-I 863 W/m 14,2 C 20,5 C 8,0 km/h (2 Bft) 92,31 %
03.06.2016 16:05 20,6 C 67 % 1008,1 hPa 0,0 l/m 5,8 km/h (2 Bft) W-SW 244 1 min 0,000 mm 4,0 UV-I 839 W/m 14,3 C 20,6 C 8,0 km/h (2 Bft) 95,83 %
03.06.2016 16:06 20,7 C 67 % 1008,1 hPa 0,0 l/m 6,5 km/h (2 Bft) S-SW 211 1 min 0,000 mm 3,9 UV-I 817 W/m 14,3 C 20,7 C 9,7 km/h (2 Bft) 95,65 %
03.06.2016 16:07 20,7 C 67 % 1008,1 hPa 0,0 l/m 3,5 km/h (1 Bft) S-SO 159 1 min 0,000 mm 3,9 UV-I 797 W/m 14,3 C 20,7 C 8,0 km/h (2 Bft) 100,00 %
03.06.2016 16:08 20,7 C 66 % 1008,1 hPa 0,0 l/m 2,7 km/h (1 Bft) S 169 1 min 0,000 mm 3,8 UV-I 778 W/m 14,1 C 20,7 C 4,8 km/h (1 Bft) 95,65 %
03.06.2016 16:09 20,7 C 67 % 1008,1 hPa 0,0 l/m 2,7 km/h (1 Bft) S-SO 158 1 min 0,000 mm 3,7 UV-I 761 W/m 14,3 C 20,7 C 6,4 km/h (2 Bft) 100,00 %
03.06.2016 16:10 20,7 C 65 % 1008,1 hPa 0,0 l/m 4,5 km/h (1 Bft) O-SO 117 1 min 0,000 mm 3,6 UV-I 748 W/m 13,9 C 20,7 C 6,4 km/h (2 Bft) 95,65 %
03.06.2016 16:11 20,7 C 65 % 1008,0 hPa 0,0 l/m 3,7 km/h (1 Bft) O-SO 115 1 min 0,000 mm 3,6 UV-I 734 W/m 13,9 C 20,7 C 4,8 km/h (1 Bft) 100,00 %
03.06.2016 16:12 20,6 C 66 % 1008,0 hPa 0,0 l/m 3,5 km/h (1 Bft) O-NO 62 1 min 0,000 mm 3,5 UV-I 719 W/m 14,0 C 20,6 C 6,4 km/h (2 Bft) 100,00 %
03.06.2016 16:13 20,7 C 67 % 1008,0 hPa 0,0 l/m 5,3 km/h (1 Bft) O-NO 59 1 min 0,000 mm 3,5 UV-I 709 W/m 14,3 C 20,7 C 6,4 km/h (2 Bft) 100,00 %
03.06.2016 16:14 20,7 C 68 % 1008,0 hPa 0,0 l/m 3,8 km/h (1 Bft) O-NO 63 1 min 0,000 mm 3,5 UV-I 714 W/m 14,6 C 20,7 C 4,8 km/h (1 Bft) 92,59 %
03.06.2016 16:15 20,8 C 67 % 1008,0 hPa 0,0 l/m 3,8 km/h (1 Bft) O 101 1 min 0,000 mm 3,5 UV-I 706 W/m 14,4 C 20,8 C 4,8 km/h (1 Bft) 100,00 %
03.06.2016 16:16 20,8 C 66 % 1008,0 hPa 0,0 l/m 2,6 km/h (1 Bft) O 101 1 min 0,000 mm 3,4 UV-I 697 W/m 14,2 C 20,8 C 3,2 km/h (1 Bft) 100,00 %
03.06.2016 16:17 20,8 C 63 % 1008,0 hPa 0,0 l/m 2,4 km/h (1 Bft) O-NO 71 1 min 0,000 mm 3,4 UV-I 693 W/m 13,5 C 20,8 C 4,8 km/h (1 Bft) 91,30 %
03.06.2016 16:18 20,8 C 66 % 1008,0 hPa 0,0 l/m 2,7 km/h (1 Bft) S-SO 167 1 min 0,000 mm 3,3 UV-I 693 W/m 14,2 C 20,8 C 4,8 km/h (1 Bft) 100,00 %
03.06.2016 16:19 20,9 C 65 % 1008,0 hPa 0,0 l/m 4,6 km/h (1 Bft) O-SO 116 1 min 0,000 mm 3,3 UV-I 691 W/m 14,1 C 20,9 C 9,7 km/h (2 Bft) 100,00 %
03.06.2016 16:20 20,8 C 63 % 1008,0 hPa 0,0 l/m 2,8 km/h (1 Bft) S-SO 157 1 min 0,000 mm 3,3 UV-I 687 W/m 13,5 C 20,8 C 4,8 km/h (1 Bft) 100,00 %
03.06.2016 16:21 20,8 C 63 % 1008,0 hPa 0,0 l/m 3,8 km/h (1 Bft) S 177 1 min 0,000 mm 3,3 UV-I 690 W/m 13,5 C 20,8 C 6,4 km/h (2 Bft) 100,00 %
03.06.2016 16:22 20,8 C 65 % 1007,9 hPa 0,0 l/m 2,9 km/h (1 Bft) S 178 1 min 0,000 mm 3,2 UV-I 691 W/m 14,0 C 20,8 C 4,8 km/h (1 Bft) 100,00 %
03.06.2016 16:23 20,9 C 64 % 1007,8 hPa 0,0 l/m 2,1 km/h (1 Bft) S-SO 167 1 min 0,000 mm 3,2 UV-I 690 W/m 13,8 C 20,9 C 4,8 km/h (1 Bft) 100,00 %
03.06.2016 16:24 20,9 C 65 % 1007,9 hPa 0,0 l/m 2,7 km/h (1 Bft) S-SO 165 1 min 0,000 mm 3,2 UV-I 687 W/m 14,1 C 20,9 C 4,8 km/h (1 Bft) 100,00 %
03.06.2016 16:25 21,0 C 65 % 1007,9 hPa 0,0 l/m 3,8 km/h (1 Bft) S-SO 167 1 min 0,000 mm 3,1 UV-I 686 W/m 14,2 C 21,0 C 6,4 km/h (2 Bft) 100,00 %
03.06.2016 16:26 20,9 C 63 % 1007,9 hPa 0,0 l/m 2,3 km/h (1 Bft) S-SO 167 1 min 0,000 mm 3,1 UV-I 689 W/m 13,6 C 20,9 C 4,8 km/h (1 Bft) 100,00 %
03.06.2016 16:27 21,0 C 64 % 1007,9 hPa 0,0 l/m 1,3 km/h (1 Bft) S-SO 167 1 min 0,000 mm 3,0 UV-I 672 W/m 13,9 C 21,0 C 4,8 km/h (1 Bft) 100,00 %
03.06.2016 16:28 21,1 C 65 % 1007,9 hPa 0,0 l/m 1,1 km/h (1 Bft) S-SO 167 1 min 0,000 mm 2,8 UV-I 642 W/m 14,3 C 21,1 C 1,6 km/h (1 Bft) 95,83 %
03.06.2016 16:29 21,1 C 68 % 1007,9 hPa 0,0 l/m 1,6 km/h (1 Bft) O-SO 109 1 min 0,000 mm 2,6 UV-I 642 W/m 15,0 C 21,1 C 4,8 km/h (1 Bft) 100,00 %
03.06.2016 16:30 21,2 C 65 % 1007,9 hPa 0,0 l/m 2,0 km/h (1 Bft) O-SO 109 1 min 0,000 mm 2,4 UV-I 417 W/m 14,4 C 21,2 C 3,2 km/h (1 Bft) 100,00 %
03.06.2016 16:31 21,2 C 66 % 1007,9 hPa 0,0 l/m 0,7 km/h (0 Bft) O-SO 109 0 min 0,000 mm 2,6 UV-I 346 W/m 14,6 C 21,2 C 1,6 km/h (1 Bft) 100,00 %
03.06.2016 16:32 21,2 C 65 % 1007,9 hPa 0,0 l/m 5,4 km/h (1 Bft) NO 35 0 min 0,000 mm 2,1 UV-I 311 W/m 14,4 C 21,2 C 8,0 km/h (2 Bft) 100,00 %
03.06.2016 16:33 21,1 C 66 % 1007,9 hPa 0,0 l/m 5,6 km/h (1 Bft) O-NO 59 0 min 0,000 mm 2,0 UV-I 179 W/m 14,5 C 21,1 C 8,0 km/h (2 Bft) 100,00 %
03.06.2016 16:34 20,9 C 65 % 1007,9 hPa 0,0 l/m 4,5 km/h (1 Bft) O-NO 78 0 min 0,000 mm 2,0 UV-I 179 W/m 14,1 C 20,9 C 6,4 km/h (2 Bft) 100,00 %
03.06.2016 16:35 20,8 C 63 % 1007,9 hPa 0,0 l/m 2,3 km/h (1 Bft) O 93 0 min 0,000 mm 1,8 UV-I 174 W/m 13,5 C 20,8 C 4,8 km/h (1 Bft) 100,00 %
03.06.2016 16:36 20,7 C 64 % 1007,9 hPa 0,0 l/m 1,0 km/h (0 Bft) O 93 0 min 0,000 mm 1,8 UV-I 171 W/m 13,6 C 20,7 C 3,2 km/h (1 Bft) 95,65 %
03.06.2016 16:37 20,6 C 64 % 1007,9 hPa 0,0 l/m 1,8 km/h (1 Bft) N-NO 24 0 min 0,000 mm 1,8 UV-I 167 W/m 13,5 C 20,6 C 3,2 km/h (1 Bft) 100,00 %
03.06.2016 16:38 20,5 C 69 % 1007,9 hPa 0,0 l/m 1,1 km/h (1 Bft) N 355 0 min 0,000 mm 1,7 UV-I 170 W/m 14,6 C 20,5 C 3,2 km/h (1 Bft) 95,65 %
03.06.2016 16:39 20,4 C 68 % 1007,9 hPa 0,0 l/m 2,1 km/h (1 Bft) N-NW 329 0 min 0,000 mm 1,8 UV-I 181 W/m 14,3 C 20,4 C 3,2 km/h (1 Bft) 100,00 %
03.06.2016 16:40 20,4 C 70 % 1007,9 hPa 0,0 l/m 0,4 km/h (0 Bft) N-NW 331 0 min 0,000 mm 2,2 UV-I 181 W/m 14,7 C 20,4 C 1,6 km/h (1 Bft) 100,00 %
03.06.2016 16:41 20,5 C 70 % 1007,9 hPa 0,0 l/m 1,4 km/h (1 Bft) N-NW 338 1 min 0,000 mm 2,3 UV-I 477 W/m 14,8 C 20,5 C 3,2 km/h (1 Bft) 100,00 %
03.06.2016 16:42 20,6 C 71 % 1007,9 hPa 0,0 l/m 0,4 km/h (0 Bft) N-NW 344 1 min 0,000 mm 2,3 UV-I 606 W/m 15,2 C 20,6 C 1,6 km/h (1 Bft) 91,30 %
03.06.2016 16:43 20,7 C 71 % 1007,9 hPa 0,0 l/m 0,5 km/h (0 Bft) N-NW 344 1 min 0,000 mm 2,2 UV-I 461 W/m 15,2 C 20,7 C 1,6 km/h (1 Bft) 95,83 %
03.06.2016 16:44 20,7 C 70 % 1007,9 hPa 0,0 l/m 0,8 km/h (0 Bft) N-NW 345 1 min 0,000 mm 2,1 UV-I 455 W/m 15,0 C 20,7 C 1,6 km/h (1 Bft) 95,65 %
03.06.2016 16:45 20,8 C 72 % 1007,9 hPa 0,0 l/m 0,5 km/h (0 Bft) N-NW 345 0 min 0,000 mm 1,7 UV-I 328 W/m 15,6 C 20,8 C 1,6 km/h (1 Bft) 100,00 %
03.06.2016 16:46 20,7 C 74 % 1007,8 hPa 0,0 l/m 1,1 km/h (1 Bft) N-NW 331 0 min 0,000 mm 1,6 UV-I 146 W/m 15,9 C 20,7 C 3,2 km/h (1 Bft) 100,00 %
03.06.2016 16:47 20,6 C 72 % 1007,8 hPa 0,0 l/m 0,5 km/h (0 Bft) N-NW 331 0 min 0,000 mm 1,6 UV-I 145 W/m 15,4 C 20,6 C 1,6 km/h (1 Bft) 100,00 %
03.06.2016 16:48 20,4 C 72 % 1007,8 hPa 0,0 l/m 0,0 km/h (0 Bft) N-NW 331 0 min 0,000 mm 1,6 UV-I 192 W/m 15,2 C 20,4 C 0,0 km/h (0 Bft) 100,00 %
03.06.2016 16:49 20,4 C 69 % 1007,8 hPa 0,0 l/m 2,1 km/h (1 Bft) N 5 0 min 0,000 mm 1,6 UV-I 218 W/m 14,5 C 20,4 C 4,8 km/h (1 Bft) 100,00 %
03.06.2016 16:50 20,3 C 70 % 1007,8 hPa 0,0 l/m 0,3 km/h (0 Bft) N 5 0 min 0,000 mm 1,6 UV-I 217 W/m 14,6 C 20,3 C 1,6 km/h (1 Bft) 95,65 %
03.06.2016 16:51 20,3 C 73 % 1007,8 hPa 0,0 l/m 0,8 km/h (0 Bft) N 5 0 min 0,000 mm 1,5 UV-I 205 W/m 15,3 C 20,3 C 1,6 km/h (1 Bft) 100,00 %
03.06.2016 16:52 20,2 C 72 % 1007,8 hPa 0,0 l/m 1,7 km/h (1 Bft) N-NO 19 0 min 0,000 mm 1,5 UV-I 182 W/m 15,0 C 20,2 C 4,8 km/h (1 Bft) 100,00 %
03.06.2016 16:53 20,2 C 70 % 1007,8 hPa 0,0 l/m 3,6 km/h (1 Bft) N-NO 19 0 min 0,000 mm 1,4 UV-I 156 W/m 14,5 C 20,2 C 4,8 km/h (1 Bft) 100,00 %
03.06.2016 16:54 20,1 C 68 % 1007,8 hPa 0,0 l/m 1,4 km/h (1 Bft) N-NO 19 0 min 0,000 mm 1,4 UV-I 148 W/m 14,0 C 20,1 C 3,2 km/h (1 Bft) 95,65 %
03.06.2016 16:55 20,1 C 70 % 1007,8 hPa 0,0 l/m 0,5 km/h (0 Bft) N-NO 19 0 min 0,000 mm 1,4 UV-I 147 W/m 14,5 C 20,1 C 3,2 km/h (1 Bft) 100,00 %
03.06.2016 16:56 20,1 C 69 % 1007,8 hPa 0,0 l/m 1,9 km/h (1 Bft) N-NO 19 0 min 0,000 mm 1,3 UV-I 136 W/m 14,2 C 20,1 C 3,2 km/h (1 Bft) 100,00 %
03.06.2016 16:57 20,1 C 71 % 1007,8 hPa 0,0 l/m 2,3 km/h (1 Bft) N-NO 19 0 min 0,000 mm 1,3 UV-I 151 W/m 14,7 C 20,1 C 3,2 km/h (1 Bft) 100,00 %
03.06.2016 16:58 20,1 C 70 % 1007,8 hPa 0,0 l/m 0,9 km/h (0 Bft) N-NO 19 0 min 0,000 mm 1,3 UV-I 146 W/m 14,5 C 20,1 C 3,2 km/h (1 Bft) 100,00 %
03.06.2016 16:59 20,1 C 71 % 1007,7 hPa 0,0 l/m 0,1 km/h (0 Bft) N-NO 19 0 min 0,000 mm 1,3 UV-I 147 W/m 14,7 C 20,1 C 1,6 km/h (1 Bft) 95,65 %
03.06.2016 17:00 20,1 C 70 % 1007,7 hPa 0,0 l/m 1,3 km/h (1 Bft) N-NO 19 0 min 0,000 mm 1,3 UV-I 159 W/m 14,5 C 20,1 C 3,2 km/h (1 Bft) 100,00 %
03.06.2016 17:01 20,1 C 71 % 1007,8 hPa 0,0 l/m 1,2 km/h (1 Bft) N-NO 19 0 min 0,279 mm 1,3 UV-I 178 W/m 14,7 C 20,1 C 3,2 km/h (1 Bft) 100,00 %
03.06.2016 17:02 20,1 C 70 % 1007,8 hPa 0,0 l/m 2,0 km/h (1 Bft) N-NO 19 0 min 0,000 mm 1,3 UV-I 188 W/m 14,5 C 20,1 C 3,2 km/h (1 Bft) 100,00 %
03.06.2016 17:03 20,2 C 70 % 1007,8 hPa 0,0 l/m 2,9 km/h (1 Bft) N-NO 19 0 min 0,000 mm 1,3 UV-I 194 W/m 14,5 C 20,2 C 3,2 km/h (1 Bft) 100,00 %
03.06.2016 17:04 20,2 C 71 % 1007,8 hPa 0,0 l/m 2,3 km/h (1 Bft) N-NO 19 0 min 0,000 mm 1,3 UV-I 174 W/m 14,8 C 20,2 C 3,2 km/h (1 Bft) 100,00 %
03.06.2016 17:05 20,2 C 69 % 1007,8 hPa 0,0 l/m 1,3 km/h (1 Bft) N-NO 19 0 min 0,000 mm 1,3 UV-I 164 W/m 14,3 C 20,2 C 3,2 km/h (1 Bft) 100,00 %
03.06.2016 17:06 20,2 C 70 % 1007,8 hPa 0,0 l/m 1,6 km/h (1 Bft) N-NO 19 0 min 0,000 mm 1,3 UV-I 165 W/m 14,5 C 20,2 C 3,2 km/h (1 Bft) 100,00 %
03.06.2016 17:07 20,2 C 69 % 1007,8 hPa 0,0 l/m 3,5 km/h (1 Bft) N-NO 30 0 min 0,000 mm 1,4 UV-I 201 W/m 14,3 C 20,2 C 4,8 km/h (1 Bft) 96,15 %
03.06.2016 17:08 20,2 C 70 % 1007,8 hPa 0,0 l/m 2,1 km/h (1 Bft) N-NO 30 0 min 0,000 mm 1,3 UV-I 188 W/m 14,5 C 20,2 C 3,2 km/h (1 Bft) 95,83 %
03.06.2016 17:09 20,3 C 70 % 1007,8 hPa 0,0 l/m 0,3 km/h (0 Bft) N-NO 30 0 min 0,000 mm 1,3 UV-I 188 W/m 14,6 C 20,3 C 1,6 km/h (1 Bft) 100,00 %
03.06.2016 17:10 20,3 C 72 % 1007,8 hPa 0,0 l/m 0,2 km/h (0 Bft) N-NO 30 0 min 0,000 mm 1,2 UV-I 182 W/m 15,1 C 20,3 C 1,6 km/h (1 Bft) 95,83 %
03.06.2016 17:11 20,3 C 71 % 1007,7 hPa 0,0 l/m 2,1 km/h (1 Bft) N-NO 30 0 min 0,000 mm 1,2 UV-I 241 W/m 14,9 C 20,3 C 4,8 km/h (1 Bft) 100,00 %
03.06.2016 17:12 20,3 C 70 % 1007,7 hPa 0,0 l/m 1,3 km/h (1 Bft) N-NW 336 0 min 0,000 mm 1,2 UV-I 178 W/m 14,6 C 20,3 C 3,2 km/h (1 Bft) 100,00 %
03.06.2016 17:13 20,2 C 71 % 1007,7 hPa 0,0 l/m 0,7 km/h (0 Bft) N-NW 336 0 min 0,000 mm 1,2 UV-I 172 W/m 14,8 C 20,2 C 1,6 km/h (1 Bft) 100,00 %
03.06.2016 17:14 20,2 C 68 % 1007,7 hPa 0,0 l/m 0,5 km/h (0 Bft) N-NW 336 0 min 0,000 mm 1,2 UV-I 177 W/m 14,1 C 20,2 C 1,6 km/h (1 Bft) 100,00 %
03.06.2016 17:15 20,2 C 70 % 1007,7 hPa 0,0 l/m 0,5 km/h (0 Bft) N-NW 336 0 min 0,000 mm 1,2 UV-I 200 W/m 14,5 C 20,2 C 1,6 km/h (1 Bft) 100,00 %
03.06.2016 17:16 20,2 C 73 % 1007,7 hPa 0,0 l/m 0,3 km/h (0 Bft) N-NW 336 0 min 0,000 mm 1,4 UV-I 216 W/m 15,2 C 20,2 C 1,6 km/h (1 Bft) 100,00 %
03.06.2016 17:17 20,2 C 74 % 1007,8 hPa 0,0 l/m 0,6 km/h (0 Bft) N-NW 336 0 min 0,000 mm 1,7 UV-I 216 W/m 15,4 C 20,2 C 3,2 km/h (1 Bft) 100,00 %
03.06.2016 17:18 20,3 C 68 % 1007,8 hPa 0,0 l/m 0,5 km/h (0 Bft) N-NW 336 1 min 0,000 mm 1,7 UV-I 592 W/m 14,2 C 20,3 C 1,6 km/h (1 Bft) 100,00 %
03.06.2016 17:19 20,4 C 67 % 1007,7 hPa 0,0 l/m 0,8 km/h (0 Bft) N-NW 336 1 min 0,000 mm 1,8 UV-I 609 W/m 14,1 C 20,4 C 1,6 km/h (1 Bft) 100,00 %
03.06.2016 17:20 20,5 C 70 % 1007,7 hPa 0,0 l/m 1,9 km/h (1 Bft) N-NO 13 1 min 0,000 mm 1,8 UV-I 596 W/m 14,8 C 20,5 C 3,2 km/h (1 Bft) 95,65 %
03.06.2016 17:21 20,6 C 68 % 1007,7 hPa 0,0 l/m 2,9 km/h (1 Bft) N 9 1 min 0,000 mm 1,5 UV-I 587 W/m 14,5 C 20,6 C 4,8 km/h (1 Bft) 100,00 %
03.06.2016 17:22 20,7 C 67 % 1007,7 hPa 0,0 l/m 1,9 km/h (1 Bft) N-NW 344 1 min 0,000 mm 1,2 UV-I 587 W/m 14,3 C 20,7 C 3,2 km/h (1 Bft) 100,00 %
03.06.2016 17:23 20,6 C 68 % 1007,7 hPa 0,0 l/m 1,9 km/h (1 Bft) N 355 0 min 0,000 mm 1,2 UV-I 237 W/m 14,5 C 20,6 C 3,2 km/h (1 Bft) 100,00 %
03.06.2016 17:24 20,6 C 69 % 1007,7 hPa 0,0 l/m 2,0 km/h (1 Bft) N-NW 334 0 min 0,000 mm 1,2 UV-I 151 W/m 14,7 C 20,6 C 3,2 km/h (1 Bft) 95,65 %
03.06.2016 17:25 20,4 C 68 % 1007,7 hPa 0,0 l/m 1,9 km/h (1 Bft) N-NW 346 0 min 0,000 mm 1,1 UV-I 148 W/m 14,3 C 20,4 C 4,8 km/h (1 Bft) 96,30 %
03.06.2016 17:26 20,3 C 70 % 1007,7 hPa 0,0 l/m 1,7 km/h (1 Bft) N-NW 331 0 min 0,000 mm 1,1 UV-I 144 W/m 14,6 C 20,3 C 3,2 km/h (1 Bft) 100,00 %
03.06.2016 17:27 20,2 C 70 % 1007,7 hPa 0,0 l/m 0,5 km/h (0 Bft) N-NW 328 0 min 0,000 mm 1,1 UV-I 139 W/m 14,5 C 20,2 C 1,6 km/h (1 Bft) 100,00 %
03.06.2016 17:28 20,2 C 71 % 1007,7 hPa 0,0 l/m 1,0 km/h (0 Bft) NW 323 0 min 0,000 mm 1,1 UV-I 142 W/m 14,8 C 20,2 C 3,2 km/h (1 Bft) 95,65 %
03.06.2016 17:29 20,1 C 72 % 1007,7 hPa 0,0 l/m 0,5 km/h (0 Bft) NW 323 0 min 0,000 mm 1,1 UV-I 167 W/m 14,9 C 20,1 C 1,6 km/h (1 Bft) 95,83 %
03.06.2016 17:30 20,0 C 73 % 1007,7 hPa 0,0 l/m 1,0 km/h (0 Bft) N-NW 327 0 min 0,000 mm 1,2 UV-I 200 W/m 15,0 C 20,0 C 3,2 km/h (1 Bft) 100,00 %
03.06.2016 17:31 20,0 C 71 % 1007,7 hPa 0,0 l/m 0,7 km/h (0 Bft) NW 326 0 min 0,000 mm 1,2 UV-I 223 W/m 14,6 C 20,0 C 3,2 km/h (1 Bft) 95,83 %
03.06.2016 17:32 20,0 C 72 % 1007,7 hPa 0,0 l/m 0,3 km/h (0 Bft) NW 326 0 min 0,000 mm 1,4 UV-I 223 W/m 14,8 C 20,0 C 1,6 km/h (1 Bft) 100,00 %
03.06.2016 17:33 20,1 C 72 % 1007,7 hPa 0,0 l/m 0,1 km/h (0 Bft) NW 326 0 min 0,000 mm 1,3 UV-I 269 W/m 14,9 C 20,1 C 1,6 km/h (1 Bft) 95,83 %
03.06.2016 17:34 20,1 C 72 % 1007,7 hPa 0,0 l/m 0,1 km/h (0 Bft) NW 326 0 min 0,000 mm 1,3 UV-I 228 W/m 14,9 C 20,1 C 1,6 km/h (1 Bft) 95,83 %
03.06.2016 17:35 20,1 C 72 % 1007,7 hPa 0,0 l/m 0,1 km/h (0 Bft) NW 326 0 min 0,000 mm 1,2 UV-I 173 W/m 14,9 C 20,1 C 1,6 km/h (1 Bft) 95,65 %
03.06.2016 17:36 20,1 C 71 % 1007,7 hPa 0,0 l/m 0,0 km/h (0 Bft) NW 326 0 min 0,000 mm 1,3 UV-I 183 W/m 14,7 C 20,1 C 0,0 km/h (0 Bft) 91,67 %
03.06.2016 17:37 20,1 C 71 % 1007,7 hPa 0,0 l/m 0,0 km/h (0 Bft) NW 326 0 min 0,000 mm 1,4 UV-I 183 W/m 14,7 C 20,1 C 0,0 km/h (0 Bft) 100,00 %
03.06.2016 17:38 20,2 C 70 % 1007,7 hPa 0,0 l/m 0,1 km/h (0 Bft) NW 326 0 min 0,000 mm 1,3 UV-I 183 W/m 14,5 C 20,2 C 1,6 km/h (1 Bft) 95,83 %
03.06.2016 17:39 20,2 C 72 % 1007,7 hPa 0,0 l/m 0,7 km/h (0 Bft) NW 326 0 min 0,000 mm 1,4 UV-I 183 W/m 15,0 C 20,2 C 1,6 km/h (1 Bft) 100,00 %
03.06.2016 17:40 20,3 C 68 % 1007,7 hPa 0,0 l/m 0,7 km/h (0 Bft) NW 326 0 min 0,000 mm 1,3 UV-I 255 W/m 14,2 C 20,3 C 1,6 km/h (1 Bft) 95,83 %
03.06.2016 17:41 20,3 C 69 % 1007,7 hPa 0,0 l/m 1,5 km/h (1 Bft) N-NW 327 1 min 0,000 mm 1,4 UV-I 288 W/m 14,4 C 20,3 C 3,2 km/h (1 Bft) 100,00 %
03.06.2016 17:42 20,4 C 67 % 1007,7 hPa 0,0 l/m 2,6 km/h (1 Bft) N 360 1 min 0,000 mm 1,4 UV-I 495 W/m 14,1 C 20,4 C 3,2 km/h (1 Bft) 91,67 %
03.06.2016 17:43 20,6 C 67 % 1007,7 hPa 0,0 l/m 3,2 km/h (1 Bft) N 360 1 min 0,000 mm 1,4 UV-I 484 W/m 14,3 C 20,6 C 3,2 km/h (1 Bft) 95,65 %
03.06.2016 17:44 20,7 C 65 % 1007,7 hPa 0,0 l/m 2,5 km/h (1 Bft) N 11 1 min 0,000 mm 1,4 UV-I 470 W/m 13,9 C 20,7 C 3,2 km/h (1 Bft) 100,00 %
03.06.2016 17:45 20,8 C 62 % 1007,7 hPa 0,0 l/m 2,7 km/h (1 Bft) N-NO 32 1 min 0,000 mm 1,3 UV-I 462 W/m 13,2 C 20,8 C 4,8 km/h (1 Bft) 92,31 %
03.06.2016 17:46 20,8 C 64 % 1007,6 hPa 0,0 l/m 2,7 km/h (1 Bft) O-NO 65 1 min 0,000 mm 1,3 UV-I 418 W/m 13,7 C 20,8 C 6,4 km/h (2 Bft) 95,83 %
03.06.2016 17:47 20,8 C 61 % 1007,6 hPa 0,0 l/m 3,2 km/h (1 Bft) O-NO 65 1 min 0,000 mm 1,3 UV-I 423 W/m 13,0 C 20,8 C 4,8 km/h (1 Bft) 95,65 %
03.06.2016 17:48 20,8 C 61 % 1007,6 hPa 0,0 l/m 0,9 km/h (0 Bft) O-NO 65 1 min 0,000 mm 1,3 UV-I 431 W/m 13,0 C 20,8 C 1,6 km/h (1 Bft) 100,00 %
03.06.2016 17:49 20,8 C 62 % 1007,6 hPa 0,0 l/m 0,2 km/h (0 Bft) O-NO 65 1 min 0,000 mm 1,3 UV-I 430 W/m 13,2 C 20,8 C 1,6 km/h (1 Bft) 95,65 %
03.06.2016 17:50 20,9 C 62 % 1007,6 hPa 0,0 l/m 1,4 km/h (1 Bft) O-NO 65 1 min 0,000 mm 1,3 UV-I 424 W/m 13,3 C 20,9 C 3,2 km/h (1 Bft) 95,83 %
03.06.2016 17:51 20,9 C 64 % 1007,6 hPa 0,0 l/m 1,7 km/h (1 Bft) O-NO 65 1 min 0,000 mm 1,2 UV-I 423 W/m 13,8 C 20,9 C 3,2 km/h (1 Bft) 100,00 %
03.06.2016 17:52 21,1 C 65 % 1007,6 hPa 0,0 l/m 1,1 km/h (1 Bft) O-NO 65 1 min 0,000 mm 1,2 UV-I 422 W/m 14,3 C 21,1 C 3,2 km/h (1 Bft) 95,83 %
03.06.2016 17:53 21,1 C 66 % 1007,6 hPa 0,0 l/m 2,6 km/h (1 Bft) O-NO 64 1 min 0,000 mm 1,2 UV-I 377 W/m 14,5 C 21,1 C 3,2 km/h (1 Bft) 100,00 %
03.06.2016 17:54 21,2 C 63 % 1007,6 hPa 0,0 l/m 1,7 km/h (1 Bft) O-NO 64 1 min 0,000 mm 1,1 UV-I 336 W/m 13,9 C 21,2 C 3,2 km/h (1 Bft) 95,65 %
03.06.2016 17:55 21,1 C 61 % 1007,6 hPa 0,0 l/m 1,3 km/h (1 Bft) O-NO 64 1 min 0,000 mm 1,1 UV-I 411 W/m 13,3 C 21,1 C 1,6 km/h (1 Bft) 100,00 %
03.06.2016 17:56 21,1 C 61 % 1007,6 hPa 0,0 l/m 2,0 km/h (1 Bft) O-NO 64 1 min 0,000 mm 1,1 UV-I 406 W/m 13,3 C 21,1 C 3,2 km/h (1 Bft) 95,65 %
03.06.2016 17:57 21,2 C 63 % 1007,6 hPa 0,0 l/m 0,7 km/h (0 Bft) O 82 1 min 0,000 mm 1,1 UV-I 407 W/m 13,9 C 21,2 C 3,2 km/h (1 Bft) 100,00 %
03.06.2016 17:58 21,2 C 63 % 1007,6 hPa 0,0 l/m 2,5 km/h (1 Bft) O 82 1 min 0,000 mm 1,1 UV-I 410 W/m 13,9 C 21,2 C 3,2 km/h (1 Bft) 95,65 %
03.06.2016 17:59 21,1 C 63 % 1007,6 hPa 0,0 l/m 1,4 km/h (1 Bft) O 82 1 min 0,000 mm 1,1 UV-I 409 W/m 13,8 C 21,1 C 1,6 km/h (1 Bft) 100,00 %
03.06.2016 18:00 21,1 C 62 % 1007,6 hPa 0,0 l/m 1,5 km/h (1 Bft) O 82 1 min 0,000 mm 1,1 UV-I 403 W/m 13,5 C 21,1 C 3,2 km/h (1 Bft) 95,65 %
03.06.2016 18:01 21,1 C 62 % 1007,6 hPa 0,0 l/m 3,0 km/h (1 Bft) O 83 1 min 0,203 mm 1,1 UV-I 398 W/m 13,5 C 21,1 C 3,2 km/h (1 Bft) 95,83 %
03.06.2016 18:02 21,1 C 62 % 1007,6 hPa 0,0 l/m 1,9 km/h (1 Bft) O 83 1 min 0,000 mm 1,1 UV-I 390 W/m 13,5 C 21,1 C 3,2 km/h (1 Bft) 96,15 %
03.06.2016 18:03 21,1 C 65 % 1007,6 hPa 0,0 l/m 1,0 km/h (0 Bft) O 83 1 min 0,000 mm 1,1 UV-I 386 W/m 14,3 C 21,1 C 1,6 km/h (1 Bft) 100,00 %
03.06.2016 18:04 21,1 C 62 % 1007,6 hPa 0,0 l/m 2,9 km/h (1 Bft) O 83 1 min 0,000 mm 1,1 UV-I 382 W/m 13,5 C 21,1 C 4,8 km/h (1 Bft) 100,00 %
03.06.2016 18:05 21,2 C 63 % 1007,6 hPa 0,0 l/m 2,7 km/h (1 Bft) O 82 1 min 0,000 mm 1,0 UV-I 385 W/m 13,9 C 21,2 C 4,8 km/h (1 Bft) 100,00 %
03.06.2016 18:06 21,2 C 65 % 1007,6 hPa 0,0 l/m 3,4 km/h (1 Bft) O-NO 77 1 min 0,000 mm 1,0 UV-I 386 W/m 14,4 C 21,2 C 4,8 km/h (1 Bft) 100,00 %
03.06.2016 18:07 21,3 C 65 % 1007,6 hPa 0,0 l/m 3,9 km/h (1 Bft) O-NO 77 1 min 0,000 mm 1,0 UV-I 383 W/m 14,4 C 21,3 C 4,8 km/h (1 Bft) 100,00 %
03.06.2016 18:08 21,3 C 66 % 1007,6 hPa 0,0 l/m 2,7 km/h (1 Bft) O-NO 77 1 min 0,000 mm 1,0 UV-I 377 W/m 14,7 C 21,3 C 4,8 km/h (1 Bft) 91,30 %
03.06.2016 18:09 21,4 C 64 % 1007,7 hPa 0,0 l/m 2,6 km/h (1 Bft) O-NO 77 1 min 0,000 mm 1,0 UV-I 372 W/m 14,3 C 21,4 C 3,2 km/h (1 Bft) 100,00 %
03.06.2016 18:10 21,3 C 62 % 1007,6 hPa 0,0 l/m 2,3 km/h (1 Bft) O 98 1 min 0,000 mm 1,0 UV-I 368 W/m 13,7 C 21,3 C 4,8 km/h (1 Bft) 82,61 %
03.06.2016 18:11 21,3 C 66 % 1007,7 hPa 0,0 l/m 1,9 km/h (1 Bft) O 97 1 min 0,000 mm 0,9 UV-I 368 W/m 14,7 C 21,3 C 4,8 km/h (1 Bft) 100,00 %
03.06.2016 18:12 21,3 C 65 % 1007,7 hPa 0,0 l/m 2,4 km/h (1 Bft) O 97 1 min 0,000 mm 0,9 UV-I 363 W/m 14,4 C 21,3 C 4,8 km/h (1 Bft) 100,00 %
03.06.2016 18:13 21,3 C 63 % 1007,7 hPa 0,0 l/m 1,4 km/h (1 Bft) O 97 1 min 0,000 mm 0,9 UV-I 360 W/m 14,0 C 21,3 C 3,2 km/h (1 Bft) 100,00 %
03.06.2016 18:14 21,3 C 64 % 1007,7 hPa 0,0 l/m 0,5 km/h (0 Bft) O 97 1 min 0,000 mm 0,9 UV-I 356 W/m 14,2 C 21,3 C 1,6 km/h (1 Bft) 100,00 %
03.06.2016 18:15 21,2 C 62 % 1007,7 hPa 0,0 l/m 1,0 km/h (0 Bft) O 97 1 min 0,000 mm 0,9 UV-I 351 W/m 13,6 C 21,2 C 1,6 km/h (1 Bft) 91,30 %
03.06.2016 18:16 21,2 C 64 % 1007,7 hPa 0,0 l/m 1,0 km/h (0 Bft) O 97 1 min 0,000 mm 0,9 UV-I 346 W/m 14,1 C 21,2 C 3,2 km/h (1 Bft) 100,00 %
03.06.2016 18:17 21,2 C 64 % 1007,7 hPa 0,0 l/m 1,1 km/h (1 Bft) O 97 1 min 0,000 mm 0,8 UV-I 346 W/m 14,1 C 21,2 C 3,2 km/h (1 Bft) 100,00 %
03.06.2016 18:18 21,3 C 65 % 1007,7 hPa 0,0 l/m 2,1 km/h (1 Bft) N-NW 332 1 min 0,000 mm 0,8 UV-I 347 W/m 14,4 C 21,3 C 3,2 km/h (1 Bft) 100,00 %
03.06.2016 18:19 21,3 C 65 % 1007,8 hPa 0,0 l/m 2,1 km/h (1 Bft) N-NW 331 1 min 0,000 mm 0,8 UV-I 345 W/m 14,4 C 21,3 C 3,2 km/h (1 Bft) 100,00 %
03.06.2016 18:20 21,4 C 63 % 1007,7 hPa 0,0 l/m 1,3 km/h (1 Bft) NW 319 1 min 0,000 mm 0,8 UV-I 341 W/m 14,1 C 21,4 C 3,2 km/h (1 Bft) 100,00 %
03.06.2016 18:21 21,4 C 63 % 1007,8 hPa 0,0 l/m 4,1 km/h (1 Bft) S 182 1 min 0,000 mm 0,8 UV-I 335 W/m 14,1 C 21,4 C 9,7 km/h (2 Bft) 100,00 %
03.06.2016 18:22 21,4 C 63 % 1007,7 hPa 0,0 l/m 5,7 km/h (1 Bft) S 186 1 min 0,000 mm 0,8 UV-I 330 W/m 14,1 C 21,4 C 8,0 km/h (2 Bft) 100,00 %
03.06.2016 18:23 21,4 C 64 % 1007,7 hPa 0,0 l/m 4,4 km/h (1 Bft) S-SW 192 1 min 0,000 mm 0,8 UV-I 326 W/m 14,3 C 21,4 C 4,8 km/h (1 Bft) 100,00 %
03.06.2016 18:24 21,3 C 62 % 1007,7 hPa 0,0 l/m 2,6 km/h (1 Bft) S-SW 192 1 min 0,000 mm 0,8 UV-I 323 W/m 13,7 C 21,3 C 4,8 km/h (1 Bft) 100,00 %
03.06.2016 18:25 21,3 C 62 % 1007,7 hPa 0,0 l/m 3,0 km/h (1 Bft) S-SW 200 1 min 0,000 mm 0,8 UV-I 322 W/m 13,7 C 21,3 C 4,8 km/h (1 Bft) 100,00 %
03.06.2016 18:26 21,3 C 64 % 1007,7 hPa 0,0 l/m 2,4 km/h (1 Bft) S-SW 200 1 min 0,000 mm 0,8 UV-I 321 W/m 14,2 C 21,3 C 3,2 km/h (1 Bft) 100,00 %
03.06.2016 18:27 21,3 C 64 % 1007,7 hPa 0,0 l/m 1,3 km/h (1 Bft) S-SW 200 1 min 0,000 mm 0,7 UV-I 317 W/m 14,2 C 21,3 C 3,2 km/h (1 Bft) 98,38 %
03.06.2016 18:28 21,3 C 63 % 1007,7 hPa 0,0 l/m 2,2 km/h (1 Bft) S-SW 200 1 min 0,000 mm 0,7 UV-I 316 W/m 14,0 C 21,3 C 3,2 km/h (1 Bft) 100,00 %
03.06.2016 18:29 21,4 C 63 % 1007,7 hPa 0,0 l/m 2,0 km/h (1 Bft) S-SW 198 1 min 0,000 mm 0,7 UV-I 316 W/m 14,1 C 21,4 C 4,8 km/h (1 Bft) 100,00 %
03.06.2016 18:30 21,3 C 62 % 1007,7 hPa 0,0 l/m 1,5 km/h (1 Bft) S-SW 197 1 min 0,000 mm 0,7 UV-I 315 W/m 13,7 C 21,3 C 3,2 km/h (1 Bft) 100,00 %
03.06.2016 18:31 21,2 C 61 % 1007,7 hPa 0,0 l/m 0,7 km/h (0 Bft) S-SW 197 1 min 0,000 mm 0,7 UV-I 310 W/m 13,4 C 21,2 C 3,2 km/h (1 Bft) 100,00 %
03.06.2016 18:32 21,2 C 64 % 1007,7 hPa 0,0 l/m 2,1 km/h (1 Bft) S-SW 197 1 min 0,000 mm 0,7 UV-I 306 W/m 14,1 C 21,2 C 3,2 km/h (1 Bft) 95,65 %
03.06.2016 18:33 21,2 C 64 % 1007,7 hPa 0,0 l/m 0,5 km/h (0 Bft) S-SW 197 1 min 0,000 mm 0,7 UV-I 304 W/m 14,1 C 21,2 C 1,6 km/h (1 Bft) 100,00 %
03.06.2016 18:34 21,3 C 63 % 1007,7 hPa 0,0 l/m 1,2 km/h (1 Bft) S-SW 197 1 min 0,000 mm 0,7 UV-I 302 W/m 14,0 C 21,3 C 3,2 km/h (1 Bft) 100,00 %
03.06.2016 18:35 21,3 C 62 % 1007,7 hPa 0,0 l/m 0,4 km/h (0 Bft) S-SW 197 1 min 0,000 mm 0,7 UV-I 302 W/m 13,7 C 21,3 C 3,2 km/h (1 Bft) 100,00 %
03.06.2016 18:36 21,3 C 64 % 1007,7 hPa 0,0 l/m 1,2 km/h (1 Bft) S-SW 197 1 min 0,000 mm 0,7 UV-I 301 W/m 14,2 C 21,3 C 4,8 km/h (1 Bft) 100,00 %
03.06.2016 18:37 21,3 C 62 % 1007,7 hPa 0,0 l/m 2,0 km/h (1 Bft) S-SW 197 1 min 0,000 mm 0,7 UV-I 299 W/m 13,7 C 21,3 C 3,2 km/h (1 Bft) 100,00 %
03.06.2016 18:38 21,3 C 63 % 1007,6 hPa 0,0 l/m 1,8 km/h (1 Bft) S-SW 197 1 min 0,000 mm 0,7 UV-I 299 W/m 14,0 C 21,3 C 3,2 km/h (1 Bft) 100,00 %
03.06.2016 18:39 21,3 C 63 % 1007,7 hPa 0,0 l/m 3,4 km/h (1 Bft) S-SW 199 1 min 0,000 mm 0,6 UV-I 299 W/m 14,0 C 21,3 C 4,8 km/h (1 Bft) 100,00 %
03.06.2016 18:40 21,3 C 63 % 1007,7 hPa 0,0 l/m 4,0 km/h (1 Bft) S 189 1 min 0,000 mm 0,6 UV-I 299 W/m 14,0 C 21,3 C 4,8 km/h (1 Bft) 100,00 %
03.06.2016 18:41 21,3 C 63 % 1007,7 hPa 0,0 l/m 1,7 km/h (1 Bft) S-SO 166 1 min 0,000 mm 0,6 UV-I 302 W/m 14,0 C 21,3 C 6,4 km/h (2 Bft) 100,00 %
03.06.2016 18:42 21,3 C 63 % 1007,7 hPa 0,0 l/m 2,5 km/h (1 Bft) S-SO 151 1 min 0,000 mm 0,6 UV-I 302 W/m 14,0 C 21,3 C 4,8 km/h (1 Bft) 100,00 %
03.06.2016 18:43 21,3 C 63 % 1007,7 hPa 0,0 l/m 2,0 km/h (1 Bft) S-SO 151 1 min 0,000 mm 0,6 UV-I 302 W/m 14,0 C 21,3 C 3,2 km/h (1 Bft) 100,00 %
03.06.2016 18:44 21,2 C 64 % 1007,7 hPa 0,0 l/m 2,3 km/h (1 Bft) S-SO 151 1 min 0,000 mm 0,6 UV-I 302 W/m 14,1 C 21,2 C 3,2 km/h (1 Bft) 100,00 %
03.06.2016 18:45 21,2 C 65 % 1007,7 hPa 0,0 l/m 3,4 km/h (1 Bft) O-SO 112 1 min 0,000 mm 0,6 UV-I 302 W/m 14,4 C 21,2 C 4,8 km/h (1 Bft) 100,00 %
03.06.2016 18:46 21,2 C 64 % 1007,7 hPa 0,0 l/m 3,8 km/h (1 Bft) O 97 1 min 0,000 mm 0,6 UV-I 301 W/m 14,1 C 21,2 C 4,8 km/h (1 Bft) 100,00 %
03.06.2016 18:47 21,2 C 64 % 1007,7 hPa 0,0 l/m 4,0 km/h (1 Bft) O 81 1 min 0,000 mm 0,6 UV-I 300 W/m 14,1 C 21,2 C 4,8 km/h (1 Bft) 100,00 %
03.06.2016 18:48 21,2 C 64 % 1007,7 hPa 0,0 l/m 4,5 km/h (1 Bft) O-NO 60 1 min 0,000 mm 0,5 UV-I 299 W/m 14,1 C 21,2 C 4,8 km/h (1 Bft) 95,65 %
03.06.2016 18:49 21,2 C 65 % 1007,7 hPa 0,0 l/m 3,3 km/h (1 Bft) O-NO 60 1 min 0,000 mm 0,5 UV-I 299 W/m 14,4 C 21,2 C 4,8 km/h (1 Bft) 100,00 %
03.06.2016 18:50 21,1 C 67 % 1007,7 hPa 0,0 l/m 3,2 km/h (1 Bft) O-NO 60 1 min 0,000 mm 0,5 UV-I 299 W/m 14,7 C 21,1 C 4,8 km/h (1 Bft) 100,00 %
03.06.2016 18:51 21,1 C 66 % 1007,7 hPa 0,0 l/m 1,4 km/h (1 Bft) O-NO 60 0 min 0,000 mm 0,5 UV-I 140 W/m 14,5 C 21,1 C 3,2 km/h (1 Bft) 95,65 %
03.06.2016 18:52 21,1 C 66 % 1007,7 hPa 0,0 l/m 3,1 km/h (1 Bft) O-NO 60 0 min 0,000 mm 0,5 UV-I 130 W/m 14,5 C 21,1 C 3,2 km/h (1 Bft) 100,00 %
03.06.2016 18:53 21,1 C 66 % 1007,7 hPa 0,0 l/m 2,8 km/h (1 Bft) O-NO 60 1 min 0,000 mm 0,5 UV-I 295 W/m 14,5 C 21,1 C 4,8 km/h (1 Bft) 100,00 %
03.06.2016 18:54 21,0 C 64 % 1007,7 hPa 0,0 l/m 2,4 km/h (1 Bft) O-NO 60 1 min 0,000 mm 0,5 UV-I 283 W/m 13,9 C 21,0 C 4,8 km/h (1 Bft) 100,00 %
03.06.2016 18:55 21,1 C 63 % 1007,7 hPa 0,0 l/m 1,3 km/h (1 Bft) O-NO 60 1 min 0,000 mm 0,5 UV-I 277 W/m 13,8 C 21,1 C 3,2 km/h (1 Bft) 95,65 %
03.06.2016 18:56 21,1 C 64 % 1007,7 hPa 0,0 l/m 1,2 km/h (1 Bft) O-NO 60 1 min 0,000 mm 0,5 UV-I 278 W/m 14,0 C 21,1 C 1,6 km/h (1 Bft) 100,00 %
03.06.2016 18:57 21,2 C 68 % 1007,7 hPa 0,0 l/m 0,9 km/h (0 Bft) O-NO 60 1 min 0,000 mm 0,1 UV-I 278 W/m 15,1 C 21,2 C 1,6 km/h (1 Bft) 100,00 %
03.06.2016 18:58 21,1 C 67 % 1007,7 hPa 0,0 l/m 0,5 km/h (0 Bft) O-NO 60 0 min 0,000 mm 0,0 UV-I 99 W/m 14,7 C 21,1 C 1,6 km/h (1 Bft) 100,00 %
03.06.2016 18:59 21,0 C 65 % 1007,7 hPa 0,0 l/m 1,5 km/h (1 Bft) O-NO 60 0 min 0,000 mm 0,0 UV-I 109 W/m 14,2 C 21,0 C 4,8 km/h (1 Bft) 100,00 %
03.06.2016 19:00 20,9 C 66 % 1007,7 hPa 0,0 l/m 0,5 km/h (0 Bft) O-NO 60 0 min 0,000 mm 0,0 UV-I 127 W/m 14,3 C 20,9 C 1,6 km/h (1 Bft) 100,00 %
03.06.2016 19:01 20,8 C 69 % 1007,7 hPa 0,0 l/m 0,2 km/h (0 Bft) O-NO 60 1 min 0,203 mm 0,0 UV-I 187 W/m 14,9 C 20,8 C 1,6 km/h (1 Bft) 95,65 %
03.06.2016 19:02 20,7 C 70 % 1007,8 hPa 0,0 l/m 0,1 km/h (0 Bft) O-NO 60 1 min 0,000 mm 0,0 UV-I 167 W/m 15,0 C 20,7 C 1,6 km/h (1 Bft) 100,00 %
03.06.2016 19:03 20,7 C 69 % 1007,8 hPa 0,0 l/m 1,3 km/h (1 Bft) NO 54 0 min 0,000 mm 0,0 UV-I 142 W/m 14,8 C 20,7 C 1,6 km/h (1 Bft) 100,00 %
03.06.2016 19:04 20,6 C 69 % 1007,8 hPa 0,0 l/m 0,1 km/h (0 Bft) NO 54 0 min 0,000 mm 0,0 UV-I 151 W/m 14,7 C 20,6 C 1,6 km/h (1 Bft) 100,00 %
03.06.2016 19:05 20,6 C 70 % 1007,8 hPa 0,0 l/m 0,4 km/h (0 Bft) NO 54 0 min 0,000 mm 0,0 UV-I 137 W/m 14,9 C 20,6 C 1,6 km/h (1 Bft) 100,00 %
03.06.2016 19:06 20,6 C 68 % 1007,8 hPa 0,0 l/m 0,1 km/h (0 Bft) NO 54 0 min 0,000 mm 0,0 UV-I 109 W/m 14,5 C 20,6 C 1,6 km/h (1 Bft) 100,00 %
03.06.2016 19:07 20,5 C 70 % 1007,8 hPa 0,0 l/m 0,1 km/h (0 Bft) NO 54 0 min 0,000 mm 0,0 UV-I 105 W/m 14,8 C 20,5 C 1,6 km/h (1 Bft) 100,00 %
03.06.2016 19:08 20,4 C 70 % 1007,8 hPa 0,0 l/m 0,0 km/h (0 Bft) NO 54 0 min 0,000 mm 0,0 UV-I 105 W/m 14,7 C 20,4 C 0,0 km/h (0 Bft) 100,00 %
03.06.2016 19:09 20,4 C 68 % 1007,8 hPa 0,0 l/m 0,3 km/h (0 Bft) NO 54 1 min 0,000 mm 0,0 UV-I 145 W/m 14,3 C 20,4 C 1,6 km/h (1 Bft) 95,65 %
03.06.2016 19:10 20,4 C 69 % 1007,8 hPa 0,0 l/m 0,5 km/h (0 Bft) NO 54 0 min 0,000 mm 0,0 UV-I 103 W/m 14,5 C 20,4 C 1,6 km/h (1 Bft) 100,00 %
03.06.2016 19:11 20,4 C 67 % 1007,8 hPa 0,0 l/m 0,1 km/h (0 Bft) NO 54 1 min 0,000 mm 0,0 UV-I 149 W/m 14,1 C 20,4 C 1,6 km/h (1 Bft) 100,00 %
03.06.2016 19:12 20,4 C 69 % 1007,8 hPa 0,0 l/m 0,1 km/h (0 Bft) NO 54 1 min 0,000 mm 0,0 UV-I 196 W/m 14,5 C 20,4 C 1,6 km/h (1 Bft) 95,83 %
03.06.2016 19:13 20,4 C 72 % 1007,8 hPa 0,0 l/m 0,0 km/h (0 Bft) NO 54 1 min 0,000 mm 0,0 UV-I 214 W/m 15,2 C 20,4 C 0,0 km/h (0 Bft) 100,00 %
03.06.2016 19:14 20,5 C 71 % 1007,8 hPa 0,0 l/m 2,7 km/h (1 Bft) NO 53 1 min 0,000 mm 0,0 UV-I 221 W/m 15,1 C 20,5 C 4,8 km/h (1 Bft) 100,00 %
03.06.2016 19:15 20,6 C 70 % 1007,8 hPa 0,0 l/m 3,6 km/h (1 Bft) NO 53 1 min 0,000 mm 0,0 UV-I 221 W/m 14,9 C 20,6 C 4,8 km/h (1 Bft) 100,00 %
03.06.2016 19:16 20,6 C 67 % 1007,8 hPa 0,0 l/m 2,4 km/h (1 Bft) NO 53 1 min 0,000 mm 0,0 UV-I 220 W/m 14,3 C 20,6 C 3,2 km/h (1 Bft) 100,00 %
03.06.2016 19:17 20,7 C 66 % 1007,8 hPa 0,0 l/m 1,0 km/h (0 Bft) NO 53 1 min 0,000 mm 0,0 UV-I 218 W/m 14,1 C 20,7 C 3,2 km/h (1 Bft) 95,83 %
03.06.2016 19:18 20,8 C 69 % 1007,8 hPa 0,0 l/m 3,2 km/h (1 Bft) NO 53 1 min 0,000 mm 0,0 UV-I 212 W/m 14,9 C 20,8 C 4,8 km/h (1 Bft) 95,65 %
03.06.2016 19:19 20,8 C 67 % 1007,8 hPa 0,0 l/m 2,0 km/h (1 Bft) NO 53 1 min 0,000 mm 0,0 UV-I 184 W/m 14,4 C 20,8 C 3,2 km/h (1 Bft) 100,00 %
03.06.2016 19:20 20,8 C 67 % 1007,9 hPa 0,0 l/m 2,1 km/h (1 Bft) NO 53 1 min 0,000 mm 0,0 UV-I 129 W/m 14,4 C 20,8 C 3,2 km/h (1 Bft) 100,00 %
03.06.2016 19:21 20,8 C 66 % 1007,9 hPa 0,0 l/m 2,9 km/h (1 Bft) NO 53 1 min 0,000 mm 0,0 UV-I 151 W/m 14,2 C 20,8 C 4,8 km/h (1 Bft) 100,00 %
03.06.2016 19:22 20,8 C 67 % 1007,8 hPa 0,0 l/m 2,3 km/h (1 Bft) NO 53 1 min 0,000 mm 0,0 UV-I 188 W/m 14,4 C 20,8 C 4,8 km/h (1 Bft) 91,30 %
03.06.2016 19:23 20,8 C 66 % 1007,8 hPa 0,0 l/m 2,6 km/h (1 Bft) NO 53 1 min 0,000 mm 0,0 UV-I 190 W/m 14,2 C 20,8 C 3,2 km/h (1 Bft) 100,00 %
03.06.2016 19:24 20,8 C 65 % 1007,9 hPa 0,0 l/m 2,7 km/h (1 Bft) NO 53 1 min 0,000 mm 0,0 UV-I 183 W/m 14,0 C 20,8 C 3,2 km/h (1 Bft) 92,86 %
03.06.2016 19:25 20,9 C 67 % 1007,9 hPa 0,0 l/m 2,5 km/h (1 Bft) NO 53 1 min 0,000 mm 0,0 UV-I 176 W/m 14,5 C 20,9 C 3,2 km/h (1 Bft) 100,00 %
03.06.2016 19:26 20,9 C 66 % 1007,9 hPa 0,0 l/m 3,0 km/h (1 Bft) NO 53 1 min 0,000 mm 0,0 UV-I 126 W/m 14,3 C 20,9 C 3,2 km/h (1 Bft) 95,83 %
03.06.2016 19:27 20,8 C 66 % 1007,9 hPa 0,0 l/m 3,0 km/h (1 Bft) NO 53 0 min 0,000 mm 0,0 UV-I 83 W/m 14,2 C 20,8 C 4,8 km/h (1 Bft) 100,00 %
03.06.2016 19:28 20,8 C 66 % 1007,9 hPa 0,0 l/m 2,9 km/h (1 Bft) NO 53 0 min 0,000 mm 0,0 UV-I 98 W/m 14,2 C 20,8 C 3,2 km/h (1 Bft) 91,67 %
03.06.2016 19:29 20,8 C 65 % 1007,9 hPa 0,0 l/m 2,5 km/h (1 Bft) NO 53 0 min 0,000 mm 0,0 UV-I 97 W/m 14,0 C 20,8 C 3,2 km/h (1 Bft) 95,65 %
03.06.2016 19:30 20,8 C 66 % 1007,9 hPa 0,0 l/m 2,4 km/h (1 Bft) NO 53 1 min 0,000 mm 0,0 UV-I 117 W/m 14,2 C 20,8 C 3,2 km/h (1 Bft) 100,00 %
03.06.2016 19:31 20,7 C 64 % 1007,9 hPa 0,0 l/m 2,4 km/h (1 Bft) NO 53 1 min 0,000 mm 0,0 UV-I 142 W/m 13,6 C 20,7 C 3,2 km/h (1 Bft) 95,65 %
03.06.2016 19:32 20,7 C 64 % 1007,9 hPa 0,0 l/m 1,5 km/h (1 Bft) NO 53 1 min 0,000 mm 0,0 UV-I 144 W/m 13,6 C 20,7 C 3,2 km/h (1 Bft) 100,00 %
03.06.2016 19:33 20,7 C 66 % 1007,9 hPa 0,0 l/m 1,5 km/h (1 Bft) NO 53 1 min 0,000 mm 0,0 UV-I 138 W/m 14,1 C 20,7 C 3,2 km/h (1 Bft) 95,65 %
03.06.2016 19:34 20,8 C 66 % 1007,9 hPa 0,0 l/m 2,4 km/h (1 Bft) NO 53 1 min 0,000 mm 0,0 UV-I 131 W/m 14,2 C 20,8 C 3,2 km/h (1 Bft) 100,00 %
03.06.2016 19:35 20,8 C 66 % 1007,9 hPa 0,0 l/m 1,6 km/h (1 Bft) NO 53 1 min 0,000 mm 0,0 UV-I 130 W/m 14,2 C 20,8 C 3,2 km/h (1 Bft) 91,30 %
03.06.2016 19:36 20,8 C 65 % 1007,9 hPa 0,0 l/m 1,7 km/h (1 Bft) NO 53 1 min 0,000 mm 0,0 UV-I 131 W/m 14,0 C 20,8 C 3,2 km/h (1 Bft) 95,83 %
03.06.2016 19:37 20,8 C 66 % 1007,9 hPa 0,0 l/m 2,1 km/h (1 Bft) NO 53 1 min 0,000 mm 0,0 UV-I 131 W/m 14,2 C 20,8 C 3,2 km/h (1 Bft) 100,00 %
03.06.2016 19:38 20,8 C 65 % 1007,9 hPa 0,0 l/m 2,3 km/h (1 Bft) NO 53 1 min 0,000 mm 0,0 UV-I 127 W/m 14,0 C 20,8 C 3,2 km/h (1 Bft) 95,83 %
03.06.2016 19:39 20,8 C 67 % 1007,9 hPa 0,0 l/m 2,0 km/h (1 Bft) NO 53 1 min 0,000 mm 0,0 UV-I 124 W/m 14,4 C 20,8 C 3,2 km/h (1 Bft) 100,00 %
03.06.2016 19:40 20,8 C 66 % 1007,9 hPa 0,0 l/m 2,6 km/h (1 Bft) NO 53 1 min 0,000 mm 0,0 UV-I 121 W/m 14,2 C 20,8 C 3,2 km/h (1 Bft) 96,30 %
03.06.2016 19:41 20,8 C 63 % 1007,9 hPa 0,0 l/m 0,9 km/h (0 Bft) NO 53 1 min 0,000 mm 0,0 UV-I 119 W/m 13,5 C 20,8 C 1,6 km/h (1 Bft) 100,00 %
03.06.2016 19:42 20,8 C 65 % 1007,9 hPa 0,0 l/m 2,3 km/h (1 Bft) NO 53 1 min 0,000 mm 0,0 UV-I 117 W/m 14,0 C 20,8 C 3,2 km/h (1 Bft) 92,59 %
03.06.2016 19:43 20,8 C 64 % 1007,9 hPa 0,0 l/m 2,6 km/h (1 Bft) NO 53 0 min 0,000 mm 0,0 UV-I 91 W/m 13,7 C 20,8 C 3,2 km/h (1 Bft) 86,96 %
03.06.2016 19:44 20,8 C 63 % 1008,0 hPa 0,0 l/m 2,8 km/h (1 Bft) NO 53 0 min 0,000 mm 0,0 UV-I 75 W/m 13,5 C 20,8 C 3,2 km/h (1 Bft) 100,00 %
03.06.2016 19:45 20,7 C 62 % 1008,0 hPa 0,0 l/m 2,0 km/h (1 Bft) NO 53 0 min 0,000 mm 0,0 UV-I 69 W/m 13,2 C 20,7 C 3,2 km/h (1 Bft) 95,65 %
03.06.2016 19:46 20,7 C 62 % 1008,0 hPa 0,0 l/m 1,4 km/h (1 Bft) NO 53 0 min 0,000 mm 0,0 UV-I 71 W/m 13,2 C 20,7 C 1,6 km/h (1 Bft) 100,00 %
03.06.2016 19:47 20,7 C 63 % 1008,0 hPa 0,0 l/m 0,0 km/h (0 Bft) NO 53 0 min 0,000 mm 0,0 UV-I 87 W/m 13,4 C 20,7 C 0,0 km/h (0 Bft) 91,30 %
03.06.2016 19:48 20,7 C 64 % 1008,0 hPa 0,0 l/m 0,8 km/h (0 Bft) NO 53 0 min 0,000 mm 0,0 UV-I 87 W/m 13,6 C 20,7 C 1,6 km/h (1 Bft) 100,00 %
03.06.2016 19:49 20,7 C 66 % 1008,0 hPa 0,0 l/m 0,6 km/h (0 Bft) NO 53 0 min 0,000 mm 0,0 UV-I 78 W/m 14,1 C 20,7 C 1,6 km/h (1 Bft) 95,83 %
03.06.2016 19:50 20,7 C 68 % 1008,0 hPa 0,0 l/m 0,6 km/h (0 Bft) NO 53 0 min 0,000 mm 0,0 UV-I 62 W/m 14,6 C 20,7 C 1,6 km/h (1 Bft) 100,00 %
03.06.2016 19:51 20,6 C 65 % 1008,0 hPa 0,0 l/m 0,3 km/h (0 Bft) NO 53 0 min 0,000 mm 0,0 UV-I 56 W/m 13,8 C 20,6 C 1,6 km/h (1 Bft) 95,83 %
03.06.2016 19:52 20,6 C 67 % 1008,0 hPa 0,0 l/m 0,4 km/h (0 Bft) NO 53 0 min 0,000 mm 0,0 UV-I 68 W/m 14,3 C 20,6 C 1,6 km/h (1 Bft) 95,65 %
03.06.2016 19:53 20,5 C 70 % 1008,0 hPa 0,0 l/m 1,3 km/h (1 Bft) NO 53 0 min 0,000 mm 0,0 UV-I 76 W/m 14,8 C 20,5 C 3,2 km/h (1 Bft) 95,83 %
03.06.2016 19:54 20,5 C 67 % 1008,0 hPa 0,0 l/m 1,1 km/h (1 Bft) NO 53 0 min 0,000 mm 0,0 UV-I 68 W/m 14,2 C 20,5 C 1,6 km/h (1 Bft) 91,30 %
03.06.2016 19:55 20,4 C 68 % 1008,0 hPa 0,0 l/m 0,6 km/h (0 Bft) NO 53 0 min 0,000 mm 0,0 UV-I 74 W/m 14,3 C 20,4 C 1,6 km/h (1 Bft) 100,00 %
03.06.2016 19:56 20,4 C 68 % 1008,0 hPa 0,0 l/m 0,6 km/h (0 Bft) NO 53 1 min 0,000 mm 0,0 UV-I 82 W/m 14,3 C 20,4 C 1,6 km/h (1 Bft) 95,65 %
03.06.2016 19:57 20,4 C 69 % 1008,1 hPa 0,0 l/m 1,6 km/h (1 Bft) NO 53 1 min 0,000 mm 0,0 UV-I 75 W/m 14,5 C 20,4 C 3,2 km/h (1 Bft) 100,00 %
03.06.2016 19:58 20,4 C 70 % 1008,1 hPa 0,0 l/m 1,3 km/h (1 Bft) NO 53 0 min 0,000 mm 0,0 UV-I 69 W/m 14,7 C 20,4 C 1,6 km/h (1 Bft) 96,15 %
03.06.2016 19:59 20,3 C 71 % 1008,1 hPa 0,0 l/m 1,5 km/h (1 Bft) NO 53 1 min 0,000 mm 0,0 UV-I 77 W/m 14,9 C 20,3 C 3,2 km/h (1 Bft) 100,00 %
03.06.2016 20:00 20,3 C 70 % 1008,1 hPa 0,0 l/m 1,0 km/h (0 Bft) NO 53 1 min 0,000 mm 0,0 UV-I 83 W/m 14,6 C 20,3 C 1,6 km/h (1 Bft) 96,15 %
03.06.2016 20:01 20,3 C 70 % 1008,1 hPa 0,0 l/m 1,5 km/h (1 Bft) NO 53 1 min 0,077 mm 0,0 UV-I 84 W/m 14,6 C 20,3 C 1,6 km/h (1 Bft) 100,00 %
03.06.2016 20:02 20,3 C 72 % 1008,1 hPa 0,0 l/m 1,2 km/h (1 Bft) NO 53 1 min 0,000 mm 0,0 UV-I 84 W/m 15,1 C 20,3 C 1,6 km/h (1 Bft) 100,00 %
03.06.2016 20:03 20,2 C 72 % 1008,1 hPa 0,0 l/m 1,3 km/h (1 Bft) NO 53 1 min 0,000 mm 0,0 UV-I 82 W/m 15,0 C 20,2 C 1,6 km/h (1 Bft) 100,00 %
03.06.2016 20:04 20,2 C 73 % 1008,1 hPa 0,0 l/m 1,5 km/h (1 Bft) NO 53 1 min 0,000 mm 0,0 UV-I 80 W/m 15,2 C 20,2 C 1,6 km/h (1 Bft) 100,00 %
03.06.2016 20:05 20,1 C 73 % 1008,1 hPa 0,0 l/m 1,1 km/h (1 Bft) NO 53 1 min 0,000 mm 0,0 UV-I 74 W/m 15,1 C 20,1 C 1,6 km/h (1 Bft) 100,00 %
03.06.2016 20:06 20,1 C 74 % 1008,0 hPa 0,0 l/m 1,3 km/h (1 Bft) NO 53 1 min 0,000 mm 0,0 UV-I 70 W/m 15,3 C 20,1 C 1,6 km/h (1 Bft) 100,00 %
03.06.2016 20:07 20,1 C 74 % 1008,1 hPa 0,0 l/m 0,8 km/h (0 Bft) NO 53 1 min 0,000 mm 0,0 UV-I 66 W/m 15,3 C 20,1 C 1,6 km/h (1 Bft) 95,65 %
03.06.2016 20:08 20,0 C 73 % 1008,1 hPa 0,0 l/m 0,2 km/h (0 Bft) NO 53 1 min 0,000 mm 0,0 UV-I 62 W/m 15,0 C 20,0 C 1,6 km/h (1 Bft) 100,00 %
03.06.2016 20:09 20,1 C 73 % 1008,0 hPa 0,0 l/m 0,1 km/h (0 Bft) NO 53 1 min 0,000 mm 0,0 UV-I 60 W/m 15,1 C 20,1 C 1,6 km/h (1 Bft) 100,00 %
03.06.2016 20:10 20,1 C 72 % 1008,1 hPa 0,0 l/m 0,0 km/h (0 Bft) NO 53 1 min 0,000 mm 0,0 UV-I 57 W/m 14,9 C 20,1 C 0,0 km/h (0 Bft) 100,00 %
03.06.2016 20:11 20,1 C 73 % 1008,0 hPa 0,0 l/m 0,0 km/h (0 Bft) NO 53 1 min 0,000 mm 0,0 UV-I 55 W/m 15,1 C 20,1 C 0,0 km/h (0 Bft) 100,00 %
03.06.2016 20:12 20,1 C 73 % 1008,0 hPa 0,0 l/m 1,1 km/h (1 Bft) NO 53 1 min 0,000 mm 0,0 UV-I 54 W/m 15,1 C 20,1 C 1,6 km/h (1 Bft) 100,00 %
03.06.2016 20:13 20,1 C 71 % 1008,0 hPa 0,0 l/m 1,6 km/h (1 Bft) NO 53 1 min 0,000 mm 0,0 UV-I 54 W/m 14,7 C 20,1 C 3,2 km/h (1 Bft) 95,65 %
03.06.2016 20:14 20,1 C 70 % 1008,1 hPa 0,0 l/m 1,5 km/h (1 Bft) NO 53 0 min 0,000 mm 0,0 UV-I 49 W/m 14,5 C 20,1 C 1,6 km/h (1 Bft) 100,00 %
03.06.2016 20:15 20,1 C 71 % 1008,0 hPa 0,0 l/m 1,2 km/h (1 Bft) NO 53 1 min 0,000 mm 0,0 UV-I 50 W/m 14,7 C 20,1 C 1,6 km/h (1 Bft) 100,00 %
03.06.2016 20:16 20,1 C 69 % 1008,1 hPa 0,0 l/m 2,7 km/h (1 Bft) O-SO 110 1 min 0,000 mm 0,0 UV-I 48 W/m 14,2 C 20,1 C 4,8 km/h (1 Bft) 100,00 %
03.06.2016 20:17 20,1 C 71 % 1008,1 hPa 0,0 l/m 2,0 km/h (1 Bft) O-SO 110 0 min 0,000 mm 0,0 UV-I 44 W/m 14,7 C 20,1 C 3,2 km/h (1 Bft) 95,65 %
03.06.2016 20:18 20,1 C 71 % 1008,0 hPa 0,0 l/m 1,5 km/h (1 Bft) O-SO 110 0 min 0,000 mm 0,0 UV-I 40 W/m 14,7 C 20,1 C 1,6 km/h (1 Bft) 100,00 %
03.06.2016 20:19 20,1 C 71 % 1008,1 hPa 0,0 l/m 1,0 km/h (0 Bft) O-SO 110 0 min 0,000 mm 0,0 UV-I 37 W/m 14,7 C 20,1 C 1,6 km/h (1 Bft) 100,00 %
03.06.2016 20:20 20,1 C 72 % 1008,1 hPa 0,0 l/m 1,5 km/h (1 Bft) O-SO 110 0 min 0,000 mm 0,0 UV-I 33 W/m 14,9 C 20,1 C 1,6 km/h (1 Bft) 100,00 %
03.06.2016 20:21 20,0 C 72 % 1008,1 hPa 0,0 l/m 1,9 km/h (1 Bft) O-SO 110 0 min 0,000 mm 0,0 UV-I 32 W/m 14,8 C 20,0 C 3,2 km/h (1 Bft) 100,00 %
03.06.2016 20:22 19,9 C 72 % 1008,0 hPa 0,0 l/m 1,5 km/h (1 Bft) O-SO 110 0 min 0,000 mm 0,0 UV-I 31 W/m 14,7 C 19,9 C 3,2 km/h (1 Bft) 100,00 %
03.06.2016 20:23 19,9 C 72 % 1008,0 hPa 0,0 l/m 1,9 km/h (1 Bft) O-SO 110 0 min 0,000 mm 0,0 UV-I 29 W/m 14,7 C 19,9 C 3,2 km/h (1 Bft) 100,00 %
03.06.2016 20:24 19,9 C 72 % 1008,0 hPa 0,0 l/m 1,6 km/h (1 Bft) O-SO 110 0 min 0,000 mm 0,0 UV-I 26 W/m 14,7 C 19,9 C 3,2 km/h (1 Bft) 100,00 %
03.06.2016 20:25 19,9 C 73 % 1008,0 hPa 0,0 l/m 1,5 km/h (1 Bft) O-SO 110 0 min 0,000 mm 0,0 UV-I 25 W/m 14,9 C 19,9 C 3,2 km/h (1 Bft) 100,00 %
03.06.2016 20:26 19,9 C 72 % 1008,1 hPa 0,0 l/m 1,3 km/h (1 Bft) O-SO 110 0 min 0,000 mm 0,0 UV-I 25 W/m 14,7 C 19,9 C 1,6 km/h (1 Bft) 100,00 %
03.06.2016 20:27 19,8 C 72 % 1008,1 hPa 0,0 l/m 0,7 km/h (0 Bft) O-SO 110 0 min 0,000 mm 0,0 UV-I 22 W/m 14,6 C 19,8 C 1,6 km/h (1 Bft) 100,00 %
03.06.2016 20:28 19,8 C 71 % 1008,0 hPa 0,0 l/m 0,0 km/h (0 Bft) O-SO 110 0 min 0,000 mm 0,0 UV-I 21 W/m 14,4 C 19,8 C 0,0 km/h (0 Bft) 95,65 %
03.06.2016 20:29 19,8 C 73 % 1008,1 hPa 0,0 l/m 0,1 km/h (0 Bft) O-SO 110 0 min 0,000 mm 0,0 UV-I 21 W/m 14,8 C 19,8 C 1,6 km/h (1 Bft) 100,00 %
03.06.2016 20:30 19,8 C 77 % 1008,0 hPa 0,0 l/m 0,4 km/h (0 Bft) O-SO 110 0 min 0,000 mm 0,0 UV-I 20 W/m 15,6 C 19,8 C 1,6 km/h (1 Bft) 95,65 %
03.06.2016 20:31 19,7 C 77 % 1008,1 hPa 0,0 l/m 0,3 km/h (0 Bft) O-SO 110 0 min 0,000 mm 0,0 UV-I 19 W/m 15,5 C 19,7 C 1,6 km/h (1 Bft) 95,83 %
03.06.2016 20:32 19,5 C 77 % 1008,0 hPa 0,0 l/m 0,9 km/h (0 Bft) O-SO 110 0 min 0,000 mm 0,0 UV-I 19 W/m 15,4 C 19,5 C 1,6 km/h (1 Bft) 100,00 %
03.06.2016 20:33 19,3 C 78 % 1008,0 hPa 0,0 l/m 0,6 km/h (0 Bft) O-SO 110 0 min 0,000 mm 0,0 UV-I 18 W/m 15,4 C 19,3 C 1,6 km/h (1 Bft) 100,00 %
03.06.2016 20:34 19,2 C 78 % 1008,0 hPa 0,0 l/m 0,4 km/h (0 Bft) O-SO 110 0 min 0,000 mm 0,0 UV-I 17 W/m 15,3 C 19,2 C 1,6 km/h (1 Bft) 100,00 %
03.06.2016 20:35 19,1 C 77 % 1008,0 hPa 0,0 l/m 0,4 km/h (0 Bft) O-SO 110 0 min 0,000 mm 0,0 UV-I 16 W/m 15,0 C 19,1 C 1,6 km/h (1 Bft) 100,00 %
03.06.2016 20:36 19,0 C 77 % 1008,0 hPa 0,0 l/m 0,3 km/h (0 Bft) O-SO 110 0 min 0,000 mm 0,0 UV-I 16 W/m 14,9 C 19,0 C 1,6 km/h (1 Bft) 95,65 %
03.06.2016 20:37 18,9 C 77 % 1008,0 hPa 0,0 l/m 0,3 km/h (0 Bft) O-SO 110 0 min 0,000 mm 0,0 UV-I 16 W/m 14,8 C 18,9 C 1,6 km/h (1 Bft) 95,83 %
03.06.2016 20:38 18,8 C 77 % 1008,1 hPa 0,0 l/m 0,2 km/h (0 Bft) O-SO 110 0 min 0,000 mm 0,0 UV-I 14 W/m 14,7 C 18,8 C 1,6 km/h (1 Bft) 95,65 %
03.06.2016 20:39 18,8 C 78 % 1008,1 hPa 0,0 l/m 1,5 km/h (1 Bft) O-SO 110 0 min 0,000 mm 0,0 UV-I 14 W/m 14,9 C 18,8 C 3,2 km/h (1 Bft) 95,83 %
03.06.2016 20:40 18,7 C 78 % 1008,1 hPa 0,0 l/m 1,4 km/h (1 Bft) O-SO 110 0 min 0,000 mm 0,0 UV-I 14 W/m 14,8 C 18,7 C 3,2 km/h (1 Bft) 100,00 %
03.06.2016 20:41 18,6 C 79 % 1008,1 hPa 0,0 l/m 0,3 km/h (0 Bft) O-SO 110 0 min 0,000 mm 0,0 UV-I 13 W/m 14,9 C 18,6 C 1,6 km/h (1 Bft) 95,83 %
03.06.2016 20:42 18,6 C 80 % 1008,1 hPa 0,0 l/m 0,7 km/h (0 Bft) O-SO 110 0 min 0,000 mm 0,0 UV-I 12 W/m 15,1 C 18,6 C 1,6 km/h (1 Bft) 95,65 %
03.06.2016 20:43 18,5 C 81 % 1008,0 hPa 0,0 l/m 0,9 km/h (0 Bft) O-SO 110 1 min 0,000 mm 0,0 UV-I 12 W/m 15,2 C 18,5 C 1,6 km/h (1 Bft) 100,00 %
03.06.2016 20:44 18,4 C 82 % 1008,1 hPa 0,0 l/m 0,7 km/h (0 Bft) O-SO 110 1 min 0,000 mm 0,0 UV-I 12 W/m 15,3 C 18,4 C 1,6 km/h (1 Bft) 100,00 %
03.06.2016 20:45 18,3 C 82 % 1008,1 hPa 0,0 l/m 0,9 km/h (0 Bft) O-SO 110 1 min 0,000 mm 0,0 UV-I 11 W/m 15,2 C 18,3 C 1,6 km/h (1 Bft) 100,00 %
03.06.2016 20:46 18,3 C 83 % 1008,1 hPa 0,0 l/m 0,7 km/h (0 Bft) O-SO 110 0 min 0,000 mm 0,0 UV-I 10 W/m 15,4 C 18,3 C 1,6 km/h (1 Bft) 100,00 %
03.06.2016 20:47 18,2 C 82 % 1008,1 hPa 0,0 l/m 1,9 km/h (1 Bft) O-SO 110 0 min 0,000 mm 0,0 UV-I 9 W/m 15,1 C 18,2 C 3,2 km/h (1 Bft) 100,00 %
03.06.2016 20:48 18,2 C 82 % 1008,1 hPa 0,0 l/m 0,3 km/h (0 Bft) O-SO 110 0 min 0,000 mm 0,0 UV-I 9 W/m 15,1 C 18,2 C 1,6 km/h (1 Bft) 100,00 %
03.06.2016 20:49 18,1 C 83 % 1008,1 hPa 0,0 l/m 0,7 km/h (0 Bft) O-SO 110 0 min 0,000 mm 0,0 UV-I 9 W/m 15,2 C 18,1 C 1,6 km/h (1 Bft) 100,00 %
03.06.2016 20:50 18,0 C 83 % 1008,2 hPa 0,0 l/m 0,3 km/h (0 Bft) O-SO 110 0 min 0,000 mm 0,0 UV-I 7 W/m 15,1 C 18,0 C 1,6 km/h (1 Bft) 100,00 %
03.06.2016 20:51 18,0 C 83 % 1008,1 hPa 0,0 l/m 0,3 km/h (0 Bft) O-SO 110 0 min 0,000 mm 0,0 UV-I 7 W/m 15,1 C 18,0 C 1,6 km/h (1 Bft) 100,00 %
03.06.2016 20:52 17,9 C 84 % 1008,1 hPa 0,0 l/m 0,6 km/h (0 Bft) O-SO 110 0 min 0,000 mm 0,0 UV-I 7 W/m 15,2 C 17,9 C 1,6 km/h (1 Bft) 100,00 %
03.06.2016 20:53 17,9 C 84 % 1008,2 hPa 0,0 l/m 0,5 km/h (0 Bft) O-SO 110 0 min 0,000 mm 0,0 UV-I 7 W/m 15,2 C 17,9 C 1,6 km/h (1 Bft) 95,65 %
03.06.2016 20:54 17,8 C 84 % 1008,2 hPa 0,0 l/m 0,3 km/h (0 Bft) O-SO 110 0 min 0,000 mm 0,0 UV-I 5 W/m 15,1 C 17,8 C 1,6 km/h (1 Bft) 95,83 %
03.06.2016 20:55 17,8 C 83 % 1008,2 hPa 0,0 l/m 0,0 km/h (0 Bft) O-SO 110 0 min 0,000 mm 0,0 UV-I 5 W/m 14,9 C 17,8 C 0,0 km/h (0 Bft) 100,00 %
03.06.2016 20:56 17,7 C 83 % 1008,2 hPa 0,0 l/m 0,2 km/h (0 Bft) O-SO 110 0 min 0,000 mm 0,0 UV-I 5 W/m 14,8 C 17,7 C 1,6 km/h (1 Bft) 100,00 %
03.06.2016 20:57 17,7 C 83 % 1008,3 hPa 0,0 l/m 0,2 km/h (0 Bft) O-SO 110 0 min 0,000 mm 0,0 UV-I 5 W/m 14,8 C 17,7 C 1,6 km/h (1 Bft) 100,00 %
03.06.2016 20:58 17,7 C 84 % 1008,2 hPa 0,0 l/m 0,7 km/h (0 Bft) O-SO 110 0 min 0,000 mm 0,0 UV-I 5 W/m 15,0 C 17,7 C 1,6 km/h (1 Bft) 91,67 %
03.06.2016 20:59 17,7 C 83 % 1008,3 hPa 0,0 l/m 0,3 km/h (0 Bft) O-SO 110 0 min 0,000 mm 0,0 UV-I 5 W/m 14,8 C 17,7 C 1,6 km/h (1 Bft) 100,00 %
03.06.2016 21:00 17,6 C 84 % 1008,3 hPa 0,0 l/m 0,1 km/h (0 Bft) O-SO 110 0 min 0,000 mm 0,0 UV-I 1 W/m 14,9 C 17,6 C 1,6 km/h (1 Bft) 95,83 %
03.06.2016 21:01 17,6 C 84 % 1008,2 hPa 0,0 l/m 0,0 km/h (0 Bft) O-SO 110 0 min 0,025 mm 0,0 UV-I 0 W/m 14,9 C 17,6 C 0,0 km/h (0 Bft) 95,65 %
03.06.2016 21:02 17,5 C 85 % 1008,3 hPa 0,0 l/m 0,0 km/h (0 Bft) O-SO 110 0 min 0,000 mm 0,0 UV-I 0 W/m 14,9 C 17,5 C 0,0 km/h (0 Bft) 100,00 %
03.06.2016 21:03 17,4 C 86 % 1008,3 hPa 0,0 l/m 0,0 km/h (0 Bft) O-SO 110 0 min 0,000 mm 0,0 UV-I 0 W/m 15,0 C 17,4 C 0,0 km/h (0 Bft) 100,00 %
03.06.2016 21:04 17,4 C 87 % 1008,3 hPa 0,0 l/m 0,0 km/h (0 Bft) O-SO 110 0 min 0,000 mm 0,0 UV-I 0 W/m 15,2 C 17,4 C 0,0 km/h (0 Bft) 100,00 %
03.06.2016 21:05 17,3 C 87 % 1008,3 hPa 0,0 l/m 0,0 km/h (0 Bft) O-SO 110 0 min 0,000 mm 0,0 UV-I 0 W/m 15,1 C 17,3 C 0,0 km/h (0 Bft) 100,00 %
03.06.2016 21:06 17,3 C 86 % 1008,3 hPa 0,0 l/m 0,0 km/h (0 Bft) O-SO 110 0 min 0,000 mm 0,0 UV-I 0 W/m 14,9 C 17,3 C 0,0 km/h (0 Bft) 100,00 %
03.06.2016 21:07 17,2 C 86 % 1008,4 hPa 0,0 l/m 0,0 km/h (0 Bft) O-SO 110 0 min 0,000 mm 0,0 UV-I 0 W/m 14,8 C 17,2 C 0,0 km/h (0 Bft) 100,00 %
03.06.2016 21:08 17,2 C 86 % 1008,3 hPa 0,0 l/m 0,0 km/h (0 Bft) O-SO 110 0 min 0,000 mm 0,0 UV-I 0 W/m 14,8 C 17,2 C 0,0 km/h (0 Bft) 100,00 %
03.06.2016 21:09 17,2 C 85 % 1008,3 hPa 0,0 l/m 0,0 km/h (0 Bft) O-SO 110 0 min 0,000 mm 0,0 UV-I 0 W/m 14,7 C 17,2 C 0,0 km/h (0 Bft) 100,00 %
03.06.2016 21:10 17,1 C 84 % 1008,4 hPa 0,0 l/m 0,0 km/h (0 Bft) O-SO 110 0 min 0,000 mm 0,0 UV-I 0 W/m 14,4 C 17,1 C 0,0 km/h (0 Bft) 100,00 %
03.06.2016 21:11 17,1 C 84 % 1008,4 hPa 0,0 l/m 0,0 km/h (0 Bft) O-SO 110 0 min 0,000 mm 0,0 UV-I 0 W/m 14,4 C 17,1 C 0,0 km/h (0 Bft) 100,00 %
03.06.2016 21:12 17,1 C 85 % 1008,4 hPa 0,0 l/m 0,0 km/h (0 Bft) O-SO 110 0 min 0,000 mm 0,0 UV-I 0 W/m 14,6 C 17,1 C 0,0 km/h (0 Bft) 100,00 %
03.06.2016 21:13 17,1 C 85 % 1008,4 hPa 0,0 l/m 0,0 km/h (0 Bft) O-SO 110 0 min 0,000 mm 0,0 UV-I 0 W/m 14,6 C 17,1 C 0,0 km/h (0 Bft) 100,00 %
03.06.2016 21:14 17,1 C 85 % 1008,4 hPa 0,0 l/m 0,0 km/h (0 Bft) O-SO 110 0 min 0,000 mm 0,0 UV-I 0 W/m 14,6 C 17,1 C 0,0 km/h (0 Bft) 100,00 %
03.06.2016 21:15 17,1 C 85 % 1008,4 hPa 0,0 l/m 0,0 km/h (0 Bft) O-SO 110 0 min 0,000 mm 0,0 UV-I 0 W/m 14,6 C 17,1 C 0,0 km/h (0 Bft) 91,67 %
03.06.2016 21:16 17,1 C 85 % 1008,4 hPa 0,0 l/m 0,0 km/h (0 Bft) O-SO 110 0 min 0,000 mm 0,0 UV-I 0 W/m 14,6 C 17,1 C 0,0 km/h (0 Bft) 100,00 %
03.06.2016 21:17 17,1 C 86 % 1008,4 hPa 0,0 l/m 0,1 km/h (0 Bft) O-SO 110 0 min 0,000 mm 0,0 UV-I 0 W/m 14,7 C 17,1 C 1,6 km/h (1 Bft) 100,00 %
03.06.2016 21:18 17,1 C 86 % 1008,4 hPa 0,0 l/m 0,0 km/h (0 Bft) O-SO 110 0 min 0,000 mm 0,0 UV-I 0 W/m 14,7 C 17,1 C 0,0 km/h (0 Bft) 100,00 %
03.06.2016 21:19 17,0 C 86 % 1008,5 hPa 0,0 l/m 0,0 km/h (0 Bft) O-SO 110 0 min 0,000 mm 0,0 UV-I 0 W/m 14,6 C 17,0 C 0,0 km/h (0 Bft) 100,00 %
03.06.2016 21:20 16,9 C 86 % 1008,5 hPa 0,0 l/m 0,0 km/h (0 Bft) O-SO 110 0 min 0,000 mm 0,0 UV-I 0 W/m 14,5 C 16,9 C 0,0 km/h (0 Bft) 95,65 %
03.06.2016 21:21 16,9 C 86 % 1008,5 hPa 0,0 l/m 0,0 km/h (0 Bft) O-SO 110 0 min 0,000 mm 0,0 UV-I 0 W/m 14,5 C 16,9 C 0,0 km/h (0 Bft) 100,00 %
03.06.2016 21:22 16,8 C 86 % 1008,5 hPa 0,0 l/m 0,0 km/h (0 Bft) O-SO 110 0 min 0,000 mm 0,0 UV-I 0 W/m 14,4 C 16,8 C 0,0 km/h (0 Bft) 100,00 %
03.06.2016 21:23 16,8 C 86 % 1008,5 hPa 0,0 l/m 0,0 km/h (0 Bft) O-SO 110 0 min 0,000 mm 0,0 UV-I 0 W/m 14,4 C 16,8 C 0,0 km/h (0 Bft) 100,00 %
03.06.2016 21:24 16,7 C 86 % 1008,6 hPa 0,0 l/m 0,0 km/h (0 Bft) O-SO 110 0 min 0,000 mm 0,0 UV-I 0 W/m 14,3 C 16,7 C 0,0 km/h (0 Bft) 100,00 %
03.06.2016 21:25 16,6 C 86 % 1008,6 hPa 0,0 l/m 0,0 km/h (0 Bft) O-SO 110 0 min 0,000 mm 0,0 UV-I 0 W/m 14,2 C 16,6 C 0,0 km/h (0 Bft) 100,00 %
03.06.2016 21:26 16,6 C 86 % 1008,6 hPa 0,0 l/m 0,0 km/h (0 Bft) O-SO 110 0 min 0,000 mm 0,0 UV-I 0 W/m 14,2 C 16,6 C 0,0 km/h (0 Bft) 100,00 %
03.06.2016 21:27 16,6 C 87 % 1008,6 hPa 0,0 l/m 0,0 km/h (0 Bft) O-SO 110 0 min 0,000 mm 0,0 UV-I 0 W/m 14,4 C 16,6 C 0,0 km/h (0 Bft) 95,83 %
03.06.2016 21:28 16,6 C 87 % 1008,6 hPa 0,0 l/m 0,0 km/h (0 Bft) O-SO 110 0 min 0,000 mm 0,0 UV-I 0 W/m 14,4 C 16,6 C 0,0 km/h (0 Bft) 100,00 %
03.06.2016 21:29 16,6 C 87 % 1008,7 hPa 0,0 l/m 0,4 km/h (0 Bft) O-SO 110 0 min 0,000 mm 0,0 UV-I 0 W/m 14,4 C 16,6 C 1,6 km/h (1 Bft) 88,46 %
03.06.2016 21:30 16,6 C 87 % 1008,7 hPa 0,0 l/m 0,8 km/h (0 Bft) O-SO 110 0 min 0,000 mm 0,0 UV-I 0 W/m 14,4 C 16,6 C 1,6 km/h (1 Bft) 100,00 %
03.06.2016 21:31 16,6 C 87 % 1008,7 hPa 0,0 l/m 0,9 km/h (0 Bft) O-SO 110 0 min 0,000 mm 0,0 UV-I 0 W/m 14,4 C 16,6 C 1,6 km/h (1 Bft) 95,65 %
03.06.2016 21:32 16,6 C 87 % 1008,7 hPa 0,0 l/m 1,5 km/h (1 Bft) O-SO 110 0 min 0,000 mm 0,0 UV-I 0 W/m 14,4 C 16,6 C 3,2 km/h (1 Bft) 100,00 %
03.06.2016 21:33 16,6 C 87 % 1008,7 hPa 0,0 l/m 1,8 km/h (1 Bft) O-SO 110 0 min 0,000 mm 0,0 UV-I 0 W/m 14,4 C 16,6 C 3,2 km/h (1 Bft) 96,15 %
03.06.2016 21:34 16,6 C 87 % 1008,7 hPa 0,0 l/m 3,5 km/h (1 Bft) S 171 0 min 0,000 mm 0,0 UV-I 0 W/m 14,4 C 16,6 C 6,4 km/h (2 Bft) 100,00 %
03.06.2016 21:35 16,6 C 87 % 1008,7 hPa 0,0 l/m 2,0 km/h (1 Bft) S 171 0 min 0,000 mm 0,0 UV-I 0 W/m 14,4 C 16,6 C 3,2 km/h (1 Bft) 95,65 %
03.06.2016 21:36 16,6 C 87 % 1008,7 hPa 0,0 l/m 1,3 km/h (1 Bft) S 171 0 min 0,000 mm 0,0 UV-I 0 W/m 14,4 C 16,6 C 3,2 km/h (1 Bft) 95,83 %
03.06.2016 21:37 16,6 C 87 % 1008,8 hPa 0,0 l/m 2,1 km/h (1 Bft) S 171 0 min 0,000 mm 0,0 UV-I 0 W/m 14,4 C 16,6 C 3,2 km/h (1 Bft) 100,00 %
03.06.2016 21:38 16,6 C 87 % 1008,7 hPa 0,0 l/m 1,9 km/h (1 Bft) S 171 0 min 0,000 mm 0,0 UV-I 0 W/m 14,4 C 16,6 C 3,2 km/h (1 Bft) 96,30 %
03.06.2016 21:39 16,7 C 87 % 1008,7 hPa 0,0 l/m 1,4 km/h (1 Bft) S 171 0 min 0,000 mm 0,0 UV-I 0 W/m 14,5 C 16,7 C 1,6 km/h (1 Bft) 100,00 %
03.06.2016 21:40 16,7 C 86 % 1008,8 hPa 0,0 l/m 1,5 km/h (1 Bft) S 171 0 min 0,000 mm 0,0 UV-I 0 W/m 14,3 C 16,7 C 3,2 km/h (1 Bft) 95,83 %
03.06.2016 21:41 16,7 C 86 % 1008,8 hPa 0,0 l/m 0,1 km/h (0 Bft) S 171 0 min 0,000 mm 0,0 UV-I 0 W/m 14,3 C 16,7 C 1,6 km/h (1 Bft) 100,00 %
03.06.2016 21:42 16,7 C 85 % 1008,7 hPa 0,0 l/m 0,0 km/h (0 Bft) S 171 0 min 0,000 mm 0,0 UV-I 0 W/m 14,2 C 16,7 C 0,0 km/h (0 Bft) 95,83 %
03.06.2016 21:43 16,8 C 85 % 1008,7 hPa 0,0 l/m 0,0 km/h (0 Bft) S 171 0 min 0,000 mm 0,0 UV-I 0 W/m 14,3 C 16,8 C 0,0 km/h (0 Bft) 91,30 %
03.06.2016 21:44 16,8 C 85 % 1008,8 hPa 0,0 l/m 0,0 km/h (0 Bft) S 171 0 min 0,000 mm 0,0 UV-I 0 W/m 14,3 C 16,8 C 0,0 km/h (0 Bft) 100,00 %
03.06.2016 21:45 16,8 C 85 % 1008,8 hPa 0,0 l/m 0,2 km/h (0 Bft) S 171 0 min 0,000 mm 0,0 UV-I 0 W/m 14,3 C 16,8 C 1,6 km/h (1 Bft) 95,65 %
03.06.2016 21:46 16,8 C 85 % 1008,8 hPa 0,0 l/m 1,7 km/h (1 Bft) S 171 0 min 0,000 mm 0,0 UV-I 0 W/m 14,3 C 16,8 C 3,2 km/h (1 Bft) 100,00 %
03.06.2016 21:47 16,8 C 85 % 1008,8 hPa 0,0 l/m 2,4 km/h (1 Bft) S 171 0 min 0,000 mm 0,0 UV-I 0 W/m 14,3 C 16,8 C 3,2 km/h (1 Bft) 93,33 %
03.06.2016 21:48 16,7 C 86 % 1008,8 hPa 0,0 l/m 2,3 km/h (1 Bft) S 171 0 min 0,000 mm 0,0 UV-I 0 W/m 14,3 C 16,7 C 6,4 km/h (2 Bft) 100,00 %
03.06.2016 21:49 16,7 C 86 % 1008,9 hPa 0,0 l/m 2,1 km/h (1 Bft) S 171 0 min 0,000 mm 0,0 UV-I 0 W/m 14,3 C 16,7 C 3,2 km/h (1 Bft) 95,83 %
03.06.2016 21:50 16,6 C 86 % 1008,9 hPa 0,0 l/m 1,6 km/h (1 Bft) S 171 0 min 0,000 mm 0,0 UV-I 0 W/m 14,2 C 16,6 C 1,6 km/h (1 Bft) 100,00 %
03.06.2016 21:51 16,6 C 85 % 1008,9 hPa 0,0 l/m 1,5 km/h (1 Bft) S 171 0 min 0,000 mm 0,0 UV-I 0 W/m 14,1 C 16,6 C 1,6 km/h (1 Bft) 95,83 %
03.06.2016 21:52 16,5 C 85 % 1008,9 hPa 0,0 l/m 1,1 km/h (1 Bft) S 171 0 min 0,000 mm 0,0 UV-I 0 W/m 14,0 C 16,5 C 1,6 km/h (1 Bft) 95,65 %
03.06.2016 21:53 16,4 C 85 % 1009,0 hPa 0,0 l/m 0,8 km/h (0 Bft) S 171 0 min 0,000 mm 0,0 UV-I 0 W/m 13,9 C 16,4 C 1,6 km/h (1 Bft) 95,83 %
03.06.2016 21:54 16,4 C 85 % 1009,0 hPa 0,0 l/m 1,5 km/h (1 Bft) S 171 0 min 0,000 mm 0,0 UV-I 0 W/m 13,9 C 16,4 C 3,2 km/h (1 Bft) 95,65 %
03.06.2016 21:55 16,4 C 85 % 1009,0 hPa 0,0 l/m 1,4 km/h (1 Bft) S 171 0 min 0,000 mm 0,0 UV-I 0 W/m 13,9 C 16,4 C 3,2 km/h (1 Bft) 91,67 %
03.06.2016 21:56 16,3 C 86 % 1009,0 hPa 0,0 l/m 0,3 km/h (0 Bft) S 171 0 min 0,000 mm 0,0 UV-I 0 W/m 14,0 C 16,3 C 1,6 km/h (1 Bft) 95,65 %
03.06.2016 21:57 16,3 C 86 % 1009,0 hPa 0,0 l/m 0,1 km/h (0 Bft) S 171 0 min 0,000 mm 0,0 UV-I 0 W/m 14,0 C 16,3 C 1,6 km/h (1 Bft) 100,00 %
03.06.2016 21:58 16,2 C 86 % 1009,0 hPa 0,0 l/m 0,2 km/h (0 Bft) S 171 0 min 0,000 mm 0,0 UV-I 0 W/m 13,9 C 16,2 C 1,6 km/h (1 Bft) 91,30 %
03.06.2016 21:59 16,2 C 86 % 1009,0 hPa 0,0 l/m 0,0 km/h (0 Bft) S 171 0 min 0,000 mm 0,0 UV-I 0 W/m 13,9 C 16,2 C 0,0 km/h (0 Bft) 95,83 %
03.06.2016 22:00 16,2 C 86 % 1009,0 hPa 0,0 l/m 1,0 km/h (0 Bft) S 171 0 min 0,000 mm 0,0 UV-I 0 W/m 13,9 C 16,2 C 1,6 km/h (1 Bft) 96,15 %
03.06.2016 22:01 16,2 C 86 % 1009,0 hPa 0,0 l/m 0,9 km/h (0 Bft) S 171 0 min 0,000 mm 0,0 UV-I 0 W/m 13,9 C 16,2 C 1,6 km/h (1 Bft) 95,83 %
03.06.2016 22:02 16,2 C 87 % 1009,0 hPa 0,0 l/m 0,1 km/h (0 Bft) S 171 0 min 0,000 mm 0,0 UV-I 0 W/m 14,0 C 16,2 C 1,6 km/h (1 Bft) 95,65 %
03.06.2016 22:03 16,2 C 87 % 1009,0 hPa 0,0 l/m 0,0 km/h (0 Bft) S 171 0 min 0,000 mm 0,0 UV-I 0 W/m 14,0 C 16,2 C 0,0 km/h (0 Bft) 95,83 %
03.06.2016 22:04 16,2 C 87 % 1009,0 hPa 0,0 l/m 0,0 km/h (0 Bft) S 171 0 min 0,000 mm 0,0 UV-I 0 W/m 14,0 C 16,2 C 0,0 km/h (0 Bft) 95,65 %
03.06.2016 22:05 16,2 C 87 % 1009,0 hPa 0,0 l/m 0,0 km/h (0 Bft) S 171 0 min 0,000 mm 0,0 UV-I 0 W/m 14,0 C 16,2 C 0,0 km/h (0 Bft) 100,00 %
03.06.2016 22:06 16,2 C 86 % 1009,0 hPa 0,0 l/m 0,0 km/h (0 Bft) S 171 0 min 0,000 mm 0,0 UV-I 0 W/m 13,9 C 16,2 C 0,0 km/h (0 Bft) 95,65 %
03.06.2016 22:07 16,2 C 86 % 1009,0 hPa 0,0 l/m 0,0 km/h (0 Bft) S 171 0 min 0,000 mm 0,0 UV-I 0 W/m 13,9 C 16,2 C 0,0 km/h (0 Bft) 100,00 %
03.06.2016 22:08 16,2 C 86 % 1009,0 hPa 0,0 l/m 0,0 km/h (0 Bft) S 171 0 min 0,000 mm 0,0 UV-I 0 W/m 13,9 C 16,2 C 0,0 km/h (0 Bft) 95,65 %
03.06.2016 22:09 16,2 C 86 % 1009,1 hPa 0,0 l/m 0,0 km/h (0 Bft) S 171 0 min 0,000 mm 0,0 UV-I 0 W/m 13,9 C 16,2 C 0,0 km/h (0 Bft) 100,00 %
03.06.2016 22:10 16,2 C 85 % 1009,1 hPa 0,0 l/m 0,0 km/h (0 Bft) S 171 0 min 0,000 mm 0,0 UV-I 0 W/m 13,7 C 16,2 C 0,0 km/h (0 Bft) 95,83 %
03.06.2016 22:11 16,3 C 85 % 1009,1 hPa 0,0 l/m 0,0 km/h (0 Bft) S 171 0 min 0,000 mm 0,0 UV-I 0 W/m 13,8 C 16,3 C 0,0 km/h (0 Bft) 100,00 %
03.06.2016 22:12 16,2 C 85 % 1009,1 hPa 0,0 l/m 0,0 km/h (0 Bft) S 171 0 min 0,000 mm 0,0 UV-I 0 W/m 13,7 C 16,2 C 0,0 km/h (0 Bft) 95,83 %
03.06.2016 22:13 16,2 C 85 % 1009,1 hPa 0,0 l/m 0,0 km/h (0 Bft) S 171 0 min 0,000 mm 0,0 UV-I 0 W/m 13,7 C 16,2 C 0,0 km/h (0 Bft) 95,65 %
03.06.2016 22:14 16,2 C 87 % 1009,2 hPa 0,0 l/m 0,1 km/h (0 Bft) S 171 0 min 0,000 mm 0,0 UV-I 0 W/m 14,0 C 16,2 C 1,6 km/h (1 Bft) 100,00 %
03.06.2016 22:15 16,2 C 87 % 1009,2 hPa 0,0 l/m 0,0 km/h (0 Bft) S 171 0 min 0,000 mm 0,0 UV-I 0 W/m 14,0 C 16,2 C 0,0 km/h (0 Bft) 92,86 %
03.06.2016 22:16 16,1 C 87 % 1009,2 hPa 0,0 l/m 0,0 km/h (0 Bft) S 171 0 min 0,000 mm 0,0 UV-I 0 W/m 13,9 C 16,1 C 0,0 km/h (0 Bft) 95,83 %
03.06.2016 22:17 16,0 C 88 % 1009,2 hPa 0,0 l/m 0,0 km/h (0 Bft) S 171 0 min 0,000 mm 0,0 UV-I 0 W/m 14,0 C 16,0 C 0,0 km/h (0 Bft) 95,65 %
03.06.2016 22:18 15,9 C 88 % 1009,2 hPa 0,0 l/m 0,0 km/h (0 Bft) S 171 0 min 0,000 mm 0,0 UV-I 0 W/m 13,9 C 15,9 C 0,0 km/h (0 Bft) 100,00 %
03.06.2016 22:19 15,9 C 88 % 1009,1 hPa 0,0 l/m 0,0 km/h (0 Bft) S 171 0 min 0,000 mm 0,0 UV-I 0 W/m 13,9 C 15,9 C 0,0 km/h (0 Bft) 100,00 %
03.06.2016 22:20 15,8 C 87 % 1009,2 hPa 0,0 l/m 0,7 km/h (0 Bft) S 171 0 min 0,000 mm 0,0 UV-I 0 W/m 13,6 C 15,8 C 1,6 km/h (1 Bft) 100,00 %
03.06.2016 22:21 15,8 C 87 % 1009,2 hPa 0,0 l/m 0,9 km/h (0 Bft) S 171 0 min 0,000 mm 0,0 UV-I 0 W/m 13,6 C 15,8 C 3,2 km/h (1 Bft) 95,65 %
03.06.2016 22:22 15,7 C 87 % 1009,2 hPa 0,0 l/m 0,8 km/h (0 Bft) S 171 0 min 0,000 mm 0,0 UV-I 0 W/m 13,5 C 15,7 C 1,6 km/h (1 Bft) 100,00 %
03.06.2016 22:25 15,6 C 88 % 1009,2 hPa 0,0 l/m 1,6 km/h (1 Bft) S 180 0 min 0,000 mm 0,0 UV-I 0 W/m 13,6 C 15,6 C 3,2 km/h (1 Bft) 98,25 %
03.06.2016 22:30 15,4 C 88 % 1009,2 hPa 0,0 l/m 3,2 km/h (1 Bft) S 180 0 min 0,000 mm 0,0 UV-I 0 W/m 13,4 C 15,4 C 6,4 km/h (2 Bft) 97,37 %
03.06.2016 22:32 15,4 C 88 % 1009,2 hPa 0,0 l/m 1,6 km/h (1 Bft) S 171 0 min 0,000 mm 0,0 UV-I 0 W/m 13,4 C 15,4 C 1,6 km/h (1 Bft) 98,70 %
03.06.2016 22:33 15,5 C 88 % 1009,2 hPa 0,0 l/m 4,0 km/h (1 Bft) S 171 0 min 0,000 mm 0,0 UV-I 0 W/m 13,5 C 15,5 C 6,4 km/h (2 Bft) 96,43 %
03.06.2016 22:34 15,5 C 88 % 1009,2 hPa 0,0 l/m 3,1 km/h (1 Bft) S 171 0 min 0,000 mm 0,0 UV-I 0 W/m 13,5 C 15,5 C 6,4 km/h (2 Bft) 100,00 %
03.06.2016 22:35 15,5 C 89 % 1009,2 hPa 0,0 l/m 3,8 km/h (1 Bft) S 171 0 min 0,000 mm 0,0 UV-I 0 W/m 13,7 C 15,5 C 6,4 km/h (2 Bft) 100,00 %
03.06.2016 22:36 15,6 C 89 % 1009,2 hPa 0,0 l/m 3,1 km/h (1 Bft) S 171 0 min 0,000 mm 0,0 UV-I 0 W/m 13,8 C 15,6 C 6,4 km/h (2 Bft) 100,00 %
03.06.2016 22:37 15,6 C 89 % 1009,2 hPa 0,0 l/m 2,6 km/h (1 Bft) S 171 0 min 0,000 mm 0,0 UV-I 0 W/m 13,8 C 15,6 C 3,2 km/h (1 Bft) 100,00 %
03.06.2016 22:38 15,6 C 89 % 1009,2 hPa 0,0 l/m 3,6 km/h (1 Bft) S 171 0 min 0,000 mm 0,0 UV-I 0 W/m 13,8 C 15,6 C 6,4 km/h (2 Bft) 100,00 %
03.06.2016 22:39 15,6 C 89 % 1009,1 hPa 0,0 l/m 3,2 km/h (1 Bft) S 171 0 min 0,000 mm 0,0 UV-I 0 W/m 13,8 C 15,6 C 3,2 km/h (1 Bft) 100,00 %
03.06.2016 22:40 15,6 C 89 % 1009,1 hPa 0,0 l/m 3,2 km/h (1 Bft) S 171 0 min 0,000 mm 0,0 UV-I 0 W/m 13,8 C 15,6 C 6,4 km/h (2 Bft) 100,00 %
03.06.2016 22:41 15,6 C 88 % 1009,1 hPa 0,0 l/m 2,7 km/h (1 Bft) S 171 0 min 0,000 mm 0,0 UV-I 0 W/m 13,6 C 15,6 C 6,4 km/h (2 Bft) 95,65 %
03.06.2016 22:42 15,7 C 89 % 1009,2 hPa 0,0 l/m 3,6 km/h (1 Bft) S 171 0 min 0,000 mm 0,0 UV-I 0 W/m 13,9 C 15,7 C 6,4 km/h (2 Bft) 100,00 %
03.06.2016 22:43 15,7 C 89 % 1009,2 hPa 0,0 l/m 3,7 km/h (1 Bft) S 171 0 min 0,000 mm 0,0 UV-I 0 W/m 13,9 C 15,7 C 6,4 km/h (2 Bft) 95,65 %
03.06.2016 22:44 15,7 C 89 % 1009,2 hPa 0,0 l/m 3,6 km/h (1 Bft) S 171 0 min 0,000 mm 0,0 UV-I 0 W/m 13,9 C 15,7 C 6,4 km/h (2 Bft) 100,00 %
03.06.2016 22:45 15,7 C 89 % 1009,1 hPa 0,0 l/m 3,4 km/h (1 Bft) S 171 0 min 0,000 mm 0,0 UV-I 0 W/m 13,9 C 15,7 C 6,4 km/h (2 Bft) 100,00 %
03.06.2016 22:46 15,7 C 89 % 1009,1 hPa 0,0 l/m 3,0 km/h (1 Bft) S 171 0 min 0,000 mm 0,0 UV-I 0 W/m 13,9 C 15,7 C 3,2 km/h (1 Bft) 100,00 %
03.06.2016 22:47 15,7 C 89 % 1009,2 hPa 0,0 l/m 2,0 km/h (1 Bft) S 171 0 min 0,000 mm 0,0 UV-I 0 W/m 13,9 C 15,7 C 3,2 km/h (1 Bft) 100,00 %
03.06.2016 22:48 15,7 C 89 % 1009,1 hPa 0,0 l/m 2,4 km/h (1 Bft) S 171 0 min 0,000 mm 0,0 UV-I 0 W/m 13,9 C 15,7 C 3,2 km/h (1 Bft) 100,00 %
03.06.2016 22:49 15,7 C 89 % 1009,1 hPa 0,0 l/m 3,7 km/h (1 Bft) S 171 0 min 0,000 mm 0,0 UV-I 0 W/m 13,9 C 15,7 C 6,4 km/h (2 Bft) 100,00 %
03.06.2016 22:50 15,7 C 89 % 1009,2 hPa 0,0 l/m 3,4 km/h (1 Bft) S 171 0 min 0,000 mm 0,0 UV-I 0 W/m 13,9 C 15,7 C 6,4 km/h (2 Bft) 100,00 %
03.06.2016 22:51 15,7 C 89 % 1009,1 hPa 0,0 l/m 3,0 km/h (1 Bft) S 171 0 min 0,000 mm 0,0 UV-I 0 W/m 13,9 C 15,7 C 3,2 km/h (1 Bft) 100,00 %
03.06.2016 22:52 15,7 C 89 % 1009,1 hPa 0,0 l/m 3,6 km/h (1 Bft) S 171 0 min 0,000 mm 0,0 UV-I 0 W/m 13,9 C 15,7 C 6,4 km/h (2 Bft) 95,65 %
03.06.2016 22:53 15,7 C 89 % 1009,1 hPa 0,0 l/m 2,5 km/h (1 Bft) S 171 0 min 0,000 mm 0,0 UV-I 0 W/m 13,9 C 15,7 C 3,2 km/h (1 Bft) 100,00 %
03.06.2016 22:54 15,7 C 89 % 1009,1 hPa 0,0 l/m 1,5 km/h (1 Bft) S 171 0 min 0,000 mm 0,0 UV-I 0 W/m 13,9 C 15,7 C 3,2 km/h (1 Bft) 95,65 %
03.06.2016 22:55 15,7 C 88 % 1009,2 hPa 0,0 l/m 2,2 km/h (1 Bft) S 171 0 min 0,000 mm 0,0 UV-I 0 W/m 13,7 C 15,7 C 3,2 km/h (1 Bft) 100,00 %
03.06.2016 22:56 15,6 C 88 % 1009,2 hPa 0,0 l/m 2,1 km/h (1 Bft) S 171 0 min 0,000 mm 0,0 UV-I 0 W/m 13,6 C 15,6 C 3,2 km/h (1 Bft) 95,65 %
03.06.2016 22:57 15,6 C 88 % 1009,2 hPa 0,0 l/m 1,2 km/h (1 Bft) S 171 0 min 0,000 mm 0,0 UV-I 0 W/m 13,6 C 15,6 C 3,2 km/h (1 Bft) 100,00 %
03.06.2016 22:58 15,6 C 88 % 1009,2 hPa 0,0 l/m 0,1 km/h (0 Bft) S 171 0 min 0,000 mm 0,0 UV-I 0 W/m 13,6 C 15,6 C 1,6 km/h (1 Bft) 95,65 %
03.06.2016 22:59 15,6 C 88 % 1009,2 hPa 0,0 l/m 0,0 km/h (0 Bft) S 171 0 min 0,000 mm 0,0 UV-I 0 W/m 13,6 C 15,6 C 0,0 km/h (0 Bft) 100,00 %
03.06.2016 23:00 15,6 C 88 % 1009,2 hPa 0,0 l/m 0,3 km/h (0 Bft) S 171 0 min 0,000 mm 0,0 UV-I 0 W/m 13,6 C 15,6 C 1,6 km/h (1 Bft) 100,00 %
03.06.2016 23:01 15,6 C 88 % 1009,2 hPa 0,0 l/m 0,5 km/h (0 Bft) S 171 0 min 0,000 mm 0,0 UV-I 0 W/m 13,6 C 15,6 C 1,6 km/h (1 Bft) 100,00 %
03.06.2016 23:02 15,6 C 88 % 1009,2 hPa 0,0 l/m 0,3 km/h (0 Bft) S 171 0 min 0,000 mm 0,0 UV-I 0 W/m 13,6 C 15,6 C 1,6 km/h (1 Bft) 100,00 %
03.06.2016 23:03 15,6 C 88 % 1009,2 hPa 0,0 l/m 0,1 km/h (0 Bft) S 171 0 min 0,000 mm 0,0 UV-I 0 W/m 13,6 C 15,6 C 1,6 km/h (1 Bft) 100,00 %
03.06.2016 23:04 15,6 C 89 % 1009,3 hPa 0,0 l/m 1,1 km/h (1 Bft) S 171 0 min 0,000 mm 0,0 UV-I 0 W/m 13,8 C 15,6 C 1,6 km/h (1 Bft) 100,00 %
03.06.2016 23:05 15,5 C 89 % 1009,2 hPa 0,0 l/m 1,0 km/h (0 Bft) S 171 0 min 0,000 mm 0,0 UV-I 0 W/m 13,7 C 15,5 C 3,2 km/h (1 Bft) 100,00 %
03.06.2016 23:06 15,5 C 89 % 1009,2 hPa 0,0 l/m 1,3 km/h (1 Bft) S 171 0 min 0,000 mm 0,0 UV-I 0 W/m 13,7 C 15,5 C 1,6 km/h (1 Bft) 100,00 %
03.06.2016 23:07 15,5 C 89 % 1009,2 hPa 0,0 l/m 1,6 km/h (1 Bft) S 171 0 min 0,000 mm 0,0 UV-I 0 W/m 13,7 C 15,5 C 3,2 km/h (1 Bft) 100,00 %
03.06.2016 23:08 15,4 C 89 % 1009,3 hPa 0,0 l/m 1,9 km/h (1 Bft) S 171 0 min 0,000 mm 0,0 UV-I 0 W/m 13,6 C 15,4 C 3,2 km/h (1 Bft) 95,65 %
03.06.2016 23:09 15,4 C 89 % 1009,3 hPa 0,0 l/m 2,3 km/h (1 Bft) S 171 0 min 0,000 mm 0,0 UV-I 0 W/m 13,6 C 15,4 C 3,2 km/h (1 Bft) 100,00 %
03.06.2016 23:10 15,4 C 89 % 1009,2 hPa 0,0 l/m 2,7 km/h (1 Bft) S 171 0 min 0,000 mm 0,0 UV-I 0 W/m 13,6 C 15,4 C 3,2 km/h (1 Bft) 100,00 %
03.06.2016 23:11 15,4 C 89 % 1009,2 hPa 0,0 l/m 2,6 km/h (1 Bft) S 171 0 min 0,000 mm 0,0 UV-I 0 W/m 13,6 C 15,4 C 3,2 km/h (1 Bft) 100,00 %
03.06.2016 23:12 15,4 C 89 % 1009,2 hPa 0,0 l/m 3,2 km/h (1 Bft) S 171 0 min 0,000 mm 0,0 UV-I 0 W/m 13,6 C 15,4 C 6,4 km/h (2 Bft) 100,00 %
03.06.2016 23:13 15,4 C 89 % 1009,3 hPa 0,0 l/m 2,8 km/h (1 Bft) S 171 0 min 0,000 mm 0,0 UV-I 0 W/m 13,6 C 15,4 C 3,2 km/h (1 Bft) 100,00 %
03.06.2016 23:14 15,3 C 89 % 1009,3 hPa 0,0 l/m 3,5 km/h (1 Bft) S 171 0 min 0,000 mm 0,0 UV-I 0 W/m 13,5 C 15,3 C 6,4 km/h (2 Bft) 95,83 %
03.06.2016 23:15 15,3 C 89 % 1009,3 hPa 0,0 l/m 3,3 km/h (1 Bft) S 171 0 min 0,000 mm 0,0 UV-I 0 W/m 13,5 C 15,3 C 6,4 km/h (2 Bft) 100,00 %
03.06.2016 23:16 15,3 C 89 % 1009,2 hPa 0,0 l/m 2,5 km/h (1 Bft) S 171 0 min 0,000 mm 0,0 UV-I 0 W/m 13,5 C 15,3 C 3,2 km/h (1 Bft) 100,00 %
03.06.2016 23:17 15,3 C 89 % 1009,2 hPa 0,0 l/m 1,6 km/h (1 Bft) S 171 0 min 0,000 mm 0,0 UV-I 0 W/m 13,5 C 15,3 C 3,2 km/h (1 Bft) 100,00 %
03.06.2016 23:18 15,3 C 89 % 1009,2 hPa 0,0 l/m 0,9 km/h (0 Bft) S 171 0 min 0,000 mm 0,0 UV-I 0 W/m 13,5 C 15,3 C 1,6 km/h (1 Bft) 100,00 %
03.06.2016 23:19 15,2 C 89 % 1009,2 hPa 0,0 l/m 1,3 km/h (1 Bft) S 171 0 min 0,000 mm 0,0 UV-I 0 W/m 13,4 C 15,2 C 3,2 km/h (1 Bft) 100,00 %
03.06.2016 23:20 15,2 C 89 % 1009,3 hPa 0,0 l/m 1,3 km/h (1 Bft) S 171 0 min 0,000 mm 0,0 UV-I 0 W/m 13,4 C 15,2 C 3,2 km/h (1 Bft) 100,00 %
03.06.2016 23:21 15,2 C 89 % 1009,3 hPa 0,0 l/m 1,6 km/h (1 Bft) S 171 0 min 0,000 mm 0,0 UV-I 0 W/m 13,4 C 15,2 C 3,2 km/h (1 Bft) 100,00 %
03.06.2016 23:22 15,2 C 89 % 1009,3 hPa 0,0 l/m 2,0 km/h (1 Bft) S 171 0 min 0,000 mm 0,0 UV-I 0 W/m 13,4 C 15,2 C 3,2 km/h (1 Bft) 100,00 %
03.06.2016 23:23 15,2 C 89 % 1009,3 hPa 0,0 l/m 2,7 km/h (1 Bft) S 171 0 min 0,000 mm 0,0 UV-I 0 W/m 13,4 C 15,2 C 3,2 km/h (1 Bft) 100,00 %
03.06.2016 23:24 15,2 C 89 % 1009,3 hPa 0,0 l/m 2,4 km/h (1 Bft) S 171 0 min 0,000 mm 0,0 UV-I 0 W/m 13,4 C 15,2 C 3,2 km/h (1 Bft) 95,83 %
03.06.2016 23:25 15,1 C 89 % 1009,3 hPa 0,0 l/m 3,4 km/h (1 Bft) S 171 0 min 0,000 mm 0,0 UV-I 0 W/m 13,3 C 15,1 C 6,4 km/h (2 Bft) 100,00 %
03.06.2016 23:26 15,1 C 89 % 1009,3 hPa 0,0 l/m 4,4 km/h (1 Bft) S 171 0 min 0,000 mm 0,0 UV-I 0 W/m 13,3 C 15,1 C 8,0 km/h (2 Bft) 100,00 %
03.06.2016 23:27 15,1 C 90 % 1009,3 hPa 0,0 l/m 5,4 km/h (1 Bft) S 172 0 min 0,000 mm 0,0 UV-I 0 W/m 13,5 C 15,1 C 8,0 km/h (2 Bft) 95,65 %
03.06.2016 23:28 15,1 C 90 % 1009,4 hPa 0,0 l/m 4,2 km/h (1 Bft) S 171 0 min 0,000 mm 0,0 UV-I 0 W/m 13,5 C 15,1 C 8,0 km/h (2 Bft) 100,00 %
03.06.2016 23:29 15,1 C 90 % 1009,3 hPa 0,0 l/m 5,6 km/h (1 Bft) S 172 0 min 0,000 mm 0,0 UV-I 0 W/m 13,5 C 15,1 C 8,0 km/h (2 Bft) 100,00 %
03.06.2016 23:30 15,1 C 90 % 1009,3 hPa 0,0 l/m 5,2 km/h (1 Bft) S 171 0 min 0,000 mm 0,0 UV-I 0 W/m 13,5 C 15,1 C 8,0 km/h (2 Bft) 100,00 %
03.06.2016 23:31 15,1 C 90 % 1009,3 hPa 0,0 l/m 5,2 km/h (1 Bft) S 175 0 min 0,000 mm 0,0 UV-I 0 W/m 13,5 C 15,1 C 8,0 km/h (2 Bft) 100,00 %
03.06.2016 23:32 15,1 C 90 % 1009,3 hPa 0,0 l/m 4,2 km/h (1 Bft) S 180 0 min 0,000 mm 0,0 UV-I 0 W/m 13,5 C 15,1 C 6,4 km/h (2 Bft) 100,00 %
03.06.2016 23:33 15,1 C 90 % 1009,3 hPa 0,0 l/m 3,0 km/h (1 Bft) S 180 0 min 0,000 mm 0,0 UV-I 0 W/m 13,5 C 15,1 C 6,4 km/h (2 Bft) 95,83 %
03.06.2016 23:34 15,1 C 90 % 1009,3 hPa 0,0 l/m 4,6 km/h (1 Bft) S 175 0 min 0,000 mm 0,0 UV-I 0 W/m 13,5 C 15,1 C 6,4 km/h (2 Bft) 100,00 %
03.06.2016 23:35 15,1 C 90 % 1009,3 hPa 0,0 l/m 4,7 km/h (1 Bft) S 171 0 min 0,000 mm 0,0 UV-I 0 W/m 13,5 C 15,1 C 6,4 km/h (2 Bft) 96,30 %
03.06.2016 23:36 15,1 C 90 % 1009,3 hPa 0,0 l/m 6,3 km/h (2 Bft) S 172 0 min 0,000 mm 0,0 UV-I 0 W/m 13,5 C 15,1 C 8,0 km/h (2 Bft) 91,30 %
03.06.2016 23:37 15,1 C 90 % 1009,3 hPa 0,0 l/m 4,5 km/h (1 Bft) S 173 0 min 0,000 mm 0,0 UV-I 0 W/m 13,5 C 15,1 C 4,8 km/h (1 Bft) 100,00 %
03.06.2016 23:38 15,1 C 90 % 1009,3 hPa 0,0 l/m 4,2 km/h (1 Bft) S 173 0 min 0,000 mm 0,0 UV-I 0 W/m 13,5 C 15,1 C 4,8 km/h (1 Bft) 95,65 %
03.06.2016 23:39 15,1 C 90 % 1009,3 hPa 0,0 l/m 2,4 km/h (1 Bft) S 171 0 min 0,000 mm 0,0 UV-I 0 W/m 13,5 C 15,1 C 6,4 km/h (2 Bft) 100,00 %
03.06.2016 23:40 15,1 C 90 % 1009,3 hPa 0,0 l/m 2,7 km/h (1 Bft) S 171 0 min 0,000 mm 0,0 UV-I 0 W/m 13,5 C 15,1 C 3,2 km/h (1 Bft) 90,91 %
03.06.2016 23:41 15,1 C 90 % 1009,3 hPa 0,0 l/m 1,8 km/h (1 Bft) S 171 0 min 0,000 mm 0,0 UV-I 0 W/m 13,5 C 15,1 C 3,2 km/h (1 Bft) 100,00 %
03.06.2016 23:42 15,1 C 90 % 1009,3 hPa 0,0 l/m 0,8 km/h (0 Bft) S 171 0 min 0,000 mm 0,0 UV-I 0 W/m 13,5 C 15,1 C 1,6 km/h (1 Bft) 91,30 %
03.06.2016 23:43 15,1 C 90 % 1009,3 hPa 0,0 l/m 1,3 km/h (1 Bft) S 171 0 min 0,000 mm 0,0 UV-I 0 W/m 13,5 C 15,1 C 3,2 km/h (1 Bft) 100,00 %
03.06.2016 23:44 15,0 C 90 % 1009,3 hPa 0,0 l/m 1,3 km/h (1 Bft) S 171 0 min 0,000 mm 0,0 UV-I 0 W/m 13,4 C 15,0 C 3,2 km/h (1 Bft) 95,65 %
03.06.2016 23:45 15,0 C 90 % 1009,2 hPa 0,0 l/m 0,6 km/h (0 Bft) S 171 0 min 0,000 mm 0,0 UV-I 0 W/m 13,4 C 15,0 C 1,6 km/h (1 Bft) 100,00 %
03.06.2016 23:46 14,9 C 90 % 1009,3 hPa 0,0 l/m 0,9 km/h (0 Bft) S 171 0 min 0,000 mm 0,0 UV-I 0 W/m 13,3 C 14,9 C 3,2 km/h (1 Bft) 95,65 %
03.06.2016 23:47 14,9 C 90 % 1009,3 hPa 0,0 l/m 0,8 km/h (0 Bft) S 171 0 min 0,000 mm 0,0 UV-I 0 W/m 13,3 C 14,9 C 1,6 km/h (1 Bft) 95,83 %
03.06.2016 23:48 14,9 C 90 % 1009,3 hPa 0,0 l/m 1,0 km/h (0 Bft) S 171 0 min 0,000 mm 0,0 UV-I 0 W/m 13,3 C 14,9 C 1,6 km/h (1 Bft) 100,00 %
03.06.2016 23:49 14,9 C 90 % 1009,3 hPa 0,0 l/m 0,7 km/h (0 Bft) S 171 0 min 0,000 mm 0,0 UV-I 0 W/m 13,3 C 14,9 C 1,6 km/h (1 Bft) 92,31 %
03.06.2016 23:50 14,9 C 90 % 1009,3 hPa 0,0 l/m 1,2 km/h (1 Bft) S 171 0 min 0,000 mm 0,0 UV-I 0 W/m 13,3 C 14,9 C 3,2 km/h (1 Bft) 100,00 %
03.06.2016 23:51 14,9 C 90 % 1009,3 hPa 0,0 l/m 0,8 km/h (0 Bft) S 171 0 min 0,000 mm 0,0 UV-I 0 W/m 13,3 C 14,9 C 1,6 km/h (1 Bft) 95,65 %
03.06.2016 23:52 14,9 C 90 % 1009,3 hPa 0,0 l/m 1,4 km/h (1 Bft) S 171 0 min 0,000 mm 0,0 UV-I 0 W/m 13,3 C 14,9 C 1,6 km/h (1 Bft) 100,00 %
03.06.2016 23:53 14,9 C 90 % 1009,3 hPa 0,0 l/m 1,8 km/h (1 Bft) S 171 0 min 0,000 mm 0,0 UV-I 0 W/m 13,3 C 14,9 C 3,2 km/h (1 Bft) 92,86 %
03.06.2016 23:54 14,9 C 90 % 1009,3 hPa 0,0 l/m 2,2 km/h (1 Bft) S 171 0 min 0,000 mm 0,0 UV-I 0 W/m 13,3 C 14,9 C 3,2 km/h (1 Bft) 100,00 %
03.06.2016 23:55 14,9 C 90 % 1009,3 hPa 0,0 l/m 1,3 km/h (1 Bft) S 171 0 min 0,000 mm 0,0 UV-I 0 W/m 13,3 C 14,9 C 3,2 km/h (1 Bft) 95,65 %
03.06.2016 23:56 14,9 C 90 % 1009,3 hPa 0,0 l/m 1,9 km/h (1 Bft) S 171 0 min 0,000 mm 0,0 UV-I 0 W/m 13,3 C 14,9 C 3,2 km/h (1 Bft) 100,00 %
03.06.2016 23:57 14,9 C 90 % 1009,3 hPa 0,0 l/m 2,4 km/h (1 Bft) S 171 0 min 0,000 mm 0,0 UV-I 0 W/m 13,3 C 14,9 C 6,4 km/h (2 Bft) 95,65 %
03.06.2016 23:58 14,9 C 90 % 1009,3 hPa 0,0 l/m 2,1 km/h (1 Bft) S 171 0 min 0,000 mm 0,0 UV-I 0 W/m 13,3 C 14,9 C 3,2 km/h (1 Bft) 95,83 %
03.06.2016 23:59 15,0 C 90 % 1009,3 hPa 0,0 l/m 3,0 km/h (1 Bft) S 171 0 min 0,000 mm 0,0 UV-I 0 W/m 13,4 C 15,0 C 6,4 km/h (2 Bft) 100,00 %
_ Min-Zeit 02:37 17:47 17:46 - 05:04 - - - - - - 02:37 05:38 05:04 18:10
Minimum _ 12,1 C 61 % 1007,6 hPa - 0,0 km/h (0 Bft) - - - - - - 11,3 C 11,2 C 0,0 km/h (0 Bft) 82,61 %
_ Max-Zeit 18:09 01:32 00:00 00:00 10:11 - - 08:13 12:00 13:36 11:53 16:46 18:09 10:11 00:05
Maximum _ 21,4 C 96 % 1009,6 hPa 0,0 l/m 15,3 km/h
W (3 Bft)
- - 1 min 0,432 mm 7,0 UV-I 1134 W/m 15,9 C 21,4 C 22,5 km/h
W-SW (4 Bft)
100,00 %
Durchschnitt _ 16,5 C 83 % 1008,8 hPa #0,0 l/m 4,0 km/h (1 Bft) S-SW - #7:18 h #3,175 mm 2,6 UV-I 340 W/m 13,5 C 16,3 C 6,1 km/h (2 Bft) 98,34 %